Darstellungsparameter: Aktuell verwendete Einstellungen:
Skalierung der Graphiken ... ?
xyx+y,   Skalierungsfaktor:      Skalierung: Modus: x, Faktor: 1
Darstellungszeitraum ... ?
Vom - - bis: - -   Zeitraum: 27.08.2020 - 10.02.2021
Min/Max/Avg-Anzeige ... ?
Zeige MMA aktuell
Zeige MMA Monat
Zeige MMA alles
Zeige --A aktuell
Zeige --A Monat
Zeige --A alles
Keine MMA-Anzeige
MMA:
Average (ber die Originaldaten)
MMA-Basis: 23.02.2003 - 03.08.2020
Quicknavigation für Darstellung... ?
Tage:      1T, 2T, 3T, 5T -1T -2T -3T -5T +1T +2T +3T +5T
Wochen: 1W, 2W, 3W -1W -2W -3W +1W +2W +3W
Monate: 1M, 3M, 6M -1M -3M -6M +1M +3M +6M
Jahre:    1J, 3J, 5J, 10J -1J -3J -5J -10J +1J +3J +5J +10J
Nutze für die Darstellung ... ?
Originaldaten oder ...
Mittelwerte Minima Maxima auf...
Stundenbasis Tagesbasis Wochenbasis
Monatsbasis Jahresbasis      Datenbasis: Mittelwerte auf Stundenbasis
Darstellen als:
Statistik (Auto) Statistik J:M      Darstellung:
Zur Graphik,    zurück zur Übersicht aller Sensoren.
 
Tabellarische Datenbersicht: ?
 
Sensor: Nr:Datum:Temp:Abs-Feuchte:Windchill:Wind:
Aussen-T/F 1 27-08-2020 00:00:00 18.05833 C 10.7 g/m*3 18.06 C 4.68333 km/h
2 27-08-2020 01:00:00 17.31667 C 10.74 g/m*3 17.32 C 2.4 km/h
3 27-08-2020 02:00:00 16.175 C 10.8 g/m*3 16.18 C 2.4 km/h
4 27-08-2020 03:00:00 15.49167 C 10.59 g/m*3 15.49 C 1.6 km/h
5 27-08-2020 04:00:00 14.05833 C 10.34 g/m*3 14.06 C 1.33333 km/h
6 27-08-2020 05:00:00 13.23333 C 10.16 g/m*3 13.23 C 0 km/h
7 27-08-2020 06:00:00 12.80833 C 10.11 g/m*3 12.81 C 0.93333 km/h
8 27-08-2020 07:00:00 12.76667 C 10.18 g/m*3 12.77 C 3.74167 km/h
9 27-08-2020 08:00:00 13.69167 C 10.58 g/m*3 13.69 C 4.43333 km/h
10 27-08-2020 09:00:00 15.975 C 11.09 g/m*3 15.98 C 9.56667 km/h
11 27-08-2020 10:00:00 17.20833 C 11.34 g/m*3 17.21 C 6.3 km/h
12 27-08-2020 11:00:00 18.9 C 11.43 g/m*3 18.9 C 6.575 km/h
13 27-08-2020 12:00:00 19.5 C 11.02 g/m*3 19.5 C 5.21667 km/h
14 27-08-2020 13:00:00 20.125 C 10.85 g/m*3 20.13 C 9.275 km/h
15 27-08-2020 14:00:00 21.30833 C 10.65 g/m*3 21.31 C 7.25833 km/h
16 27-08-2020 15:00:00 22.59167 C 10.29 g/m*3 22.59 C 11.15833 km/h
17 27-08-2020 16:00:00 24.475 C 10.24 g/m*3 24.48 C 10.48333 km/h
18 27-08-2020 17:00:00 25.51667 C 9.95 g/m*3 25.52 C 10.9 km/h
19 27-08-2020 18:00:00 25.83333 C 9.65 g/m*3 25.83 C 9.81667 km/h
20 27-08-2020 19:00:00 24.425 C 10.33 g/m*3 24.43 C 4.15 km/h
21 27-08-2020 20:00:00 19.86667 C 10.19 g/m*3 19.87 C 3.6 km/h
22 27-08-2020 21:00:00 17.48333 C 9.89 g/m*3 17.48 C 2.53333 km/h
23 27-08-2020 22:00:00 17.20833 C 10.11 g/m*3 17.21 C 0 km/h
24 27-08-2020 23:00:00 17.40833 C 11.38 g/m*3 17.41 C 1.20833 km/h
25 28-08-2020 00:00:00 16.45 C 11.64 g/m*3 16.45 C 3.73333 km/h
Sensor: Nr:Datum:Temp:Abs-Feuchte:Windchill:Wind:
Aussen-T/F 26 28-08-2020 01:00:00 16.65833 C 11.88 g/m*3 16.66 C 1.46667 km/h
27 28-08-2020 02:00:00 16.425 C 12.69 g/m*3 16.43 C 3.75 km/h
28 28-08-2020 03:00:00 15.9 C 12.54 g/m*3 15.9 C 1.73333 km/h
29 28-08-2020 04:00:00 15.725 C 12.62 g/m*3 15.73 C 5.61667 km/h
30 28-08-2020 05:00:00 15.65 C 12.67 g/m*3 15.65 C 3.06667 km/h
31 28-08-2020 06:00:00 15.525 C 12.58 g/m*3 15.53 C 4.14167 km/h
32 28-08-2020 07:00:00 15.56667 C 12.61 g/m*3 15.57 C 2.66667 km/h
33 28-08-2020 08:00:00 15.99167 C 12.94 g/m*3 15.99 C 1.73333 km/h
34 28-08-2020 09:00:00 16.78333 C 12.74 g/m*3 16.78 C 3.20833 km/h
35 28-08-2020 10:00:00 18.51667 C 12.23 g/m*3 18.52 C 8.875 km/h
36 28-08-2020 11:00:00 19.95833 C 11.92 g/m*3 19.96 C 11.425 km/h
37 28-08-2020 12:00:00 20.63333 C 11.87 g/m*3 20.63 C 8.89167 km/h
38 28-08-2020 13:00:00 20.40833 C 11.52 g/m*3 20.41 C 10.09167 km/h
39 28-08-2020 14:00:00 20.875 C 11.68 g/m*3 20.88 C 5.88333 km/h
40 28-08-2020 15:00:00 21.38333 C 11.71 g/m*3 21.38 C 6.3 km/h
41 28-08-2020 16:00:00 21.73333 C 11.91 g/m*3 21.73 C 9.53333 km/h
42 28-08-2020 17:00:00 22.425 C 11.45 g/m*3 22.43 C 12.5 km/h
43 28-08-2020 18:00:00 21.525 C 10.42 g/m*3 21.53 C 11.14167 km/h
44 28-08-2020 19:00:00 20.36667 C 9.75 g/m*3 20.37 C 5.225 km/h
45 28-08-2020 20:00:00 18.75 C 10.24 g/m*3 18.75 C 9.39167 km/h
46 28-08-2020 21:00:00 14.975 C 10.65 g/m*3 14.98 C 5.78333 km/h
47 28-08-2020 22:00:00 13.625 C 10.32 g/m*3 13.63 C 3.33333 km/h
48 28-08-2020 23:00:00 12.95 C 10.1 g/m*3 12.95 C 1.46667 km/h
49 29-08-2020 00:00:00 12.475 C 9.99 g/m*3 12.48 C 1.46667 km/h
50 29-08-2020 01:00:00 12.425 C 10 g/m*3 12.43 C 2.93333 km/h
Sensor: Nr:Datum:Temp:Abs-Feuchte:Windchill:Wind:
Aussen-T/F 51 29-08-2020 02:00:00 12.05 C 9.84 g/m*3 12.05 C 1.86667 km/h
52 29-08-2020 03:00:00 11.71667 C 9.69 g/m*3 11.72 C 1.6 km/h
53 29-08-2020 04:00:00 11.725 C 9.76 g/m*3 11.73 C 2.13333 km/h
54 29-08-2020 05:00:00 11.15833 C 9.42 g/m*3 11.16 C 1.33333 km/h
55 29-08-2020 06:00:00 10.96667 C 9.41 g/m*3 10.97 C 0 km/h
56 29-08-2020 07:00:00 11.275 C 9.67 g/m*3 11.28 C 1.46667 km/h
57 29-08-2020 08:00:00 12.3 C 10.34 g/m*3 12.3 C 3.88333 km/h
58 29-08-2020 09:00:00 14.73333 C 10.81 g/m*3 14.73 C 10.75 km/h
59 29-08-2020 10:00:00 16.60833 C 10.97 g/m*3 16.61 C 13.56667 km/h
60 29-08-2020 11:00:00 17.73333 C 11.09 g/m*3 17.73 C 15.16667 km/h
61 29-08-2020 12:00:00 18.84167 C 11.07 g/m*3 18.84 C 16.23333 km/h
62 29-08-2020 13:00:00 19.35 C 10.91 g/m*3 19.35 C 14.09167 km/h
63 29-08-2020 14:00:00 20.28333 C 10.69 g/m*3 20.28 C 15.16667 km/h
64 29-08-2020 15:00:00 21.31667 C 10.32 g/m*3 21.32 C 13.16667 km/h
65 29-08-2020 16:00:00 22.5 C 10.37 g/m*3 22.5 C 9.80833 km/h
66 29-08-2020 17:00:00 22.75 C 10.18 g/m*3 22.75 C 11.55833 km/h
67 29-08-2020 18:00:00 21.88333 C 10.72 g/m*3 21.88 C 2.15 km/h
68 29-08-2020 19:00:00 22.025 C 10.82 g/m*3 22.03 C 3.075 km/h
69 29-08-2020 20:00:00 19.88333 C 11.1 g/m*3 19.88 C 3.20833 km/h
70 29-08-2020 21:00:00 17.675 C 11.4 g/m*3 17.68 C 8.06667 km/h
71 29-08-2020 22:00:00 14.83333 C 11.01 g/m*3 14.83 C 7.25833 km/h
72 29-08-2020 23:00:00 13.36667 C 10.55 g/m*3 13.37 C 4 km/h
73 30-08-2020 00:00:00 13.025 C 10.5 g/m*3 13.03 C 0.66667 km/h
74 30-08-2020 01:00:00 12.325 C 10.13 g/m*3 12.33 C 0.53333 km/h
75 30-08-2020 02:00:00 11.58333 C 9.76 g/m*3 11.58 C 0 km/h
Sensor: Nr:Datum:Temp:Abs-Feuchte:Windchill:Wind:
Aussen-T/F 76 30-08-2020 03:00:00 11.06667 C 9.48 g/m*3 11.07 C 0 km/h
77 30-08-2020 04:00:00 10.675 C 9.32 g/m*3 10.68 C 0 km/h
78 30-08-2020 05:00:00 10.86667 C 9.5 g/m*3 10.87 C 0 km/h
79 30-08-2020 06:00:00 10.66667 C 9.39 g/m*3 10.67 C 0 km/h
80 30-08-2020 07:00:00 11.1 C 9.67 g/m*3 11.1 C 1.2 km/h
81 30-08-2020 08:00:00 11.94167 C 10.2 g/m*3 11.94 C 0.26667 km/h
82 30-08-2020 09:00:00 13.15833 C 11.01 g/m*3 13.16 C 0.66667 km/h
83 30-08-2020 10:00:00 14.78333 C 11.25 g/m*3 14.78 C 6.28333 km/h
84 30-08-2020 11:00:00 16.20833 C 11.42 g/m*3 16.21 C 6.55833 km/h
85 30-08-2020 12:00:00 17.03333 C 11.54 g/m*3 17.03 C 8.06667 km/h
86 30-08-2020 13:00:00 18.01667 C 11.63 g/m*3 18.02 C 6.03333 km/h
87 30-08-2020 14:00:00 18.85 C 11.5 g/m*3 18.85 C 5.75833 km/h
88 30-08-2020 15:00:00 19.89167 C 11.21 g/m*3 19.89 C 7.38333 km/h
89 30-08-2020 16:00:00 21.325 C 10.55 g/m*3 21.33 C 8.06667 km/h
90 30-08-2020 17:00:00 21.625 C 10.34 g/m*3 21.63 C 7.79167 km/h
91 30-08-2020 18:00:00 21.61667 C 9.92 g/m*3 21.62 C 5.5 km/h
92 30-08-2020 19:00:00 20.63333 C 10.39 g/m*3 20.63 C 2.15 km/h
93 30-08-2020 20:00:00 18.9 C 10.81 g/m*3 18.9 C 3.49167 km/h
94 30-08-2020 21:00:00 18.875 C 11.53 g/m*3 18.88 C 4.01667 km/h
95 30-08-2020 22:00:00 17.65833 C 11.53 g/m*3 17.66 C 0 km/h
96 30-08-2020 23:00:00 16.69167 C 11.34 g/m*3 16.69 C 0 km/h
97 31-08-2020 00:00:00 16.06667 C 11.23 g/m*3 16.07 C 0 km/h
98 31-08-2020 01:00:00 15.70833 C 11.37 g/m*3 15.71 C 0 km/h
99 31-08-2020 02:00:00 15.46667 C 11.4 g/m*3 15.47 C 0 km/h
100 31-08-2020 03:00:00 14.65833 C 10.85 g/m*3 14.66 C 0 km/h
Sensor: Nr:Datum:Temp:Abs-Feuchte:Windchill:Wind:
Aussen-T/F 101 31-08-2020 04:00:00 13.725 C 10.62 g/m*3 13.73 C 0 km/h
102 31-08-2020 05:00:00 13.15833 C 10.37 g/m*3 13.16 C 0.26667 km/h
103 31-08-2020 06:00:00 12.70833 C 10.28 g/m*3 12.71 C 0.4 km/h
104 31-08-2020 07:00:00 13.19167 C 10.71 g/m*3 13.19 C 0 km/h
105 31-08-2020 08:00:00 14.24167 C 11.26 g/m*3 14.24 C 0 km/h
106 31-08-2020 09:00:00 15.55 C 11.74 g/m*3 15.55 C 0.4 km/h
107 31-08-2020 10:00:00 16.6 C 12.04 g/m*3 16.6 C 4.69167 km/h
108 31-08-2020 11:00:00 17.70833 C 12.16 g/m*3 17.71 C 6.425 km/h
109 31-08-2020 12:00:00 18.95833 C 12.61 g/m*3 18.96 C 6.975 km/h
110 31-08-2020 13:00:00 19.55 C 12.68 g/m*3 19.55 C 6.69167 km/h
111 31-08-2020 14:00:00 18.38333 C 12.83 g/m*3 18.38 C 7.64167 km/h
112 31-08-2020 15:00:00 16.35 C 12.76 g/m*3 16.35 C 1.2 km/h
113 31-08-2020 16:00:00 16.74167 C 13.17 g/m*3 16.74 C 0 km/h
114 31-08-2020 17:00:00 16.4 C 12.91 g/m*3 16.4 C 0.4 km/h
115 31-08-2020 18:00:00 16.025 C 12.78 g/m*3 16.02 C 0.66667 km/h
116 31-08-2020 19:00:00 15.6 C 12.45 g/m*3 15.6 C 2.26667 km/h
117 31-08-2020 20:00:00 14.91667 C 12 g/m*3 14.92 C 2.13333 km/h
118 31-08-2020 21:00:00 14.56667 C 11.86 g/m*3 14.57 C 0.66667 km/h
119 31-08-2020 22:00:00 14.49167 C 11.84 g/m*3 14.49 C 0.4 km/h
120 31-08-2020 23:00:00 14.45833 C 11.91 g/m*3 14.46 C 0.53333 km/h
121 01-09-2020 00:00:00 14.15 C 11.69 g/m*3 14.15 C 0.26667 km/h
122 01-09-2020 01:00:00 14.06667 C 11.63 g/m*3 14.07 C 0 km/h
123 01-09-2020 02:00:00 13.66667 C 11.34 g/m*3 13.67 C 0.66667 km/h
124 01-09-2020 03:00:00 13.125 C 10.97 g/m*3 13.13 C 2.4 km/h
125 01-09-2020 04:00:00 12.94167 C 10.86 g/m*3 12.94 C 1.33333 km/h
Sensor: Nr:Datum:Temp:Abs-Feuchte:Windchill:Wind:
Aussen-T/F 126 01-09-2020 05:00:00 12.55833 C 10.63 g/m*3 12.56 C 2.66667 km/h
127 01-09-2020 06:00:00 12.14167 C 10.4 g/m*3 12.14 C 2.13333 km/h
128 01-09-2020 07:00:00 12.50833 C 10.67 g/m*3 12.51 C 0 km/h
129 01-09-2020 08:00:00 13.40833 C 11.28 g/m*3 13.41 C 0 km/h
130 01-09-2020 09:00:00 13.875 C 11.61 g/m*3 13.88 C 0 km/h
131 01-09-2020 10:00:00 14.26667 C 11.86 g/m*3 14.27 C 1.33333 km/h
132 01-09-2020 11:00:00 15.35833 C 12.14 g/m*3 15.36 C 2.13333 km/h
133 01-09-2020 12:00:00 17 C 12.36 g/m*3 17 C 1.6 km/h
134 01-09-2020 13:00:00 18.525 C 11.57 g/m*3 18.52 C 6.85833 km/h
135 01-09-2020 14:00:00 19.45833 C 10.77 g/m*3 19.46 C 8.475 km/h
136 01-09-2020 15:00:00 19.99167 C 10.44 g/m*3 19.99 C 4.83333 km/h
137 01-09-2020 16:00:00 18.60833 C 11.8 g/m*3 18.61 C 5.64167 km/h
138 01-09-2020 17:00:00 17.18333 C 11.62 g/m*3 17.18 C 4.43333 km/h
139 01-09-2020 18:00:00 16.375 C 11.76 g/m*3 16.38 C 0.8 km/h
140 01-09-2020 19:00:00 16.5 C 11.99 g/m*3 16.5 C 1.46667 km/h
141 01-09-2020 20:00:00 15.26667 C 11.15 g/m*3 15.27 C 2.53333 km/h
142 01-09-2020 21:00:00 14.15 C 10.8 g/m*3 14.15 C 2 km/h
143 01-09-2020 22:00:00 13.7 C 10.68 g/m*3 13.7 C 0.26667 km/h
144 01-09-2020 23:00:00 13.30833 C 10.61 g/m*3 13.31 C 0 km/h
145 02-09-2020 00:00:00 13.30833 C 10.72 g/m*3 13.31 C 0 km/h
146 02-09-2020 01:00:00 13.2 C 10.68 g/m*3 13.2 C 0.4 km/h
147 02-09-2020 02:00:00 12.90833 C 10.51 g/m*3 12.91 C 0.26667 km/h
148 02-09-2020 03:00:00 12.80833 C 10.53 g/m*3 12.81 C 0.4 km/h
149 02-09-2020 04:00:00 12.70833 C 10.47 g/m*3 12.71 C 0 km/h
150 02-09-2020 05:00:00 12.51667 C 10.41 g/m*3 12.52 C 0 km/h
Sensor: Nr:Datum:Temp:Abs-Feuchte:Windchill:Wind:
Aussen-T/F 151 02-09-2020 06:00:00 12.3 C 10.32 g/m*3 12.3 C 0.26667 km/h
152 02-09-2020 07:00:00 11.59167 C 9.87 g/m*3 11.59 C 0.93333 km/h
153 02-09-2020 08:00:00 11.49167 C 9.85 g/m*3 11.49 C 0.26667 km/h
154 02-09-2020 09:00:00 12.83333 C 10.7 g/m*3 12.83 C 0.26667 km/h
155 02-09-2020 10:00:00 14.63333 C 11.02 g/m*3 14.63 C 1.33333 km/h
156 02-09-2020 11:00:00 16.36667 C 11.09 g/m*3 16.37 C 1.6 km/h
157 02-09-2020 12:00:00 17.19167 C 11.38 g/m*3 17.19 C 1.33333 km/h
158 02-09-2020 13:00:00 18.68333 C 10.54 g/m*3 18.68 C 3.88333 km/h
159 02-09-2020 14:00:00 19.825 C 9.65 g/m*3 19.83 C 5.76667 km/h
160 02-09-2020 15:00:00 21.1 C 9.44 g/m*3 21.1 C 6.43333 km/h
161 02-09-2020 16:00:00 22.025 C 9.43 g/m*3 22.03 C 4.16667 km/h
162 02-09-2020 17:00:00 23.05 C 9.91 g/m*3 23.05 C 3.89167 km/h
163 02-09-2020 18:00:00 19.98333 C 11.31 g/m*3 19.98 C 0.8 km/h
164 02-09-2020 19:00:00 18.55833 C 10.64 g/m*3 18.56 C 3.75833 km/h
165 02-09-2020 20:00:00 16.25 C 9.57 g/m*3 16.25 C 7.39167 km/h
166 02-09-2020 21:00:00 14.8 C 9.7 g/m*3 14.8 C 0 km/h
167 02-09-2020 22:00:00 14.16667 C 10.04 g/m*3 14.17 C 0 km/h
168 02-09-2020 23:00:00 13.5 C 9.67 g/m*3 13.5 C 0 km/h
169 03-09-2020 00:00:00 12.325 C 9.24 g/m*3 12.33 C 0 km/h
170 03-09-2020 01:00:00 11.38333 C 9 g/m*3 11.38 C 0 km/h
171 03-09-2020 02:00:00 10.55833 C 8.75 g/m*3 10.56 C 0 km/h
172 03-09-2020 03:00:00 10.275 C 8.76 g/m*3 10.28 C 0 km/h
173 03-09-2020 04:00:00 10.05833 C 8.73 g/m*3 10.06 C 0 km/h
174 03-09-2020 05:00:00 9.84167 C 8.69 g/m*3 9.84 C 0.26667 km/h
175 03-09-2020 06:00:00 10.14167 C 8.91 g/m*3 10.14 C 0.13333 km/h
Sensor: Nr:Datum:Temp:Abs-Feuchte:Windchill:Wind:
Aussen-T/F 176 03-09-2020 07:00:00 10.35833 C 9.04 g/m*3 10.36 C 0.13333 km/h
177 03-09-2020 08:00:00 11.25833 C 9.47 g/m*3 11.26 C 0.8 km/h
178 03-09-2020 09:00:00 12.76667 C 9.91 g/m*3 12.77 C 1.33333 km/h
179 03-09-2020 10:00:00 14.60833 C 10.5 g/m*3 14.61 C 0.53333 km/h
180 03-09-2020 11:00:00 17.63333 C 11.13 g/m*3 17.63 C 6.85833 km/h
181 03-09-2020 12:00:00 19.33333 C 11.12 g/m*3 19.33 C 8.475 km/h
182 03-09-2020 13:00:00 19.08333 C 11.57 g/m*3 19.08 C 7.39167 km/h
183 03-09-2020 14:00:00 17.73333 C 11.89 g/m*3 17.73 C 4.3 km/h
184 03-09-2020 15:00:00 17.99167 C 12.31 g/m*3 17.99 C 5.225 km/h
185 03-09-2020 16:00:00 16.2 C 12.32 g/m*3 16.2 C 3.475 km/h
186 03-09-2020 17:00:00 15.85833 C 12.52 g/m*3 15.86 C 1.2 km/h
187 03-09-2020 18:00:00 16.11667 C 12.82 g/m*3 16.12 C 1.33333 km/h
188 03-09-2020 19:00:00 15.95 C 12.75 g/m*3 15.95 C 2.53333 km/h
189 03-09-2020 20:00:00 15.5 C 12.43 g/m*3 15.5 C 1.73333 km/h
190 03-09-2020 21:00:00 15.28333 C 12.34 g/m*3 15.28 C 2 km/h
191 03-09-2020 22:00:00 15.63333 C 12.57 g/m*3 15.63 C 0.66667 km/h
192 03-09-2020 23:00:00 15.75833 C 12.62 g/m*3 15.76 C 0.13333 km/h
193 04-09-2020 00:00:00 15.825 C 12.67 g/m*3 15.83 C 0 km/h
194 04-09-2020 01:00:00 15.78333 C 12.64 g/m*3 15.78 C 0.4 km/h
195 04-09-2020 02:00:00 15.84167 C 12.54 g/m*3 15.84 C 1.06667 km/h
196 04-09-2020 03:00:00 16.46667 C 12.85 g/m*3 16.47 C 0.8 km/h
197 04-09-2020 04:00:00 16.7 C 12.81 g/m*3 16.7 C 0 km/h
198 04-09-2020 05:00:00 16.7 C 12.85 g/m*3 16.7 C 0 km/h
199 04-09-2020 06:00:00 16.58333 C 12.7 g/m*3 16.58 C 1.73333 km/h
200 04-09-2020 07:00:00 16.78333 C 12.7 g/m*3 16.78 C 0.8 km/h
Sensor: Nr:Datum:Temp:Abs-Feuchte:Windchill:Wind:
Aussen-T/F 201 04-09-2020 08:00:00 17.175 C 13 g/m*3 17.18 C 0.4 km/h
202 04-09-2020 09:00:00 18.35 C 13.41 g/m*3 18.35 C 1.2 km/h
203 04-09-2020 10:00:00 19.25833 C 13.68 g/m*3 19.26 C 0.13333 km/h
204 04-09-2020 11:00:00 20.375 C 13.81 g/m*3 20.38 C 1.86667 km/h
205 04-09-2020 12:00:00 22.45 C 14.06 g/m*3 22.45 C 10.49167 km/h
206 04-09-2020 13:00:00 24.5 C 14.62 g/m*3 24.5 C 14.23333 km/h
207 04-09-2020 14:00:00 25.675 C 14.66 g/m*3 25.68 C 10.20833 km/h
208 04-09-2020 15:00:00 25.71667 C 14.64 g/m*3 25.72 C 4.94167 km/h
209 04-09-2020 16:00:00 26.34167 C 14.62 g/m*3 26.34 C 2.93333 km/h
210 04-09-2020 17:00:00 28.15833 C 15.38 g/m*3 28.16 C 2.40833 km/h
211 04-09-2020 18:00:00 25.54167 C 15.78 g/m*3 25.54 C 7.80833 km/h
212 04-09-2020 19:00:00 23.40833 C 15.83 g/m*3 23.41 C 4.4 km/h
213 04-09-2020 20:00:00 21.325 C 15.4 g/m*3 21.33 C 1.475 km/h
214 04-09-2020 21:00:00 20.075 C 15.14 g/m*3 20.08 C 2.13333 km/h
215 04-09-2020 22:00:00 19.50833 C 14.64 g/m*3 19.51 C 0.53333 km/h
216 04-09-2020 23:00:00 18.725 C 14.47 g/m*3 18.73 C 0 km/h
217 05-09-2020 00:00:00 17.79167 C 13.8 g/m*3 17.79 C 2 km/h
218 05-09-2020 01:00:00 16.61667 C 13.06 g/m*3 16.62 C 0 km/h
219 05-09-2020 02:00:00 15.875 C 12.68 g/m*3 15.88 C 0 km/h
220 05-09-2020 03:00:00 16.04167 C 12.98 g/m*3 16.04 C 0 km/h
221 05-09-2020 04:00:00 16.50833 C 13.46 g/m*3 16.51 C 0.4 km/h
222 05-09-2020 05:00:00 16.7 C 13.58 g/m*3 16.7 C 0 km/h
223 05-09-2020 06:00:00 16.25833 C 12.62 g/m*3 16.26 C 6.04167 km/h
224 05-09-2020 07:00:00 15.81667 C 11.42 g/m*3 15.82 C 4.00833 km/h
225 05-09-2020 08:00:00 15.50833 C 11.31 g/m*3 15.51 C 2.26667 km/h
Sensor: Nr:Datum:Temp:Abs-Feuchte:Windchill:Wind:
Aussen-T/F 226 05-09-2020 09:00:00 15.875 C 11.35 g/m*3 15.88 C 3.475 km/h
227 05-09-2020 10:00:00 16.64167 C 11.42 g/m*3 16.64 C 6.84167 km/h
228 05-09-2020 11:00:00 17.79167 C 11.57 g/m*3 17.79 C 7.93333 km/h
229 05-09-2020 12:00:00 18.36667 C 11.37 g/m*3 18.37 C 11.15 km/h
230 05-09-2020 13:00:00 18.64167 C 11.31 g/m*3 18.64 C 11.025 km/h
231 05-09-2020 14:00:00 18.825 C 11.17 g/m*3 18.83 C 12.89167 km/h
232 05-09-2020 15:00:00 17.76667 C 11.07 g/m*3 17.77 C 11.3 km/h
233 05-09-2020 16:00:00 18.68333 C 10.68 g/m*3 18.68 C 9.69167 km/h
234 05-09-2020 17:00:00 19.44167 C 10.05 g/m*3 19.44 C 9.425 km/h
235 05-09-2020 18:00:00 20.2 C 9.08 g/m*3 20.2 C 7.91667 km/h
236 05-09-2020 19:00:00 18.6 C 9.23 g/m*3 18.6 C 1.74167 km/h
237 05-09-2020 20:00:00 16.40833 C 9.19 g/m*3 16.41 C 3.60833 km/h
238 05-09-2020 21:00:00 14.35833 C 9.35 g/m*3 14.36 C 3.06667 km/h
239 05-09-2020 22:00:00 13.725 C 9.27 g/m*3 13.73 C 3.6 km/h
240 05-09-2020 23:00:00 13.08333 C 9.22 g/m*3 13.08 C 4.53333 km/h
241 06-09-2020 00:00:00 12.55 C 9.19 g/m*3 12.55 C 2.8 km/h
242 06-09-2020 01:00:00 11.725 C 9.08 g/m*3 11.73 C 0 km/h
243 06-09-2020 02:00:00 10.51667 C 8.62 g/m*3 10.52 C 0.13333 km/h
244 06-09-2020 03:00:00 9.65 C 8.34 g/m*3 9.65 C 0.26667 km/h
245 06-09-2020 04:00:00 9.06667 C 8.17 g/m*3 9.07 C 0.13333 km/h
246 06-09-2020 05:00:00 8.60833 C 8.03 g/m*3 8.61 C 0.4 km/h
247 06-09-2020 06:00:00 8.175 C 7.85 g/m*3 8.18 C 0 km/h
248 06-09-2020 07:00:00 8.03333 C 7.85 g/m*3 8.03 C 0.13333 km/h
249 06-09-2020 08:00:00 8.125 C 7.92 g/m*3 8.13 C 0.53333 km/h
250 06-09-2020 09:00:00 8.96667 C 8.42 g/m*3 8.97 C 1.33333 km/h
Sensor: Nr:Datum:Temp:Abs-Feuchte:Windchill:Wind:
Aussen-T/F 251 06-09-2020 10:00:00 10.61667 C 9.31 g/m*3 10.62 C 0.4 km/h
252 06-09-2020 11:00:00 13.84167 C 9.64 g/m*3 13.84 C 0.53333 km/h
253 06-09-2020 12:00:00 16.43333 C 9.18 g/m*3 16.43 C 4.825 km/h
254 06-09-2020 13:00:00 17.45 C 8.83 g/m*3 17.45 C 4.03333 km/h
255 06-09-2020 14:00:00 18.61667 C 8.8 g/m*3 18.62 C 4.55 km/h
256 06-09-2020 15:00:00 19.04167 C 8.6 g/m*3 19.04 C 6.30833 km/h
257 06-09-2020 16:00:00 18.5 C 8.43 g/m*3 18.5 C 5.50833 km/h
258 06-09-2020 17:00:00 18.56667 C 8.68 g/m*3 18.57 C 7.53333 km/h
259 06-09-2020 18:00:00 19.11667 C 8.76 g/m*3 19.12 C 3.34167 km/h
260 06-09-2020 19:00:00 18.65 C 8.87 g/m*3 18.65 C 2.4 km/h
261 06-09-2020 20:00:00 14.71667 C 8.58 g/m*3 14.72 C 0 km/h
262 06-09-2020 21:00:00 12.83333 C 8.62 g/m*3 12.83 C 0 km/h
263 06-09-2020 22:00:00 12.35 C 8.89 g/m*3 12.35 C 0 km/h
264 06-09-2020 23:00:00 12.575 C 9.02 g/m*3 12.58 C 0.26667 km/h
265 07-09-2020 00:00:00 12.59167 C 9.03 g/m*3 12.59 C 0.13333 km/h
266 07-09-2020 01:00:00 12.19167 C 8.95 g/m*3 12.19 C 0 km/h
267 07-09-2020 02:00:00 10.725 C 8.44 g/m*3 10.73 C 0.13333 km/h
268 07-09-2020 03:00:00 9.475 C 8.1 g/m*3 9.48 C 0.13333 km/h
269 07-09-2020 04:00:00 8.80833 C 7.93 g/m*3 8.81 C 0.13333 km/h
270 07-09-2020 05:00:00 8.24167 C 7.76 g/m*3 8.24 C 0.4 km/h
271 07-09-2020 06:00:00 7.81667 C 7.62 g/m*3 7.82 C 0.53333 km/h
272 07-09-2020 07:00:00 7.6 C 7.57 g/m*3 7.6 C 0 km/h
273 07-09-2020 08:00:00 7.98333 C 7.85 g/m*3 7.98 C 0.26667 km/h
274 07-09-2020 09:00:00 8.95833 C 8.39 g/m*3 8.96 C 0.4 km/h
275 07-09-2020 10:00:00 10.56667 C 9.29 g/m*3 10.57 C 0.93333 km/h
Sensor: Nr:Datum:Temp:Abs-Feuchte:Windchill:Wind:
Aussen-T/F 276 07-09-2020 11:00:00 13.66667 C 10.23 g/m*3 13.67 C 1.73333 km/h
277 07-09-2020 12:00:00 16.475 C 10 g/m*3 16.48 C 3.34167 km/h
278 07-09-2020 13:00:00 18.13333 C 9.44 g/m*3 18.13 C 3.875 km/h
279 07-09-2020 14:00:00 19.43333 C 8.85 g/m*3 19.43 C 6.71667 km/h
280 07-09-2020 15:00:00 20.7 C 8.84 g/m*3 20.7 C 5.475 km/h
281 07-09-2020 16:00:00 21.69167 C 8.87 g/m*3 21.69 C 5.35 km/h
282 07-09-2020 17:00:00 22.85 C 9.02 g/m*3 22.85 C 3.74167 km/h
283 07-09-2020 18:00:00 22.425 C 10.01 g/m*3 22.43 C 0.66667 km/h
284 07-09-2020 19:00:00 20.85 C 10.05 g/m*3 20.85 C 2.53333 km/h
285 07-09-2020 20:00:00 16.58333 C 9.18 g/m*3 16.58 C 3.73333 km/h
286 07-09-2020 21:00:00 14.21667 C 9.18 g/m*3 14.22 C 0.53333 km/h
287 07-09-2020 22:00:00 12.7 C 8.95 g/m*3 12.7 C 0 km/h
288 07-09-2020 23:00:00 11.675 C 8.68 g/m*3 11.68 C 0 km/h
289 08-09-2020 00:00:00 10.875 C 8.49 g/m*3 10.88 C 0 km/h
290 08-09-2020 01:00:00 10.425 C 8.43 g/m*3 10.43 C 0.13333 km/h
291 08-09-2020 02:00:00 9.775 C 8.24 g/m*3 9.78 C 0 km/h
292 08-09-2020 03:00:00 9.25 C 8.1 g/m*3 9.25 C 0 km/h
293 08-09-2020 04:00:00 8.725 C 7.93 g/m*3 8.73 C 0 km/h
294 08-09-2020 05:00:00 8.41667 C 7.86 g/m*3 8.42 C 0 km/h
295 08-09-2020 06:00:00 8.05833 C 7.72 g/m*3 8.06 C 0 km/h
296 08-09-2020 07:00:00 8.125 C 7.83 g/m*3 8.13 C 0 km/h
297 08-09-2020 08:00:00 8.76667 C 8.17 g/m*3 8.77 C 0 km/h
298 08-09-2020 09:00:00 9.725 C 8.68 g/m*3 9.73 C 0.8 km/h
299 08-09-2020 10:00:00 12.20833 C 9.76 g/m*3 12.21 C 2.53333 km/h
300 08-09-2020 11:00:00 17.40833 C 10.33 g/m*3 17.41 C 6.99167 km/h
Sensor: Nr:Datum:Temp:Abs-Feuchte:Windchill:Wind:
Aussen-T/F 301 08-09-2020 12:00:00 20.70833 C 10.33 g/m*3 20.71 C 10.89167 km/h
302 08-09-2020 13:00:00 22.10833 C 10.22 g/m*3 22.11 C 10.48333 km/h
303 08-09-2020 14:00:00 23.06667 C 10.26 g/m*3 23.07 C 9.55833 km/h
304 08-09-2020 15:00:00 24.23333 C 10.27 g/m*3 24.23 C 10.74167 km/h
305 08-09-2020 16:00:00 25.63333 C 10.38 g/m*3 25.63 C 9.14167 km/h
306 08-09-2020 17:00:00 27.58333 C 10.63 g/m*3 27.58 C 9 km/h
307 08-09-2020 18:00:00 27.83333 C 11.18 g/m*3 27.83 C 6.43333 km/h
308 08-09-2020 19:00:00 25.13333 C 12.47 g/m*3 25.13 C 4.95 km/h
309 08-09-2020 20:00:00 20.625 C 12.44 g/m*3 20.63 C 1.46667 km/h
310 08-09-2020 21:00:00 18.66667 C 12.26 g/m*3 18.67 C 2.26667 km/h
311 08-09-2020 22:00:00 17.56667 C 12.04 g/m*3 17.57 C 2.66667 km/h
312 08-09-2020 23:00:00 16.24167 C 11.73 g/m*3 16.24 C 0 km/h
313 09-09-2020 00:00:00 15.15833 C 11.41 g/m*3 15.16 C 0 km/h
314 09-09-2020 01:00:00 14.46667 C 11.23 g/m*3 14.47 C 0 km/h
315 09-09-2020 02:00:00 13.90833 C 10.98 g/m*3 13.91 C 0 km/h
316 09-09-2020 03:00:00 13.35 C 10.76 g/m*3 13.35 C 0 km/h
317 09-09-2020 04:00:00 12.86667 C 10.49 g/m*3 12.87 C 0 km/h
318 09-09-2020 05:00:00 12.46667 C 10.32 g/m*3 12.47 C 0 km/h
319 09-09-2020 06:00:00 12.18333 C 10.2 g/m*3 12.18 C 0 km/h
320 09-09-2020 07:00:00 12.01667 C 10.14 g/m*3 12.02 C 0.13333 km/h
321 09-09-2020 08:00:00 12.41667 C 10.47 g/m*3 12.42 C 1.2 km/h
322 09-09-2020 09:00:00 13.48333 C 11.25 g/m*3 13.48 C 1.6 km/h
323 09-09-2020 10:00:00 16.26667 C 12.88 g/m*3 16.27 C 0.13333 km/h
324 09-09-2020 11:00:00 20.69167 C 13.52 g/m*3 20.69 C 0.53333 km/h
325 09-09-2020 12:00:00 22.36667 C 13.68 g/m*3 22.37 C 3.74167 km/h
Sensor: Nr:Datum:Temp:Abs-Feuchte:Windchill:Wind:
Aussen-T/F 326 09-09-2020 13:00:00 22.85 C 13.87 g/m*3 22.85 C 5.225 km/h
327 09-09-2020 14:00:00 23.69167 C 13.99 g/m*3 23.69 C 7.66667 km/h
328 09-09-2020 15:00:00 24.1 C 14.19 g/m*3 24.1 C 7.38333 km/h
329 09-09-2020 16:00:00 23.925 C 14.06 g/m*3 23.93 C 4.55 km/h
330 09-09-2020 17:00:00 24.525 C 14.16 g/m*3 24.53 C 4.54167 km/h
331 09-09-2020 18:00:00 24.46667 C 14.72 g/m*3 24.47 C 1.20833 km/h
332 09-09-2020 19:00:00 22.70833 C 14.54 g/m*3 22.71 C 0 km/h
333 09-09-2020 20:00:00 21.025 C 14.08 g/m*3 21.03 C 0.13333 km/h
334 09-09-2020 21:00:00 19.75 C 13.58 g/m*3 19.75 C 4.8 km/h
335 09-09-2020 22:00:00 19.65833 C 13.75 g/m*3 19.66 C 1.2 km/h
336 09-09-2020 23:00:00 20.05833 C 13.73 g/m*3 20.06 C 4.00833 km/h
337 10-09-2020 00:00:00 20.18333 C 14.59 g/m*3 20.18 C 10.89167 km/h
338 10-09-2020 01:00:00 18.69167 C 14.51 g/m*3 18.69 C 8.6 km/h
339 10-09-2020 02:00:00 17.675 C 13.63 g/m*3 17.68 C 4.55833 km/h
340 10-09-2020 03:00:00 17.175 C 13.05 g/m*3 17.18 C 2.00833 km/h
341 10-09-2020 04:00:00 16.85833 C 12.55 g/m*3 16.86 C 1.06667 km/h
342 10-09-2020 05:00:00 16.56667 C 11.82 g/m*3 16.57 C 2.13333 km/h
343 10-09-2020 06:00:00 16.08333 C 11.56 g/m*3 16.08 C 3.075 km/h
344 10-09-2020 07:00:00 15.475 C 11.38 g/m*3 15.48 C 5.1 km/h
345 10-09-2020 08:00:00 15.35833 C 11.29 g/m*3 15.36 C 2.4 km/h
346 10-09-2020 09:00:00 15.56667 C 11.39 g/m*3 15.57 C 3.875 km/h
347 10-09-2020 10:00:00 15.93333 C 10.87 g/m*3 15.93 C 6.71667 km/h
348 10-09-2020 11:00:00 16.7 C 10.67 g/m*3 16.7 C 5.36667 km/h
349 10-09-2020 12:00:00 17.83333 C 10.28 g/m*3 17.83 C 7.24167 km/h
350 10-09-2020 13:00:00 18.54167 C 9.52 g/m*3 18.54 C 5.9 km/h
Sensor: Nr:Datum:Temp:Abs-Feuchte:Windchill:Wind:
Aussen-T/F 351 10-09-2020 14:00:00 19.66667 C 9.96 g/m*3 19.67 C 5.5 km/h
352 10-09-2020 15:00:00 20.84167 C 10.16 g/m*3 20.84 C 7.11667 km/h
353 10-09-2020 16:00:00 22.06667 C 10.31 g/m*3 22.07 C 7.65833 km/h
354 10-09-2020 17:00:00 22.73333 C 10.27 g/m*3 22.73 C 8.61667 km/h
355 10-09-2020 18:00:00 22.45 C 10.24 g/m*3 22.45 C 5.225 km/h
356 10-09-2020 19:00:00 20.80833 C 9.8 g/m*3 20.81 C 2 km/h
357 10-09-2020 20:00:00 17.675 C 9.25 g/m*3 17.68 C 1.33333 km/h
358 10-09-2020 21:00:00 15.60833 C 8.98 g/m*3 15.61 C 3.2 km/h
359 10-09-2020 22:00:00 14.325 C 9.01 g/m*3 14.33 C 0.4 km/h
360 10-09-2020 23:00:00 12.7 C 8.75 g/m*3 12.7 C 0 km/h
361 11-09-2020 00:00:00 12.08333 C 8.78 g/m*3 12.08 C 0 km/h
362 11-09-2020 01:00:00 11.95 C 8.78 g/m*3 11.95 C 0 km/h
363 11-09-2020 02:00:00 11.05833 C 8.52 g/m*3 11.06 C 0 km/h
364 11-09-2020 03:00:00 10.23333 C 8.35 g/m*3 10.23 C 0 km/h
365 11-09-2020 04:00:00 9.59167 C 8.23 g/m*3 9.59 C 0 km/h
366 11-09-2020 05:00:00 8.95833 C 8.03 g/m*3 8.96 C 0 km/h
367 11-09-2020 06:00:00 8.43333 C 7.87 g/m*3 8.43 C 0 km/h
368 11-09-2020 07:00:00 8.26667 C 7.88 g/m*3 8.27 C 0 km/h
369 11-09-2020 08:00:00 8.625 C 8.13 g/m*3 8.63 C 0 km/h
370 11-09-2020 09:00:00 9.45833 C 8.62 g/m*3 9.46 C 0 km/h
371 11-09-2020 10:00:00 11.20833 C 9.55 g/m*3 11.21 C 0 km/h
372 11-09-2020 11:00:00 14.025 C 10.22 g/m*3 14.03 C 0.26667 km/h
373 11-09-2020 12:00:00 17.6 C 9.97 g/m*3 17.6 C 2.93333 km/h
374 11-09-2020 13:00:00 19.86667 C 9.7 g/m*3 19.87 C 5.35833 km/h
375 11-09-2020 14:00:00 21.15 C 10.06 g/m*3 21.15 C 5.09167 km/h
Sensor: Nr:Datum:Temp:Abs-Feuchte:Windchill:Wind:
Aussen-T/F 376 11-09-2020 15:00:00 22.44167 C 10.4 g/m*3 22.44 C 6.45833 km/h
377 11-09-2020 16:00:00 23.58333 C 10.59 g/m*3 23.58 C 8.6 km/h
378 11-09-2020 17:00:00 24.6 C 10.8 g/m*3 24.6 C 6.43333 km/h
379 11-09-2020 18:00:00 24.36667 C 11.27 g/m*3 24.37 C 3.075 km/h
380 11-09-2020 19:00:00 21.425 C 11.31 g/m*3 21.43 C 2.80833 km/h
381 11-09-2020 20:00:00 18.3 C 10.65 g/m*3 18.3 C 4.13333 km/h
382 11-09-2020 21:00:00 16.35833 C 10.47 g/m*3 16.36 C 0.53333 km/h
383 11-09-2020 22:00:00 15.04167 C 10.27 g/m*3 15.04 C 0 km/h
384 11-09-2020 23:00:00 13.93333 C 10.07 g/m*3 13.93 C 0 km/h
385 12-09-2020 00:00:00 13.05 C 9.85 g/m*3 13.05 C 0 km/h
386 12-09-2020 01:00:00 12.525 C 9.71 g/m*3 12.53 C 0 km/h
387 12-09-2020 02:00:00 11.975 C 9.53 g/m*3 11.98 C 0 km/h
388 12-09-2020 03:00:00 11.475 C 9.35 g/m*3 11.48 C 0 km/h
389 12-09-2020 04:00:00 10.975 C 9.17 g/m*3 10.98 C 0 km/h
390 12-09-2020 05:00:00 10.525 C 9.03 g/m*3 10.53 C 0 km/h
391 12-09-2020 06:00:00 10.225 C 8.9 g/m*3 10.23 C 0 km/h
392 12-09-2020 07:00:00 10.16667 C 8.94 g/m*3 10.17 C 0 km/h
393 12-09-2020 08:00:00 10.9 C 9.46 g/m*3 10.9 C 0 km/h
394 12-09-2020 09:00:00 12.625 C 10.36 g/m*3 12.63 C 0.26667 km/h
395 12-09-2020 10:00:00 14.675 C 10.94 g/m*3 14.68 C 0.13333 km/h
396 12-09-2020 11:00:00 17.25 C 11.71 g/m*3 17.25 C 0 km/h
397 12-09-2020 12:00:00 20.15833 C 12.27 g/m*3 20.16 C 2.80833 km/h
398 12-09-2020 13:00:00 24.425 C 11.76 g/m*3 24.43 C 11.15833 km/h
399 12-09-2020 14:00:00 24.90833 C 12.29 g/m*3 24.91 C 6.85 km/h
400 12-09-2020 15:00:00 25.61667 C 12.43 g/m*3 25.62 C 8.6 km/h
Sensor: Nr:Datum:Temp:Abs-Feuchte:Windchill:Wind:
Aussen-T/F 401 12-09-2020 16:00:00 25.75 C 12.36 g/m*3 25.75 C 10.475 km/h
402 12-09-2020 17:00:00 26.14167 C 12.76 g/m*3 26.14 C 10.76667 km/h
403 12-09-2020 18:00:00 25.28333 C 12.84 g/m*3 25.28 C 7.23333 km/h
404 12-09-2020 19:00:00 23.03333 C 12.66 g/m*3 23.03 C 1.46667 km/h
405 12-09-2020 20:00:00 19.79167 C 11.85 g/m*3 19.79 C 1.6 km/h
406 12-09-2020 21:00:00 18.49167 C 10.94 g/m*3 18.49 C 1.20833 km/h
407 12-09-2020 22:00:00 17.16667 C 10.49 g/m*3 17.17 C 0.66667 km/h
408 12-09-2020 23:00:00 15.81667 C 10.29 g/m*3 15.82 C 1.06667 km/h
409 13-09-2020 00:00:00 14.36667 C 9.98 g/m*3 14.37 C 0.26667 km/h
410 13-09-2020 01:00:00 13.05 C 9.73 g/m*3 13.05 C 0.13333 km/h
411 13-09-2020 02:00:00 12.375 C 9.55 g/m*3 12.38 C 0.26667 km/h
412 13-09-2020 03:00:00 11.73333 C 9.42 g/m*3 11.73 C 0 km/h
413 13-09-2020 04:00:00 11.35 C 9.32 g/m*3 11.35 C 0 km/h
414 13-09-2020 05:00:00 10.84167 C 9.12 g/m*3 10.84 C 0 km/h
415 13-09-2020 06:00:00 10.35 C 8.92 g/m*3 10.35 C 0 km/h
416 13-09-2020 07:00:00 10.15 C 8.91 g/m*3 10.15 C 0 km/h
417 13-09-2020 08:00:00 10.66667 C 9.31 g/m*3 10.67 C 0.26667 km/h
418 13-09-2020 09:00:00 11.60833 C 9.88 g/m*3 11.61 C 0 km/h
419 13-09-2020 10:00:00 13.1 C 10.67 g/m*3 13.1 C 0 km/h
420 13-09-2020 11:00:00 15.53333 C 11.27 g/m*3 15.53 C 0.4 km/h
421 13-09-2020 12:00:00 19.05833 C 11.98 g/m*3 19.06 C 2.26667 km/h
422 13-09-2020 13:00:00 21.825 C 11.99 g/m*3 21.83 C 0.53333 km/h
423 13-09-2020 14:00:00 23.725 C 11.78 g/m*3 23.73 C 2.81667 km/h
424 13-09-2020 15:00:00 25.85833 C 11.17 g/m*3 25.86 C 4.14167 km/h
425 13-09-2020 16:00:00 26.83333 C 11.13 g/m*3 26.83 C 5.1 km/h
Sensor: Nr:Datum:Temp:Abs-Feuchte:Windchill:Wind:
Aussen-T/F 426 13-09-2020 17:00:00 28.81667 C 11.8 g/m*3 28.82 C 3.86667 km/h
427 13-09-2020 18:00:00 27.46667 C 13.01 g/m*3 27.47 C 2.66667 km/h
428 13-09-2020 19:00:00 23.69167 C 11.87 g/m*3 23.69 C 3.2 km/h
429 13-09-2020 20:00:00 20.53333 C 11.32 g/m*3 20.53 C 1.86667 km/h
430 13-09-2020 21:00:00 18.25 C 10.95 g/m*3 18.25 C 0 km/h
431 13-09-2020 22:00:00 16.55833 C 10.63 g/m*3 16.56 C 0 km/h
432 13-09-2020 23:00:00 15.175 C 10.44 g/m*3 15.18 C 0 km/h
433 14-09-2020 00:00:00 14.325 C 10.28 g/m*3 14.33 C 0 km/h
434 14-09-2020 01:00:00 13.59167 C 10.02 g/m*3 13.59 C 0 km/h
435 14-09-2020 02:00:00 12.875 C 9.83 g/m*3 12.88 C 0 km/h
436 14-09-2020 03:00:00 12.33333 C 9.69 g/m*3 12.33 C 0 km/h
437 14-09-2020 04:00:00 11.64167 C 9.45 g/m*3 11.64 C 0 km/h
438 14-09-2020 05:00:00 11.25833 C 9.33 g/m*3 11.26 C 0 km/h
439 14-09-2020 06:00:00 10.83333 C 9.15 g/m*3 10.83 C 0 km/h
440 14-09-2020 07:00:00 10.725 C 9.19 g/m*3 10.73 C 0 km/h
441 14-09-2020 08:00:00 11.15833 C 9.54 g/m*3 11.16 C 0 km/h
442 14-09-2020 09:00:00 12.125 C 10.2 g/m*3 12.13 C 0 km/h
443 14-09-2020 10:00:00 13.875 C 11.28 g/m*3 13.88 C 0 km/h
444 14-09-2020 11:00:00 17.325 C 12.59 g/m*3 17.33 C 0 km/h
445 14-09-2020 12:00:00 21.75833 C 13.7 g/m*3 21.76 C 1.075 km/h
446 14-09-2020 13:00:00 25.95833 C 13.95 g/m*3 25.96 C 3.33333 km/h
447 14-09-2020 14:00:00 28.11667 C 13.34 g/m*3 28.12 C 4.01667 km/h
448 14-09-2020 15:00:00 29.625 C 11.66 g/m*3 29.63 C 7.11667 km/h
449 14-09-2020 16:00:00 29.875 C 12.2 g/m*3 29.88 C 4.675 km/h
450 14-09-2020 17:00:00 29.775 C 14.18 g/m*3 29.78 C 1.46667 km/h
Sensor: Nr:Datum:Temp:Abs-Feuchte:Windchill:Wind:
Aussen-T/F 451 14-09-2020 18:00:00 30.61667 C 13.35 g/m*3 30.62 C 3.06667 km/h
452 14-09-2020 19:00:00 25.86667 C 11.8 g/m*3 25.87 C 7.39167 km/h
453 14-09-2020 20:00:00 22.39167 C 11.7 g/m*3 22.39 C 2.54167 km/h
454 14-09-2020 21:00:00 19.975 C 12.17 g/m*3 19.98 C 0 km/h
455 14-09-2020 22:00:00 18.525 C 11.98 g/m*3 18.52 C 0 km/h
456 14-09-2020 23:00:00 17.08333 C 11.72 g/m*3 17.08 C 0 km/h
457 15-09-2020 00:00:00 16.23333 C 11.47 g/m*3 16.23 C 0 km/h
458 15-09-2020 01:00:00 15.45833 C 11.28 g/m*3 15.46 C 0 km/h
459 15-09-2020 02:00:00 14.9 C 11.08 g/m*3 14.9 C 0 km/h
460 15-09-2020 03:00:00 14.15833 C 10.84 g/m*3 14.16 C 0 km/h
461 15-09-2020 04:00:00 13.54167 C 10.59 g/m*3 13.54 C 0 km/h
462 15-09-2020 05:00:00 13.10833 C 10.5 g/m*3 13.11 C 0 km/h
463 15-09-2020 06:00:00 12.50833 C 10.19 g/m*3 12.51 C 0 km/h
464 15-09-2020 07:00:00 12.2 C 10.11 g/m*3 12.2 C 0 km/h
465 15-09-2020 08:00:00 12.53333 C 10.43 g/m*3 12.53 C 0 km/h
466 15-09-2020 09:00:00 13.69167 C 11.29 g/m*3 13.69 C 0 km/h
467 15-09-2020 10:00:00 15.39167 C 12.46 g/m*3 15.39 C 0 km/h
468 15-09-2020 11:00:00 18.00833 C 13.23 g/m*3 18.01 C 0 km/h
469 15-09-2020 12:00:00 21.76667 C 14.25 g/m*3 21.77 C 0 km/h
470 15-09-2020 13:00:00 25.79167 C 13.96 g/m*3 25.79 C 1.6 km/h
471 15-09-2020 14:00:00 29.24167 C 12.37 g/m*3 29.24 C 4.13333 km/h
472 15-09-2020 15:00:00 30.65833 C 10.87 g/m*3 30.66 C 5.225 km/h
473 15-09-2020 16:00:00 31.5 C 9.92 g/m*3 31.5 C 4.93333 km/h
474 15-09-2020 17:00:00 33.19167 C 10.43 g/m*3 33.19 C 4.53333 km/h
475 15-09-2020 18:00:00 31.875 C 12.58 g/m*3 31.88 C 3.73333 km/h
Sensor: Nr:Datum:Temp:Abs-Feuchte:Windchill:Wind:
Aussen-T/F 476 15-09-2020 19:00:00 27.65833 C 11.92 g/m*3 27.66 C 3.33333 km/h
477 15-09-2020 20:00:00 24.3 C 11.82 g/m*3 24.3 C 4.4 km/h
478 15-09-2020 21:00:00 22.05833 C 12.2 g/m*3 22.06 C 0.13333 km/h
479 15-09-2020 22:00:00 20.48333 C 12.41 g/m*3 20.48 C 0 km/h
480 15-09-2020 23:00:00 18.90833 C 12.33 g/m*3 18.91 C 0 km/h
481 16-09-2020 00:00:00 18.13333 C 12.04 g/m*3 18.13 C 0 km/h
482 16-09-2020 01:00:00 17.29167 C 11.8 g/m*3 17.29 C 0 km/h
483 16-09-2020 02:00:00 16.225 C 11.64 g/m*3 16.23 C 0 km/h
484 16-09-2020 03:00:00 15.49167 C 11.43 g/m*3 15.49 C 0 km/h
485 16-09-2020 04:00:00 14.95 C 11.31 g/m*3 14.95 C 0 km/h
486 16-09-2020 05:00:00 14.5 C 11.19 g/m*3 14.5 C 0.4 km/h
487 16-09-2020 06:00:00 14.25833 C 11.14 g/m*3 14.26 C 0 km/h
488 16-09-2020 07:00:00 14.1 C 11.15 g/m*3 14.1 C 0.26667 km/h
489 16-09-2020 08:00:00 14.51667 C 11.45 g/m*3 14.52 C 0 km/h
490 16-09-2020 09:00:00 15.54167 C 12.13 g/m*3 15.54 C 0 km/h
491 16-09-2020 10:00:00 18.19167 C 13.13 g/m*3 18.19 C 0.26667 km/h
492 16-09-2020 11:00:00 20.775 C 13.49 g/m*3 20.78 C 0.13333 km/h
493 16-09-2020 12:00:00 23.24167 C 14 g/m*3 23.24 C 0 km/h
494 16-09-2020 13:00:00 24.46667 C 14.33 g/m*3 24.47 C 0.13333 km/h
495 16-09-2020 14:00:00 26.5 C 14.56 g/m*3 26.5 C 1.6 km/h
496 16-09-2020 15:00:00 28.38333 C 14.58 g/m*3 28.38 C 1.46667 km/h
497 16-09-2020 16:00:00 30.15 C 12.08 g/m*3 30.15 C 12.35833 km/h
498 16-09-2020 17:00:00 28.55833 C 14.56 g/m*3 28.56 C 13.96667 km/h
499 16-09-2020 18:00:00 26.775 C 15.19 g/m*3 26.78 C 13.56667 km/h
500 16-09-2020 19:00:00 25.28333 C 15.03 g/m*3 25.28 C 5.63333 km/h
Sensor: Nr:Datum:Temp:Abs-Feuchte:Windchill:Wind:
Aussen-T/F 501 16-09-2020 20:00:00 22.91667 C 14.49 g/m*3 22.92 C 2.53333 km/h
502 16-09-2020 21:00:00 22.29167 C 14.31 g/m*3 22.29 C 4.69167 km/h
503 16-09-2020 22:00:00 22.30833 C 14.01 g/m*3 22.31 C 7.66667 km/h
504 16-09-2020 23:00:00 21.24167 C 13.41 g/m*3 21.24 C 3.75 km/h
505 17-09-2020 00:00:00 20.75 C 13.12 g/m*3 20.75 C 8.05833 km/h
506 17-09-2020 01:00:00 20.09167 C 12.51 g/m*3 20.09 C 6.71667 km/h
507 17-09-2020 02:00:00 18.75 C 12.07 g/m*3 18.75 C 5.23333 km/h
508 17-09-2020 03:00:00 17.31667 C 11.82 g/m*3 17.32 C 2.8 km/h
509 17-09-2020 04:00:00 17.36667 C 11.98 g/m*3 17.37 C 8.74167 km/h
510 17-09-2020 05:00:00 17.125 C 11.71 g/m*3 17.13 C 7.375 km/h
511 17-09-2020 06:00:00 16.86667 C 11.44 g/m*3 16.87 C 6.15833 km/h
512 17-09-2020 07:00:00 16.63333 C 11.36 g/m*3 16.63 C 5.89167 km/h
513 17-09-2020 08:00:00 16.08333 C 10.89 g/m*3 16.08 C 9.425 km/h
514 17-09-2020 09:00:00 15.66667 C 10.46 g/m*3 15.67 C 8.06667 km/h
515 17-09-2020 10:00:00 16.05 C 9.52 g/m*3 16.05 C 6.71667 km/h
516 17-09-2020 11:00:00 16.4 C 9.11 g/m*3 16.4 C 10.48333 km/h
517 17-09-2020 12:00:00 17.575 C 9.16 g/m*3 17.58 C 12.76667 km/h
518 17-09-2020 13:00:00 18.81667 C 8.75 g/m*3 18.82 C 14.23333 km/h
519 17-09-2020 14:00:00 20.15833 C 7.94 g/m*3 20.16 C 13.29167 km/h
520 17-09-2020 15:00:00 20.91667 C 7.64 g/m*3 20.92 C 12.5 km/h
521 17-09-2020 16:00:00 21.61667 C 7.28 g/m*3 21.62 C 14.63333 km/h
522 17-09-2020 17:00:00 22.10833 C 7.36 g/m*3 22.11 C 15.3 km/h
523 17-09-2020 18:00:00 21.83333 C 7.63 g/m*3 21.83 C 10.33333 km/h
524 17-09-2020 19:00:00 19.575 C 8.01 g/m*3 19.58 C 2.40833 km/h
525 17-09-2020 20:00:00 15.91667 C 8.08 g/m*3 15.92 C 1.34167 km/h
Sensor: Nr:Datum:Temp:Abs-Feuchte:Windchill:Wind:
Aussen-T/F 526 17-09-2020 21:00:00 14.69167 C 8.1 g/m*3 14.69 C 1.6 km/h
527 17-09-2020 22:00:00 14.66667 C 8.24 g/m*3 14.67 C 2.00833 km/h
528 17-09-2020 23:00:00 13.575 C 8.15 g/m*3 13.58 C 1.475 km/h
529 18-09-2020 00:00:00 12.5 C 8.11 g/m*3 12.5 C 0.53333 km/h
530 18-09-2020 01:00:00 12.25833 C 8.1 g/m*3 12.26 C 2.41667 km/h
531 18-09-2020 02:00:00 12.55833 C 7.99 g/m*3 12.56 C 3.46667 km/h
532 18-09-2020 03:00:00 10.925 C 7.75 g/m*3 10.93 C 3.46667 km/h
533 18-09-2020 04:00:00 10.14167 C 7.61 g/m*3 10.14 C 4.13333 km/h
534 18-09-2020 05:00:00 9.55833 C 7.49 g/m*3 9.56 C 1.33333 km/h
535 18-09-2020 06:00:00 9.28333 C 7.45 g/m*3 9.28 C 0.53333 km/h
536 18-09-2020 07:00:00 9.18333 C 7.51 g/m*3 9.18 C 1.86667 km/h
537 18-09-2020 08:00:00 10.18333 C 7.93 g/m*3 10.18 C 0 km/h
538 18-09-2020 09:00:00 11.2 C 8.2 g/m*3 11.2 C 1.86667 km/h
539 18-09-2020 10:00:00 13.375 C 8.41 g/m*3 13.38 C 5.21667 km/h
540 18-09-2020 11:00:00 16.19167 C 8.82 g/m*3 16.19 C 8.33333 km/h
541 18-09-2020 12:00:00 18.7 C 9.38 g/m*3 18.7 C 8.6 km/h
542 18-09-2020 13:00:00 21.04167 C 10.18 g/m*3 21.04 C 12.36667 km/h
543 18-09-2020 14:00:00 22.58333 C 10.24 g/m*3 22.58 C 13.83333 km/h
544 18-09-2020 15:00:00 23.04167 C 9.98 g/m*3 23.04 C 13.83333 km/h
545 18-09-2020 16:00:00 23.66667 C 9.91 g/m*3 23.67 C 12.1 km/h
546 18-09-2020 17:00:00 24.73333 C 9.77 g/m*3 24.73 C 8.46667 km/h
547 18-09-2020 18:00:00 24.55 C 9.5 g/m*3 24.55 C 6.58333 km/h
548 18-09-2020 19:00:00 21.19167 C 9.55 g/m*3 21.19 C 4.40833 km/h
549 18-09-2020 20:00:00 16.91667 C 9.06 g/m*3 16.92 C 3.86667 km/h
550 18-09-2020 21:00:00 15.46667 C 8.63 g/m*3 15.47 C 5.06667 km/h
Sensor: Nr:Datum:Temp:Abs-Feuchte:Windchill:Wind:
Aussen-T/F 551 18-09-2020 22:00:00 14.61667 C 8.02 g/m*3 14.62 C 0.66667 km/h
552 18-09-2020 23:00:00 14.05833 C 7.91 g/m*3 14.06 C 2.8 km/h
553 19-09-2020 00:00:00 13.54167 C 7.74 g/m*3 13.54 C 2.53333 km/h
554 19-09-2020 01:00:00 12.625 C 7.61 g/m*3 12.63 C 4 km/h
555 19-09-2020 02:00:00 11.63333 C 7.47 g/m*3 11.63 C 1.6 km/h
556 19-09-2020 03:00:00 10.375 C 7.31 g/m*3 10.38 C 0.93333 km/h
557 19-09-2020 04:00:00 9.625 C 7.21 g/m*3 9.63 C 0 km/h
558 19-09-2020 05:00:00 8.825 C 7.08 g/m*3 8.82 C 0 km/h
559 19-09-2020 06:00:00 8.175 C 7.04 g/m*3 8.18 C 0 km/h
560 19-09-2020 07:00:00 7.68333 C 7.04 g/m*3 7.68 C 0 km/h
561 19-09-2020 08:00:00 7.94167 C 7.32 g/m*3 7.94 C 0 km/h
562 19-09-2020 09:00:00 8.91667 C 7.76 g/m*3 8.92 C 0 km/h
563 19-09-2020 10:00:00 11.41667 C 8.33 g/m*3 11.42 C 0.8 km/h
564 19-09-2020 11:00:00 15.09167 C 8.6 g/m*3 15.09 C 2.53333 km/h
565 19-09-2020 12:00:00 19.15 C 8.7 g/m*3 19.15 C 7.93333 km/h
566 19-09-2020 13:00:00 21.125 C 8.61 g/m*3 21.13 C 6.16667 km/h
567 19-09-2020 14:00:00 23.24167 C 8.63 g/m*3 23.24 C 8.46667 km/h
568 19-09-2020 15:00:00 24.33333 C 8.48 g/m*3 24.33 C 8.31667 km/h
569 19-09-2020 16:00:00 25.29167 C 8.19 g/m*3 25.29 C 9.41667 km/h
570 19-09-2020 17:00:00 26.2 C 8.17 g/m*3 26.2 C 8.34167 km/h
571 19-09-2020 18:00:00 26.39167 C 8.38 g/m*3 26.39 C 3.2 km/h
572 19-09-2020 19:00:00 21.7 C 8.12 g/m*3 21.7 C 2.13333 km/h
573 19-09-2020 20:00:00 17.99167 C 7.84 g/m*3 17.99 C 4.4 km/h
574 19-09-2020 21:00:00 16.35833 C 7.92 g/m*3 16.36 C 4.93333 km/h
575 19-09-2020 22:00:00 15.54167 C 8.16 g/m*3 15.54 C 1.86667 km/h
Sensor: Nr:Datum:Temp:Abs-Feuchte:Windchill:Wind:
Aussen-T/F 576 19-09-2020 23:00:00 14.425 C 8.17 g/m*3 14.43 C 0 km/h
577 20-09-2020 00:00:00 13.7 C 8.25 g/m*3 13.7 C 0.13333 km/h
578 20-09-2020 01:00:00 12.70833 C 8.27 g/m*3 12.71 C 0 km/h
579 20-09-2020 02:00:00 11.76667 C 7.98 g/m*3 11.77 C 0 km/h
580 20-09-2020 03:00:00 10.6 C 7.73 g/m*3 10.6 C 0 km/h
581 20-09-2020 04:00:00 9.84167 C 7.5 g/m*3 9.84 C 0 km/h
582 20-09-2020 05:00:00 9.49167 C 7.6 g/m*3 9.49 C 0 km/h
583 20-09-2020 06:00:00 8.96667 C 7.46 g/m*3 8.97 C 0 km/h
584 20-09-2020 07:00:00 8.3 C 7.32 g/m*3 8.3 C 0 km/h
585 20-09-2020 08:00:00 8.71667 C 7.73 g/m*3 8.72 C 0 km/h
586 20-09-2020 09:00:00 9.625 C 8.21 g/m*3 9.63 C 0 km/h
587 20-09-2020 10:00:00 11.55833 C 9 g/m*3 11.56 C 0 km/h
588 20-09-2020 11:00:00 14.05833 C 9.46 g/m*3 14.06 C 0 km/h
589 20-09-2020 12:00:00 18.15833 C 9.75 g/m*3 18.16 C 1.06667 km/h
590 20-09-2020 13:00:00 21.14167 C 9.27 g/m*3 21.14 C 4.53333 km/h
591 20-09-2020 14:00:00 22.81667 C 8.88 g/m*3 22.82 C 3.6 km/h
592 20-09-2020 15:00:00 22.975 C 9.78 g/m*3 22.98 C 1.33333 km/h
593 20-09-2020 16:00:00 22.65 C 9.75 g/m*3 22.65 C 1.06667 km/h
594 20-09-2020 17:00:00 23.95833 C 9.93 g/m*3 23.96 C 1.86667 km/h
595 20-09-2020 18:00:00 21.43333 C 9.47 g/m*3 21.43 C 5.06667 km/h
596 20-09-2020 19:00:00 18.625 C 8.91 g/m*3 18.63 C 3.6 km/h
597 20-09-2020 20:00:00 15.78333 C 8.29 g/m*3 15.78 C 1.33333 km/h
598 20-09-2020 21:00:00 14.3 C 8.13 g/m*3 14.3 C 0 km/h
599 20-09-2020 22:00:00 13.075 C 8.3 g/m*3 13.08 C 0 km/h
600 20-09-2020 23:00:00 11.68333 C 8.05 g/m*3 11.68 C 0 km/h
Sensor: Nr:Datum:Temp:Abs-Feuchte:Windchill:Wind:
Aussen-T/F 601 21-09-2020 00:00:00 10.94167 C 7.88 g/m*3 10.94 C 0 km/h
602 21-09-2020 01:00:00 10.25833 C 7.8 g/m*3 10.26 C 0 km/h
603 21-09-2020 02:00:00 9.54167 C 7.67 g/m*3 9.54 C 0 km/h
604 21-09-2020 03:00:00 9.03333 C 7.62 g/m*3 9.03 C 0 km/h
605 21-09-2020 04:00:00 8.55 C 7.54 g/m*3 8.55 C 0 km/h
606 21-09-2020 05:00:00 8.15 C 7.44 g/m*3 8.15 C 0 km/h
607 21-09-2020 06:00:00 7.79167 C 7.35 g/m*3 7.79 C 0 km/h
608 21-09-2020 07:00:00 7.34167 C 7.22 g/m*3 7.34 C 0 km/h
609 21-09-2020 08:00:00 7.525 C 7.4 g/m*3 7.53 C 0 km/h
610 21-09-2020 09:00:00 8.475 C 7.84 g/m*3 8.48 C 0 km/h
611 21-09-2020 10:00:00 10.075 C 8.54 g/m*3 10.07 C 0 km/h
612 21-09-2020 11:00:00 13.05833 C 9.27 g/m*3 13.06 C 0 km/h
613 21-09-2020 12:00:00 17.375 C 10.1 g/m*3 17.38 C 0 km/h
614 21-09-2020 13:00:00 20.58333 C 9.88 g/m*3 20.58 C 1.73333 km/h
615 21-09-2020 14:00:00 23.44167 C 9.01 g/m*3 23.44 C 7.78333 km/h
616 21-09-2020 15:00:00 24.26667 C 8.56 g/m*3 24.27 C 5.21667 km/h
617 21-09-2020 16:00:00 24.63333 C 8.44 g/m*3 24.63 C 5.9 km/h
618 21-09-2020 17:00:00 26.25833 C 8.64 g/m*3 26.26 C 2.93333 km/h
619 21-09-2020 18:00:00 25.7 C 9.36 g/m*3 25.7 C 3.06667 km/h
620 21-09-2020 19:00:00 21.13333 C 8.71 g/m*3 21.13 C 5.73333 km/h
621 21-09-2020 20:00:00 17.55833 C 8.53 g/m*3 17.56 C 0.93333 km/h
622 21-09-2020 21:00:00 15.46667 C 8.53 g/m*3 15.47 C 0 km/h
623 21-09-2020 22:00:00 13.98333 C 8.46 g/m*3 13.98 C 0 km/h
624 21-09-2020 23:00:00 12.9 C 8.51 g/m*3 12.9 C 0 km/h
625 22-09-2020 00:00:00 11.80833 C 8.37 g/m*3 11.81 C 0 km/h
Sensor: Nr:Datum:Temp:Abs-Feuchte:Windchill:Wind:
Aussen-T/F 626 22-09-2020 01:00:00 11.33333 C 8.3 g/m*3 11.33 C 0 km/h
627 22-09-2020 02:00:00 10.66667 C 8.11 g/m*3 10.67 C 0 km/h
628 22-09-2020 03:00:00 9.80833 C 7.97 g/m*3 9.81 C 0 km/h
629 22-09-2020 04:00:00 9.34167 C 7.89 g/m*3 9.34 C 0 km/h
630 22-09-2020 05:00:00 8.98333 C 7.85 g/m*3 8.98 C 0 km/h
631 22-09-2020 06:00:00 8.51667 C 7.72 g/m*3 8.52 C 0 km/h
632 22-09-2020 07:00:00 8.2 C 7.65 g/m*3 8.2 C 0 km/h
633 22-09-2020 08:00:00 8.54167 C 7.93 g/m*3 8.54 C 0 km/h
634 22-09-2020 09:00:00 9.45833 C 8.44 g/m*3 9.46 C 0 km/h
635 22-09-2020 10:00:00 11.10833 C 9.2 g/m*3 11.11 C 0 km/h
636 22-09-2020 11:00:00 14.18333 C 10.12 g/m*3 14.18 C 0 km/h
637 22-09-2020 12:00:00 18.30833 C 11.09 g/m*3 18.31 C 0.13333 km/h
638 22-09-2020 13:00:00 22.025 C 10.46 g/m*3 22.03 C 4.29167 km/h
639 22-09-2020 14:00:00 25.39167 C 9.49 g/m*3 25.39 C 11.15833 km/h
640 22-09-2020 15:00:00 26.09167 C 9.07 g/m*3 26.09 C 11.025 km/h
641 22-09-2020 16:00:00 26.51667 C 8.75 g/m*3 26.52 C 11.3 km/h
642 22-09-2020 17:00:00 27.45833 C 9.39 g/m*3 27.46 C 8.85833 km/h
643 22-09-2020 18:00:00 27.34167 C 10.25 g/m*3 27.34 C 4.54167 km/h
644 22-09-2020 19:00:00 22.64167 C 10.15 g/m*3 22.64 C 6.14167 km/h
645 22-09-2020 20:00:00 19.275 C 9.9 g/m*3 19.27 C 4.26667 km/h
646 22-09-2020 21:00:00 17.68333 C 9.7 g/m*3 17.68 C 0.66667 km/h
647 22-09-2020 22:00:00 16.43333 C 9.49 g/m*3 16.43 C 0.66667 km/h
648 22-09-2020 23:00:00 15.40833 C 9.31 g/m*3 15.41 C 0.66667 km/h
649 23-09-2020 00:00:00 14.45833 C 9.15 g/m*3 14.46 C 0.13333 km/h
650 23-09-2020 01:00:00 14.04167 C 9.23 g/m*3 14.04 C 0.53333 km/h
Sensor: Nr:Datum:Temp:Abs-Feuchte:Windchill:Wind:
Aussen-T/F 651 23-09-2020 02:00:00 14.49167 C 9.4 g/m*3 14.49 C 0.93333 km/h
652 23-09-2020 03:00:00 13.925 C 9.36 g/m*3 13.93 C 0 km/h
653 23-09-2020 04:00:00 14.06667 C 9.45 g/m*3 14.07 C 0 km/h
654 23-09-2020 05:00:00 12.775 C 8.94 g/m*3 12.78 C 0.13333 km/h
655 23-09-2020 06:00:00 12.125 C 8.85 g/m*3 12.13 C 0.4 km/h
656 23-09-2020 07:00:00 13.225 C 9.12 g/m*3 13.23 C 1.46667 km/h
657 23-09-2020 08:00:00 14.025 C 9.27 g/m*3 14.03 C 1.33333 km/h
658 23-09-2020 09:00:00 14.29167 C 9.33 g/m*3 14.29 C 3.89167 km/h
659 23-09-2020 10:00:00 17.35833 C 9.01 g/m*3 17.36 C 11.16667 km/h
660 23-09-2020 11:00:00 19.13333 C 9.62 g/m*3 19.13 C 10.35833 km/h
661 23-09-2020 12:00:00 20.29167 C 10.55 g/m*3 20.29 C 14.1 km/h
662 23-09-2020 13:00:00 21.65 C 10.84 g/m*3 21.65 C 11.41667 km/h
663 23-09-2020 14:00:00 23.03333 C 11.07 g/m*3 23.03 C 12.1 km/h
664 23-09-2020 15:00:00 23.40833 C 11.2 g/m*3 23.41 C 11.56667 km/h
665 23-09-2020 16:00:00 23.63333 C 11.24 g/m*3 23.63 C 11.29167 km/h
666 23-09-2020 17:00:00 23.78333 C 11.28 g/m*3 23.78 C 9.93333 km/h
667 23-09-2020 18:00:00 22.60833 C 11.1 g/m*3 22.61 C 5.225 km/h
668 23-09-2020 19:00:00 19.48333 C 11.16 g/m*3 19.48 C 1.46667 km/h
669 23-09-2020 20:00:00 17.35833 C 11.11 g/m*3 17.36 C 1.33333 km/h
670 23-09-2020 21:00:00 17.51667 C 11.47 g/m*3 17.52 C 2.54167 km/h
671 23-09-2020 22:00:00 17.64167 C 11.64 g/m*3 17.64 C 0.53333 km/h
672 23-09-2020 23:00:00 17.50833 C 11.75 g/m*3 17.51 C 1.6 km/h
673 24-09-2020 00:00:00 17.73333 C 11.75 g/m*3 17.73 C 4.15833 km/h
674 24-09-2020 01:00:00 18.28333 C 11.99 g/m*3 18.28 C 4.825 km/h
675 24-09-2020 02:00:00 17.56667 C 12.81 g/m*3 17.57 C 4.825 km/h
Sensor: Nr:Datum:Temp:Abs-Feuchte:Windchill:Wind:
Aussen-T/F 676 24-09-2020 03:00:00 16.18333 C 12.66 g/m*3 16.18 C 1.2 km/h
677 24-09-2020 04:00:00 16.03333 C 12.81 g/m*3 16.03 C 1.86667 km/h
678 24-09-2020 05:00:00 15.95 C 12.75 g/m*3 15.95 C 6.975 km/h
679 24-09-2020 06:00:00 14.54167 C 10.71 g/m*3 14.54 C 10.08333 km/h
680 24-09-2020 07:00:00 12.025 C 9.55 g/m*3 12.03 C 6.56667 km/h
681 24-09-2020 08:00:00 12.25 C 9.62 g/m*3 12.25 C 8.05833 km/h
682 24-09-2020 09:00:00 12.63333 C 9.51 g/m*3 12.63 C 10.88333 km/h
683 24-09-2020 10:00:00 13.7 C 9.32 g/m*3 13.7 C 12.23333 km/h
684 24-09-2020 11:00:00 14.74167 C 9.1 g/m*3 14.74 C 12.63333 km/h
685 24-09-2020 12:00:00 16.88333 C 9.21 g/m*3 16.88 C 11.16667 km/h
686 24-09-2020 13:00:00 17.73333 C 9.06 g/m*3 17.73 C 15.16667 km/h
687 24-09-2020 14:00:00 18.99167 C 9.08 g/m*3 18.99 C 14.36667 km/h
688 24-09-2020 15:00:00 19.575 C 9.29 g/m*3 19.58 C 9.80833 km/h
689 24-09-2020 16:00:00 19.71667 C 9.49 g/m*3 19.72 C 7.25833 km/h
690 24-09-2020 17:00:00 19.775 C 9.88 g/m*3 19.77 C 4.53333 km/h
691 24-09-2020 18:00:00 18.85833 C 10.63 g/m*3 18.86 C 2.14167 km/h
692 24-09-2020 19:00:00 17.05 C 11.02 g/m*3 17.05 C 2.26667 km/h
693 24-09-2020 20:00:00 16.075 C 10.86 g/m*3 16.08 C 2.26667 km/h
694 24-09-2020 21:00:00 15.05 C 10.64 g/m*3 15.05 C 1.2 km/h
695 24-09-2020 22:00:00 14.40833 C 10.66 g/m*3 14.41 C 0.93333 km/h
696 24-09-2020 23:00:00 13.76667 C 10.49 g/m*3 13.77 C 0.93333 km/h
697 25-09-2020 00:00:00 13.675 C 10.62 g/m*3 13.68 C 0.13333 km/h
698 25-09-2020 01:00:00 13.925 C 10.79 g/m*3 13.93 C 0.93333 km/h
699 25-09-2020 02:00:00 13.73333 C 10.52 g/m*3 13.73 C 10.05 km/h
700 25-09-2020 03:00:00 12.15 C 9.83 g/m*3 12.15 C 8.59167 km/h
Sensor: Nr:Datum:Temp:Abs-Feuchte:Windchill:Wind:
Aussen-T/F 701 25-09-2020 04:00:00 11.275 C 9.42 g/m*3 11.28 C 3.46667 km/h
702 25-09-2020 05:00:00 10.76667 C 9.2 g/m*3 10.77 C 4.40833 km/h
703 25-09-2020 06:00:00 10.50833 C 8.98 g/m*3 10.16 C 5.61667 km/h
704 25-09-2020 07:00:00 9.875 C 8.53 g/m*3 9.88 C 4.55833 km/h
705 25-09-2020 08:00:00 9.525 C 8.33 g/m*3 9.53 C 2.40833 km/h
706 25-09-2020 09:00:00 10.25833 C 8.22 g/m*3 10.26 C 2.8 km/h
707 25-09-2020 10:00:00 11.35 C 8.39 g/m*3 11.35 C 3.875 km/h
708 25-09-2020 11:00:00 12.40833 C 8.49 g/m*3 12.41 C 8.6 km/h
709 25-09-2020 12:00:00 13.21667 C 8.35 g/m*3 13.22 C 11.96667 km/h
710 25-09-2020 13:00:00 13.54167 C 8.25 g/m*3 13.54 C 10.88333 km/h
711 25-09-2020 14:00:00 13.03333 C 8.97 g/m*3 13.03 C 3.61667 km/h
712 25-09-2020 15:00:00 13.65 C 9.26 g/m*3 13.65 C 3.6 km/h
713 25-09-2020 16:00:00 14.23333 C 9.1 g/m*3 14.23 C 7.125 km/h
714 25-09-2020 17:00:00 14.25 C 8.79 g/m*3 14.25 C 7.525 km/h
715 25-09-2020 18:00:00 12.89167 C 8.7 g/m*3 12.89 C 9.93333 km/h
716 25-09-2020 19:00:00 11.88333 C 8.54 g/m*3 11.88 C 6.3 km/h
717 25-09-2020 20:00:00 11.75833 C 8.49 g/m*3 11.76 C 6.7 km/h
718 25-09-2020 21:00:00 11.53333 C 8.06 g/m*3 11.53 C 7.50833 km/h
719 25-09-2020 22:00:00 11.425 C 8.07 g/m*3 11.43 C 8.74167 km/h
720 25-09-2020 23:00:00 11.20833 C 8.14 g/m*3 11.21 C 10.35833 km/h
721 26-09-2020 00:00:00 10.7 C 8.06 g/m*3 8.94 C 13.7 km/h
722 26-09-2020 01:00:00 10.61667 C 7.93 g/m*3 9.05 C 12.1 km/h
723 26-09-2020 02:00:00 10.5 C 7.9 g/m*3 9.04 C 11.15833 km/h
724 26-09-2020 03:00:00 10.05 C 7.82 g/m*3 7.8 C 16.5 km/h
725 26-09-2020 04:00:00 9.81667 C 7.59 g/m*3 7.28 C 18.63333 km/h
Sensor: Nr:Datum:Temp:Abs-Feuchte:Windchill:Wind:
Aussen-T/F 726 26-09-2020 05:00:00 9.73333 C 7.39 g/m*3 7.07 C 19.7 km/h
727 26-09-2020 06:00:00 9.65833 C 7.53 g/m*3 6.92 C 20.23333 km/h
728 26-09-2020 07:00:00 9.425 C 7.79 g/m*3 7.37 C 13.7 km/h
729 26-09-2020 08:00:00 9.31667 C 8.14 g/m*3 7.78 C 10.20833 km/h
730 26-09-2020 09:00:00 9.9 C 8.56 g/m*3 8.79 C 8.46667 km/h
731 26-09-2020 10:00:00 10.91667 C 8.9 g/m*3 9.85 C 9.275 km/h
732 26-09-2020 11:00:00 11.58333 C 9.14 g/m*3 11.58 C 7.38333 km/h
733 26-09-2020 12:00:00 12.04167 C 9.06 g/m*3 12.04 C 11.55 km/h
734 26-09-2020 13:00:00 11.48333 C 9.45 g/m*3 11.48 C 5.35833 km/h
735 26-09-2020 14:00:00 11.69167 C 9.47 g/m*3 11.69 C 10.74167 km/h
736 26-09-2020 15:00:00 11.375 C 9.32 g/m*3 11.38 C 11.69167 km/h
737 26-09-2020 16:00:00 10.94167 C 9.01 g/m*3 9.5 C 11.68333 km/h
738 26-09-2020 17:00:00 10.9 C 8.97 g/m*3 9.85 C 9.15833 km/h
739 26-09-2020 18:00:00 10.81667 C 9.08 g/m*3 10.55 C 5.48333 km/h
740 26-09-2020 19:00:00 10.68333 C 9.04 g/m*3 10.68 C 4.95833 km/h
741 26-09-2020 20:00:00 10.36667 C 8.98 g/m*3 10.37 C 4.54167 km/h
742 26-09-2020 21:00:00 10.2 C 8.99 g/m*3 10.2 C 2.26667 km/h
743 26-09-2020 22:00:00 10.075 C 8.97 g/m*3 10.07 C 2.275 km/h
744 26-09-2020 23:00:00 9.85 C 8.84 g/m*3 9.85 C 3.2 km/h
745 27-09-2020 00:00:00 9.375 C 8.58 g/m*3 9.38 C 4.66667 km/h
746 27-09-2020 01:00:00 8.88333 C 8.35 g/m*3 7.77 C 7.65 km/h
747 27-09-2020 02:00:00 8.91667 C 8.42 g/m*3 7.55 C 8.85833 km/h
748 27-09-2020 03:00:00 9.325 C 8.64 g/m*3 8.92 C 5.225 km/h
749 27-09-2020 04:00:00 9.50833 C 8.74 g/m*3 9.51 C 1.74167 km/h
750 27-09-2020 05:00:00 9.6 C 8.79 g/m*3 9.6 C 0.8 km/h
Sensor: Nr:Datum:Temp:Abs-Feuchte:Windchill:Wind:
Aussen-T/F 751 27-09-2020 06:00:00 9.6 C 8.79 g/m*3 9.6 C 0.26667 km/h
752 27-09-2020 07:00:00 9.6 C 8.79 g/m*3 9.6 C 0.26667 km/h
753 27-09-2020 08:00:00 9.8 C 8.96 g/m*3 9.8 C 1.46667 km/h
754 27-09-2020 09:00:00 10.59167 C 9.43 g/m*3 10.59 C 2.13333 km/h
755 27-09-2020 10:00:00 11.24167 C 9.75 g/m*3 11.24 C 2 km/h
756 27-09-2020 11:00:00 12.025 C 9.89 g/m*3 12.03 C 5.075 km/h
757 27-09-2020 12:00:00 12.61667 C 9.85 g/m*3 12.62 C 5.48333 km/h
758 27-09-2020 13:00:00 13.30833 C 10 g/m*3 13.31 C 6.71667 km/h
759 27-09-2020 14:00:00 13.69167 C 9.59 g/m*3 13.69 C 6.41667 km/h
760 27-09-2020 15:00:00 13.39167 C 9.35 g/m*3 13.39 C 3.2 km/h
761 27-09-2020 16:00:00 13.13333 C 9.5 g/m*3 13.13 C 1.6 km/h
762 27-09-2020 17:00:00 13.1 C 9.8 g/m*3 13.1 C 0 km/h
763 27-09-2020 18:00:00 12.39167 C 9.7 g/m*3 12.39 C 2.13333 km/h
764 27-09-2020 19:00:00 11.33333 C 9.22 g/m*3 11.33 C 2.4 km/h
765 27-09-2020 20:00:00 10.89167 C 9.12 g/m*3 10.89 C 2 km/h
766 27-09-2020 21:00:00 10.74167 C 9.14 g/m*3 10.74 C 1.46667 km/h
767 27-09-2020 22:00:00 10.65833 C 9.11 g/m*3 10.66 C 0.26667 km/h
768 27-09-2020 23:00:00 10.44167 C 9.06 g/m*3 10.44 C 1.46667 km/h
769 28-09-2020 00:00:00 10.40833 C 9.06 g/m*3 10.41 C 1.33333 km/h
770 28-09-2020 01:00:00 10.5 C 9.12 g/m*3 10.5 C 0.66667 km/h
771 28-09-2020 02:00:00 10.39167 C 9.05 g/m*3 10.39 C 1.33333 km/h
772 28-09-2020 03:00:00 10.20833 C 8.97 g/m*3 10.21 C 0 km/h
773 28-09-2020 04:00:00 10.15833 C 8.98 g/m*3 10.16 C 0.4 km/h
774 28-09-2020 05:00:00 10.11667 C 8.94 g/m*3 10.12 C 0.4 km/h
775 28-09-2020 06:00:00 10.125 C 8.93 g/m*3 10.13 C 0.66667 km/h
Sensor: Nr:Datum:Temp:Abs-Feuchte:Windchill:Wind:
Aussen-T/F 776 28-09-2020 07:00:00 10.075 C 8.86 g/m*3 10.07 C 0.26667 km/h
777 28-09-2020 08:00:00 10.29167 C 9 g/m*3 10.29 C 0 km/h
778 28-09-2020 09:00:00 10.79167 C 9.07 g/m*3 10.79 C 0.4 km/h
779 28-09-2020 10:00:00 11.89167 C 9.08 g/m*3 11.89 C 2.66667 km/h
780 28-09-2020 11:00:00 12.98333 C 9.14 g/m*3 12.98 C 4.95 km/h
781 28-09-2020 12:00:00 13.725 C 9.11 g/m*3 13.73 C 4.41667 km/h
782 28-09-2020 13:00:00 13.81667 C 9.36 g/m*3 13.82 C 5.775 km/h
783 28-09-2020 14:00:00 14.01667 C 9.42 g/m*3 14.02 C 4.025 km/h
784 28-09-2020 15:00:00 14.24167 C 9.13 g/m*3 14.24 C 4.95833 km/h
785 28-09-2020 16:00:00 14 C 9.14 g/m*3 14 C 6.7 km/h
786 28-09-2020 17:00:00 13.55833 C 9.11 g/m*3 13.56 C 6.025 km/h
787 28-09-2020 18:00:00 13.25 C 9.24 g/m*3 13.25 C 2 km/h
788 28-09-2020 19:00:00 12.45833 C 9.3 g/m*3 12.46 C 1.6 km/h
789 28-09-2020 20:00:00 11.85833 C 9.08 g/m*3 11.86 C 0.8 km/h
790 28-09-2020 21:00:00 10.86667 C 8.74 g/m*3 10.87 C 0.53333 km/h
791 28-09-2020 22:00:00 10.80833 C 8.99 g/m*3 10.81 C 0 km/h
792 28-09-2020 23:00:00 10.95 C 9.15 g/m*3 10.95 C 0.13333 km/h
793 29-09-2020 00:00:00 10.975 C 9.19 g/m*3 10.98 C 0.26667 km/h
794 29-09-2020 01:00:00 11.025 C 9.22 g/m*3 11.03 C 0.4 km/h
795 29-09-2020 02:00:00 11.09167 C 9.26 g/m*3 11.09 C 0 km/h
796 29-09-2020 03:00:00 11.13333 C 9.29 g/m*3 11.13 C 0 km/h
797 29-09-2020 04:00:00 11.2 C 9.36 g/m*3 11.2 C 0 km/h
798 29-09-2020 05:00:00 11.3 C 9.49 g/m*3 11.3 C 0 km/h
799 29-09-2020 06:00:00 11.4 C 9.55 g/m*3 11.4 C 0 km/h
800 29-09-2020 07:00:00 11.59167 C 9.74 g/m*3 11.59 C 0 km/h
Sensor: Nr:Datum:Temp:Abs-Feuchte:Windchill:Wind:
Aussen-T/F 801 29-09-2020 08:00:00 11.81667 C 9.96 g/m*3 11.82 C 0 km/h
802 29-09-2020 09:00:00 12.2 C 10.28 g/m*3 12.2 C 1.6 km/h
803 29-09-2020 10:00:00 12.65 C 10.61 g/m*3 12.65 C 3.46667 km/h
804 29-09-2020 11:00:00 13.18333 C 10.92 g/m*3 13.18 C 3.2 km/h
805 29-09-2020 12:00:00 13.725 C 11.23 g/m*3 13.73 C 5.06667 km/h
806 29-09-2020 13:00:00 14.1 C 11.38 g/m*3 14.1 C 6.01667 km/h
807 29-09-2020 14:00:00 14.30833 C 11.62 g/m*3 14.31 C 6.43333 km/h
808 29-09-2020 15:00:00 14.26667 C 11.54 g/m*3 14.27 C 7.93333 km/h
809 29-09-2020 16:00:00 13.43333 C 10.98 g/m*3 13.43 C 5.21667 km/h
810 29-09-2020 17:00:00 13.15833 C 10.88 g/m*3 13.16 C 2.14167 km/h
811 29-09-2020 18:00:00 13.21667 C 10.92 g/m*3 13.22 C 1.86667 km/h
812 29-09-2020 19:00:00 12.425 C 10.4 g/m*3 12.43 C 4.54167 km/h
813 29-09-2020 20:00:00 11.55 C 9.84 g/m*3 11.55 C 0.13333 km/h
814 29-09-2020 21:00:00 10.70833 C 9.34 g/m*3 10.71 C 0 km/h
815 29-09-2020 22:00:00 10.24167 C 9.15 g/m*3 10.24 C 0 km/h
816 29-09-2020 23:00:00 10.5 C 9.34 g/m*3 10.5 C 0 km/h
817 30-09-2020 00:00:00 10.88333 C 9.64 g/m*3 10.88 C 0 km/h
818 30-09-2020 01:00:00 11.05833 C 9.74 g/m*3 11.06 C 0 km/h
819 30-09-2020 02:00:00 11.2 C 9.83 g/m*3 11.2 C 0 km/h
820 30-09-2020 03:00:00 11.49167 C 10.01 g/m*3 11.49 C 0 km/h
821 30-09-2020 04:00:00 11.75833 C 10.18 g/m*3 11.76 C 0 km/h
822 30-09-2020 05:00:00 11.90833 C 10.28 g/m*3 11.91 C 0 km/h
823 30-09-2020 06:00:00 12.11667 C 10.41 g/m*3 12.12 C 0 km/h
824 30-09-2020 07:00:00 12.23333 C 10.49 g/m*3 12.23 C 0 km/h
825 30-09-2020 08:00:00 12.65 C 10.76 g/m*3 12.65 C 0 km/h
Sensor: Nr:Datum:Temp:Abs-Feuchte:Windchill:Wind:
Aussen-T/F 826 30-09-2020 09:00:00 13.59167 C 11.44 g/m*3 13.59 C 0 km/h
827 30-09-2020 10:00:00 14.675 C 12.26 g/m*3 14.68 C 2.13333 km/h
828 30-09-2020 11:00:00 15.65833 C 12.76 g/m*3 15.66 C 4.81667 km/h
829 30-09-2020 12:00:00 16.64167 C 12.95 g/m*3 16.64 C 3.21667 km/h
830 30-09-2020 13:00:00 16.89167 C 12.81 g/m*3 16.89 C 1.6 km/h
831 30-09-2020 14:00:00 17.64167 C 12.94 g/m*3 17.64 C 3.46667 km/h
832 30-09-2020 15:00:00 18.15 C 12.88 g/m*3 18.15 C 4.66667 km/h
833 30-09-2020 16:00:00 17.9 C 12.66 g/m*3 17.9 C 3.86667 km/h
834 30-09-2020 17:00:00 18.00833 C 12.6 g/m*3 18.01 C 3.46667 km/h
835 30-09-2020 18:00:00 17.05 C 12.31 g/m*3 17.05 C 1.73333 km/h
836 30-09-2020 19:00:00 15.55833 C 12.03 g/m*3 15.56 C 0.13333 km/h
837 30-09-2020 20:00:00 14.54167 C 11.43 g/m*3 14.54 C 1.6 km/h
838 30-09-2020 21:00:00 13.25833 C 10.69 g/m*3 13.26 C 1.2 km/h
839 30-09-2020 22:00:00 12.175 C 10.12 g/m*3 12.18 C 2.13333 km/h
840 30-09-2020 23:00:00 11.55 C 9.84 g/m*3 11.55 C 1.73333 km/h
841 01-10-2020 00:00:00 11.06667 C 9.57 g/m*3 11.07 C 0.26667 km/h
842 01-10-2020 01:00:00 10.68333 C 9.4 g/m*3 10.68 C 0.13333 km/h
843 01-10-2020 02:00:00 10.15833 C 9.11 g/m*3 10.16 C 0.4 km/h
844 01-10-2020 03:00:00 9.85833 C 8.94 g/m*3 9.86 C 0.13333 km/h
845 01-10-2020 04:00:00 9.91667 C 9 g/m*3 9.92 C 0 km/h
846 01-10-2020 05:00:00 10.48333 C 9.39 g/m*3 10.48 C 0 km/h
847 01-10-2020 06:00:00 9.81667 C 8.98 g/m*3 9.82 C 0.26667 km/h
848 01-10-2020 07:00:00 9.51667 C 8.81 g/m*3 9.52 C 0 km/h
849 01-10-2020 08:00:00 10.05833 C 9.15 g/m*3 10.06 C 0 km/h
850 01-10-2020 09:00:00 10.80833 C 9.59 g/m*3 10.81 C 0 km/h
Sensor: Nr:Datum:Temp:Abs-Feuchte:Windchill:Wind:
Aussen-T/F 851 01-10-2020 10:00:00 12.25 C 10.57 g/m*3 12.25 C 2.94167 km/h
852 01-10-2020 11:00:00 14.08333 C 11.38 g/m*3 14.08 C 2.8 km/h
853 01-10-2020 12:00:00 16.04167 C 11.72 g/m*3 16.04 C 4.26667 km/h
854 01-10-2020 13:00:00 16.95833 C 11.68 g/m*3 16.96 C 5.35 km/h
855 01-10-2020 14:00:00 16.90833 C 11.52 g/m*3 16.91 C 2.13333 km/h
856 01-10-2020 15:00:00 15.9 C 11.92 g/m*3 15.9 C 1.6 km/h
857 01-10-2020 16:00:00 15.275 C 11.89 g/m*3 15.28 C 1.33333 km/h
858 01-10-2020 17:00:00 15.23333 C 12.06 g/m*3 15.23 C 0.66667 km/h
859 01-10-2020 18:00:00 16.05 C 12.38 g/m*3 16.05 C 2.94167 km/h
860 01-10-2020 19:00:00 13.75 C 10.77 g/m*3 13.75 C 4.26667 km/h
861 01-10-2020 20:00:00 12.34167 C 10.18 g/m*3 12.34 C 3.46667 km/h
862 01-10-2020 21:00:00 12.33333 C 10.35 g/m*3 12.33 C 4.01667 km/h
863 01-10-2020 22:00:00 11.475 C 9.8 g/m*3 11.48 C 1.6 km/h
864 01-10-2020 23:00:00 10.825 C 9.48 g/m*3 10.83 C 4.41667 km/h
865 02-10-2020 00:00:00 10.5 C 9.29 g/m*3 10.5 C 2.13333 km/h
866 02-10-2020 01:00:00 9.85833 C 8.94 g/m*3 9.86 C 0 km/h
867 02-10-2020 02:00:00 9.21667 C 8.58 g/m*3 9.22 C 0 km/h
868 02-10-2020 03:00:00 8.675 C 8.29 g/m*3 8.68 C 0 km/h
869 02-10-2020 04:00:00 8 C 7.94 g/m*3 8 C 0 km/h
870 02-10-2020 05:00:00 7.8 C 7.86 g/m*3 7.8 C 0 km/h
871 02-10-2020 06:00:00 8.13333 C 8.09 g/m*3 8.13 C 0 km/h
872 02-10-2020 07:00:00 8.46667 C 8.26 g/m*3 8.47 C 0 km/h
873 02-10-2020 08:00:00 9.19167 C 8.66 g/m*3 9.19 C 0 km/h
874 02-10-2020 09:00:00 10.56667 C 9.51 g/m*3 10.57 C 3.20833 km/h
875 02-10-2020 10:00:00 11.975 C 10.37 g/m*3 11.98 C 1.46667 km/h
Sensor: Nr:Datum:Temp:Abs-Feuchte:Windchill:Wind:
Aussen-T/F 876 02-10-2020 11:00:00 12.54167 C 10.69 g/m*3 12.54 C 3.34167 km/h
877 02-10-2020 12:00:00 14.15833 C 11.22 g/m*3 14.16 C 10.35833 km/h
878 02-10-2020 13:00:00 16.11667 C 11.62 g/m*3 16.12 C 7.125 km/h
879 02-10-2020 14:00:00 17.65 C 12.01 g/m*3 17.65 C 8.325 km/h
880 02-10-2020 15:00:00 18.44167 C 12.31 g/m*3 18.44 C 5.08333 km/h
881 02-10-2020 16:00:00 18.85 C 12.4 g/m*3 18.85 C 6.45 km/h
882 02-10-2020 17:00:00 18.54167 C 12.15 g/m*3 18.54 C 6.70833 km/h
883 02-10-2020 18:00:00 17.40833 C 12.01 g/m*3 17.41 C 6.98333 km/h
884 02-10-2020 19:00:00 17.44167 C 11.96 g/m*3 17.44 C 6.3 km/h
885 02-10-2020 20:00:00 17.15833 C 11.83 g/m*3 17.16 C 8.45 km/h
886 02-10-2020 21:00:00 17.43333 C 11.78 g/m*3 17.43 C 4.55 km/h
887 02-10-2020 22:00:00 16.725 C 11.56 g/m*3 16.73 C 4.40833 km/h
888 02-10-2020 23:00:00 17.10833 C 11.29 g/m*3 17.11 C 10.875 km/h
889 03-10-2020 00:00:00 17.35833 C 11.19 g/m*3 17.36 C 7.65833 km/h
890 03-10-2020 01:00:00 17.16667 C 11.11 g/m*3 17.17 C 8.2 km/h
891 03-10-2020 02:00:00 15.73333 C 10.9 g/m*3 15.73 C 3.33333 km/h
892 03-10-2020 03:00:00 14.275 C 10.92 g/m*3 14.28 C 2.66667 km/h
893 03-10-2020 04:00:00 14.19167 C 11.04 g/m*3 14.19 C 0 km/h
894 03-10-2020 05:00:00 13.73333 C 10.79 g/m*3 13.73 C 0 km/h
895 03-10-2020 06:00:00 13.3 C 10.69 g/m*3 13.3 C 0 km/h
896 03-10-2020 07:00:00 13.45 C 10.91 g/m*3 13.45 C 2.675 km/h
897 03-10-2020 08:00:00 13.85 C 11.19 g/m*3 13.85 C 5.61667 km/h
898 03-10-2020 09:00:00 13.83333 C 11 g/m*3 13.83 C 7.78333 km/h
899 03-10-2020 10:00:00 13.69167 C 10.6 g/m*3 13.69 C 11.7 km/h
900 03-10-2020 11:00:00 13.53333 C 10.34 g/m*3 13.53 C 12.49167 km/h
Sensor: Nr:Datum:Temp:Abs-Feuchte:Windchill:Wind:
Aussen-T/F 901 03-10-2020 12:00:00 13.08333 C 9.95 g/m*3 13.08 C 13.425 km/h
902 03-10-2020 13:00:00 12.95833 C 9.74 g/m*3 12.96 C 10.85833 km/h
903 03-10-2020 14:00:00 12.025 C 9.72 g/m*3 12.03 C 3.475 km/h
904 03-10-2020 15:00:00 11.94167 C 9.8 g/m*3 11.94 C 1.73333 km/h
905 03-10-2020 16:00:00 12.38333 C 9.75 g/m*3 12.38 C 1.86667 km/h
906 03-10-2020 17:00:00 14.28333 C 10.3 g/m*3 14.28 C 2.8 km/h
907 03-10-2020 18:00:00 14.45 C 10.22 g/m*3 14.45 C 3.86667 km/h
908 03-10-2020 19:00:00 11.88333 C 9.51 g/m*3 11.88 C 2 km/h
909 03-10-2020 20:00:00 11.4 C 9.23 g/m*3 11.4 C 2.26667 km/h
910 03-10-2020 21:00:00 10.81667 C 9.13 g/m*3 10.82 C 0.8 km/h
911 03-10-2020 22:00:00 10.35833 C 8.99 g/m*3 10.36 C 2.66667 km/h
912 03-10-2020 23:00:00 11.19167 C 9.28 g/m*3 11.19 C 4.95 km/h
913 04-10-2020 00:00:00 10.66667 C 8.95 g/m*3 10.67 C 2.66667 km/h
914 04-10-2020 01:00:00 10.63333 C 9.13 g/m*3 10.63 C 1.2 km/h
915 04-10-2020 02:00:00 10.38333 C 9.05 g/m*3 10.38 C 2.26667 km/h
916 04-10-2020 03:00:00 9.925 C 8.83 g/m*3 9.93 C 1.6 km/h
917 04-10-2020 04:00:00 9.96667 C 8.99 g/m*3 9.97 C 2.66667 km/h
918 04-10-2020 05:00:00 10.38333 C 9.19 g/m*3 10.38 C 4.95 km/h
919 04-10-2020 06:00:00 10.70833 C 9.34 g/m*3 10.71 C 4.95 km/h
920 04-10-2020 07:00:00 10.53333 C 9.19 g/m*3 10.53 C 4.14167 km/h
921 04-10-2020 08:00:00 10.43333 C 9.2 g/m*3 10.43 C 2 km/h
922 04-10-2020 09:00:00 10.93333 C 9.33 g/m*3 10.79 C 5.075 km/h
923 04-10-2020 10:00:00 11.56667 C 9.27 g/m*3 11.57 C 6.575 km/h
924 04-10-2020 11:00:00 12.54167 C 8.98 g/m*3 12.54 C 16.9 km/h
925 04-10-2020 12:00:00 13.175 C 8.75 g/m*3 13.18 C 12.63333 km/h
Sensor: Nr:Datum:Temp:Abs-Feuchte:Windchill:Wind:
Aussen-T/F 926 04-10-2020 13:00:00 13.49167 C 8.29 g/m*3 13.49 C 12.36667 km/h
927 04-10-2020 14:00:00 14.15 C 8.51 g/m*3 14.15 C 12.1 km/h
928 04-10-2020 15:00:00 14.96667 C 8.66 g/m*3 14.97 C 8.86667 km/h
929 04-10-2020 16:00:00 15.38333 C 8.65 g/m*3 15.38 C 6.85 km/h
930 04-10-2020 17:00:00 15.00833 C 9.16 g/m*3 15.01 C 2.26667 km/h
931 04-10-2020 18:00:00 14.2 C 9.61 g/m*3 14.2 C 1.86667 km/h
932 04-10-2020 19:00:00 12.56667 C 9.45 g/m*3 12.57 C 4.69167 km/h
933 04-10-2020 20:00:00 11.63333 C 9.5 g/m*3 11.63 C 0.93333 km/h
934 04-10-2020 21:00:00 11.05 C 9.39 g/m*3 11.05 C 2.00833 km/h
935 04-10-2020 22:00:00 9.9 C 8.77 g/m*3 9.9 C 1.33333 km/h
936 04-10-2020 23:00:00 8.96667 C 8.34 g/m*3 8.97 C 0 km/h
937 05-10-2020 00:00:00 8.61667 C 8.2 g/m*3 8.62 C 3.21667 km/h
938 05-10-2020 01:00:00 8.59167 C 8.23 g/m*3 8.59 C 2.53333 km/h
939 05-10-2020 02:00:00 9.175 C 8.58 g/m*3 9.18 C 3.06667 km/h
940 05-10-2020 03:00:00 9.11667 C 8.56 g/m*3 9.12 C 1.33333 km/h
941 05-10-2020 04:00:00 8.94167 C 8.48 g/m*3 8.94 C 2.66667 km/h
942 05-10-2020 05:00:00 8.59167 C 8.28 g/m*3 8.59 C 3.33333 km/h
943 05-10-2020 06:00:00 8.51667 C 8.29 g/m*3 8.52 C 3.33333 km/h
944 05-10-2020 07:00:00 8.76667 C 8.42 g/m*3 8.77 C 1.86667 km/h
945 05-10-2020 08:00:00 9.23333 C 8.68 g/m*3 9.23 C 2.8 km/h
946 05-10-2020 09:00:00 10.125 C 9.19 g/m*3 10.13 C 2.93333 km/h
947 05-10-2020 10:00:00 10.275 C 9.15 g/m*3 10.04 C 5.09167 km/h
948 05-10-2020 11:00:00 11.60833 C 9.15 g/m*3 11.61 C 8.46667 km/h
949 05-10-2020 12:00:00 12.90833 C 9.27 g/m*3 12.91 C 8.325 km/h
950 05-10-2020 13:00:00 12.875 C 9.49 g/m*3 12.88 C 6.16667 km/h
Sensor: Nr:Datum:Temp:Abs-Feuchte:Windchill:Wind:
Aussen-T/F 951 05-10-2020 14:00:00 13.1 C 10.07 g/m*3 13.1 C 4.29167 km/h
952 05-10-2020 15:00:00 14.04167 C 10.13 g/m*3 14.04 C 9.54167 km/h
953 05-10-2020 16:00:00 14.275 C 9.97 g/m*3 14.28 C 10.09167 km/h
954 05-10-2020 17:00:00 13.65833 C 9.73 g/m*3 13.66 C 10.20833 km/h
955 05-10-2020 18:00:00 13.375 C 9.75 g/m*3 13.38 C 3.34167 km/h
956 05-10-2020 19:00:00 12.825 C 9.76 g/m*3 12.83 C 1.46667 km/h
957 05-10-2020 20:00:00 12.09167 C 9.61 g/m*3 12.09 C 3.475 km/h
958 05-10-2020 21:00:00 11.90833 C 9.74 g/m*3 11.91 C 0.8 km/h
959 05-10-2020 22:00:00 11.59167 C 9.68 g/m*3 11.59 C 0.53333 km/h
960 05-10-2020 23:00:00 11.53333 C 9.82 g/m*3 11.53 C 1.46667 km/h
961 06-10-2020 00:00:00 11.79167 C 10.04 g/m*3 11.79 C 0.66667 km/h
962 06-10-2020 01:00:00 11.8 C 10.1 g/m*3 11.8 C 2.14167 km/h
963 06-10-2020 02:00:00 11.8 C 10.1 g/m*3 11.8 C 2.68333 km/h
964 06-10-2020 03:00:00 11.93333 C 10.21 g/m*3 11.93 C 4.825 km/h
965 06-10-2020 04:00:00 12.275 C 10.32 g/m*3 12.28 C 16.23333 km/h
966 06-10-2020 05:00:00 12.11667 C 9.89 g/m*3 12.12 C 22.8 km/h
967 06-10-2020 06:00:00 11.8 C 9.39 g/m*3 11.8 C 16.63333 km/h
968 06-10-2020 07:00:00 11.70833 C 9.24 g/m*3 11.71 C 11.55833 km/h
969 06-10-2020 08:00:00 11.95 C 9.26 g/m*3 11.95 C 8.73333 km/h
970 06-10-2020 09:00:00 12.60833 C 9.52 g/m*3 12.61 C 5.075 km/h
971 06-10-2020 10:00:00 13.3 C 9.8 g/m*3 13.3 C 6.99167 km/h
972 06-10-2020 11:00:00 13.88333 C 10.12 g/m*3 13.88 C 11.3 km/h
973 06-10-2020 12:00:00 14.80833 C 10.6 g/m*3 14.81 C 11.41667 km/h
974 06-10-2020 13:00:00 15.05 C 10.65 g/m*3 15.05 C 8.06667 km/h
975 06-10-2020 14:00:00 15.05 C 11.18 g/m*3 15.05 C 9.8 km/h
Sensor: Nr:Datum:Temp:Abs-Feuchte:Windchill:Wind:
Aussen-T/F 976 06-10-2020 15:00:00 15.35833 C 10.91 g/m*3 15.36 C 14.76667 km/h
977 06-10-2020 16:00:00 15.425 C 10.74 g/m*3 15.43 C 12.09167 km/h
978 06-10-2020 17:00:00 14.78333 C 10.68 g/m*3 14.78 C 10.225 km/h
979 06-10-2020 18:00:00 13.36667 C 10.46 g/m*3 13.37 C 8.88333 km/h
980 06-10-2020 19:00:00 12.94167 C 10.1 g/m*3 12.94 C 9.525 km/h
981 06-10-2020 20:00:00 12.86667 C 9.99 g/m*3 12.87 C 7.375 km/h
982 06-10-2020 21:00:00 12.675 C 9.86 g/m*3 12.68 C 6.575 km/h
983 06-10-2020 22:00:00 12.775 C 9.81 g/m*3 12.78 C 12.5 km/h
984 06-10-2020 23:00:00 12.66667 C 9.66 g/m*3 12.67 C 12.5 km/h
985 07-10-2020 00:00:00 12.25 C 9.53 g/m*3 12.25 C 9.40833 km/h
986 07-10-2020 01:00:00 12.325 C 9.62 g/m*3 12.33 C 9.4 km/h
987 07-10-2020 02:00:00 11.90833 C 9.62 g/m*3 11.91 C 11.825 km/h
988 07-10-2020 03:00:00 11.85 C 9.54 g/m*3 11.85 C 11.83333 km/h
989 07-10-2020 04:00:00 12.2 C 9.48 g/m*3 12.2 C 11.95833 km/h
990 07-10-2020 05:00:00 12.15 C 9.43 g/m*3 12.15 C 10.23333 km/h
991 07-10-2020 06:00:00 11.99167 C 9.43 g/m*3 11.99 C 12.225 km/h
992 07-10-2020 07:00:00 12.10833 C 9.51 g/m*3 12.11 C 13.025 km/h
993 07-10-2020 08:00:00 12.50833 C 9.5 g/m*3 12.51 C 12.63333 km/h
994 07-10-2020 09:00:00 12.76667 C 9.57 g/m*3 12.77 C 11.025 km/h
995 07-10-2020 10:00:00 13.24167 C 9.65 g/m*3 13.24 C 12.76667 km/h
996 07-10-2020 11:00:00 13.8 C 9.33 g/m*3 13.8 C 13.29167 km/h
997 07-10-2020 12:00:00 14.725 C 9.39 g/m*3 14.73 C 15.3 km/h
998 07-10-2020 13:00:00 15.09167 C 9.57 g/m*3 15.09 C 13.69167 km/h
999 07-10-2020 14:00:00 15.075 C 9.75 g/m*3 15.08 C 13.825 km/h
1000 07-10-2020 15:00:00 14.225 C 9.97 g/m*3 14.23 C 11.55833 km/h
Sensor: Nr:Datum:Temp:Abs-Feuchte:Windchill:Wind:
Aussen-T/F 1001 07-10-2020 16:00:00 14.81667 C 10.01 g/m*3 14.82 C 8.98333 km/h
1002 07-10-2020 17:00:00 14.86667 C 9.6 g/m*3 14.87 C 9.53333 km/h
1003 07-10-2020 18:00:00 14.50833 C 9.35 g/m*3 14.51 C 7.65833 km/h
1004 07-10-2020 19:00:00 14 C 8.63 g/m*3 14 C 11.03333 km/h
1005 07-10-2020 20:00:00 13.55 C 8.63 g/m*3 13.55 C 8.46667 km/h
1006 07-10-2020 21:00:00 12.85 C 8.81 g/m*3 12.85 C 5.76667 km/h
1007 07-10-2020 22:00:00 12.24167 C 8.92 g/m*3 12.24 C 4.66667 km/h
1008 07-10-2020 23:00:00 11.61667 C 8.84 g/m*3 11.62 C 2.53333 km/h
1009 08-10-2020 00:00:00 10.375 C 8.49 g/m*3 10.38 C 3.74167 km/h
1010 08-10-2020 01:00:00 9.44167 C 8.23 g/m*3 9.44 C 1.6 km/h
1011 08-10-2020 02:00:00 8.89167 C 8.07 g/m*3 8.89 C 0.53333 km/h
1012 08-10-2020 03:00:00 8.325 C 7.88 g/m*3 8.32 C 0.53333 km/h
1013 08-10-2020 04:00:00 8.46667 C 8.07 g/m*3 8.47 C 0 km/h
1014 08-10-2020 05:00:00 9.06667 C 8.42 g/m*3 9.07 C 0.26667 km/h
1015 08-10-2020 06:00:00 9.66667 C 8.82 g/m*3 9.67 C 0 km/h
1016 08-10-2020 07:00:00 10.01667 C 9.03 g/m*3 10.02 C 0 km/h
1017 08-10-2020 08:00:00 10.76667 C 9.52 g/m*3 10.77 C 0.8 km/h
1018 08-10-2020 09:00:00 11.83333 C 10.23 g/m*3 11.83 C 4.29167 km/h
1019 08-10-2020 10:00:00 12.59167 C 10.7 g/m*3 12.59 C 3.49167 km/h
1020 08-10-2020 11:00:00 13.85 C 11.23 g/m*3 13.85 C 9.13333 km/h
1021 08-10-2020 12:00:00 15.33333 C 11.28 g/m*3 15.33 C 19.05 km/h
1022 08-10-2020 13:00:00 15.825 C 11.28 g/m*3 15.83 C 25.075 km/h
1023 08-10-2020 14:00:00 16.15 C 11.38 g/m*3 16.15 C 17.7 km/h
1024 08-10-2020 15:00:00 16.425 C 11.37 g/m*3 16.43 C 18.23333 km/h
1025 08-10-2020 16:00:00 16.39167 C 11.49 g/m*3 16.39 C 17.43333 km/h
Sensor: Nr:Datum:Temp:Abs-Feuchte:Windchill:Wind:
Aussen-T/F 1026 08-10-2020 17:00:00 16.53333 C 11.47 g/m*3 16.53 C 11.80833 km/h
1027 08-10-2020 18:00:00 16.525 C 11.45 g/m*3 16.52 C 11.55 km/h
1028 08-10-2020 19:00:00 16.30833 C 11.41 g/m*3 16.31 C 16.775 km/h
1029 08-10-2020 20:00:00 16.29167 C 11.57 g/m*3 16.29 C 20.1 km/h
1030 08-10-2020 21:00:00 16.23333 C 11.72 g/m*3 16.23 C 17.43333 km/h
1031 08-10-2020 22:00:00 16.46667 C 11.78 g/m*3 16.47 C 19.96667 km/h
1032 08-10-2020 23:00:00 16.28333 C 11.82 g/m*3 16.28 C 18.775 km/h
1033 09-10-2020 00:00:00 16.18333 C 11.76 g/m*3 16.18 C 19.84167 km/h
1034 09-10-2020 01:00:00 15.38333 C 11.41 g/m*3 15.38 C 11.55833 km/h
1035 09-10-2020 02:00:00 13.83333 C 10.99 g/m*3 13.83 C 1.86667 km/h
1036 09-10-2020 03:00:00 13.35 C 10.89 g/m*3 13.35 C 1.06667 km/h
1037 09-10-2020 04:00:00 12.825 C 10.63 g/m*3 12.83 C 2.13333 km/h
1038 09-10-2020 05:00:00 12.66667 C 10.55 g/m*3 12.67 C 0 km/h
1039 09-10-2020 06:00:00 12.6 C 10.55 g/m*3 12.6 C 0 km/h
1040 09-10-2020 07:00:00 12.58333 C 10.61 g/m*3 12.58 C 0 km/h
1041 09-10-2020 08:00:00 12.65833 C 10.66 g/m*3 12.66 C 0 km/h
1042 09-10-2020 09:00:00 12.875 C 10.8 g/m*3 12.88 C 1.6 km/h
1043 09-10-2020 10:00:00 12.96667 C 10.94 g/m*3 12.97 C 0.8 km/h
1044 09-10-2020 11:00:00 13.375 C 11.26 g/m*3 13.38 C 0 km/h
1045 09-10-2020 12:00:00 14.125 C 11.79 g/m*3 14.13 C 1.46667 km/h
1046 09-10-2020 13:00:00 14.775 C 12.26 g/m*3 14.78 C 4.425 km/h
1047 09-10-2020 14:00:00 14.9 C 12.18 g/m*3 14.9 C 7.24167 km/h
1048 09-10-2020 15:00:00 14.69167 C 11.93 g/m*3 14.69 C 5.48333 km/h
1049 09-10-2020 16:00:00 13.64167 C 11.17 g/m*3 13.64 C 2.14167 km/h
1050 09-10-2020 17:00:00 13.1 C 10.89 g/m*3 13.1 C 4.825 km/h
Sensor: Nr:Datum:Temp:Abs-Feuchte:Windchill:Wind:
Aussen-T/F 1051 09-10-2020 18:00:00 12.20833 C 10.26 g/m*3 12.21 C 4.26667 km/h
1052 09-10-2020 19:00:00 11.14167 C 9.61 g/m*3 11.14 C 4.28333 km/h
1053 09-10-2020 20:00:00 10.31667 C 9.18 g/m*3 10.32 C 0 km/h
1054 09-10-2020 21:00:00 10.425 C 9.27 g/m*3 10.43 C 0 km/h
1055 09-10-2020 22:00:00 10.275 C 9.22 g/m*3 10.28 C 0 km/h
1056 09-10-2020 23:00:00 10.875 C 9.63 g/m*3 10.88 C 0 km/h
1057 10-10-2020 00:00:00 10.89167 C 9.64 g/m*3 10.89 C 0.53333 km/h
1058 10-10-2020 01:00:00 10 C 9.08 g/m*3 10 C 4.275 km/h
1059 10-10-2020 02:00:00 9.60833 C 8.89 g/m*3 9.61 C 2.26667 km/h
1060 10-10-2020 03:00:00 9.61667 C 8.9 g/m*3 9.62 C 2.8 km/h
1061 10-10-2020 04:00:00 9.86667 C 9.04 g/m*3 9.87 C 2.93333 km/h
1062 10-10-2020 05:00:00 9.81667 C 9.01 g/m*3 9.82 C 0.53333 km/h
1063 10-10-2020 06:00:00 9.51667 C 8.84 g/m*3 9.52 C 0.13333 km/h
1064 10-10-2020 07:00:00 8.925 C 8.51 g/m*3 8.93 C 3.06667 km/h
1065 10-10-2020 08:00:00 8.375 C 8.22 g/m*3 8.38 C 3.2 km/h
1066 10-10-2020 09:00:00 8.275 C 8.16 g/m*3 8.28 C 1.73333 km/h
1067 10-10-2020 10:00:00 8.18333 C 8.11 g/m*3 8.18 C 4.675 km/h
1068 10-10-2020 11:00:00 9.075 C 8.42 g/m*3 8.16 C 6.96667 km/h
1069 10-10-2020 12:00:00 10.99167 C 7.93 g/m*3 9.43 C 12.625 km/h
1070 10-10-2020 13:00:00 12.24167 C 7.51 g/m*3 12.24 C 12.89167 km/h
1071 10-10-2020 14:00:00 12.5 C 7.31 g/m*3 12.5 C 9.825 km/h
1072 10-10-2020 15:00:00 12.65 C 7.23 g/m*3 12.65 C 9.95 km/h
1073 10-10-2020 16:00:00 12.675 C 7.24 g/m*3 12.68 C 9.675 km/h
1074 10-10-2020 17:00:00 12.44167 C 7.47 g/m*3 12.44 C 6.98333 km/h
1075 10-10-2020 18:00:00 11.80833 C 7.84 g/m*3 11.81 C 5.86667 km/h
Sensor: Nr:Datum:Temp:Abs-Feuchte:Windchill:Wind:
Aussen-T/F 1076 10-10-2020 19:00:00 8.66667 C 7.17 g/m*3 7.78 C 6.56667 km/h
1077 10-10-2020 20:00:00 7.39167 C 6.89 g/m*3 6.76 C 5.09167 km/h
1078 10-10-2020 21:00:00 6.65 C 6.86 g/m*3 6.65 C 3.475 km/h
1079 10-10-2020 22:00:00 8.26667 C 7.31 g/m*3 7.22 C 6.96667 km/h
1080 10-10-2020 23:00:00 9.64167 C 7.37 g/m*3 8.54 C 8.2 km/h
1081 11-10-2020 00:00:00 9.45 C 7.39 g/m*3 8.26 C 8.475 km/h
1082 11-10-2020 01:00:00 9.64167 C 7.55 g/m*3 8.63 C 7.775 km/h
1083 11-10-2020 02:00:00 9.425 C 7.64 g/m*3 9.04 C 5.20833 km/h
1084 11-10-2020 03:00:00 9.35 C 7.76 g/m*3 9.35 C 3.2 km/h
1085 11-10-2020 04:00:00 9.15833 C 7.81 g/m*3 9.16 C 3.88333 km/h
1086 11-10-2020 05:00:00 8.96667 C 7.83 g/m*3 8.97 C 2.26667 km/h
1087 11-10-2020 06:00:00 8.76667 C 7.8 g/m*3 8.77 C 0 km/h
1088 11-10-2020 07:00:00 8.60833 C 7.9 g/m*3 8.61 C 1.6 km/h
1089 11-10-2020 08:00:00 8.20833 C 7.82 g/m*3 8.21 C 1.33333 km/h
1090 11-10-2020 09:00:00 8.54167 C 8.05 g/m*3 8.54 C 2.13333 km/h
1091 11-10-2020 10:00:00 9.21667 C 8.22 g/m*3 9.22 C 1.86667 km/h
1092 11-10-2020 11:00:00 9.475 C 8.13 g/m*3 9.48 C 0.93333 km/h
1093 11-10-2020 12:00:00 10.50833 C 8.26 g/m*3 10.51 C 4.15 km/h
1094 11-10-2020 13:00:00 11.54167 C 8.03 g/m*3 11.54 C 3.75 km/h
1095 11-10-2020 14:00:00 12.44167 C 7.57 g/m*3 12.44 C 4.69167 km/h
1096 11-10-2020 15:00:00 13.09167 C 7.2 g/m*3 13.09 C 8.19167 km/h
1097 11-10-2020 16:00:00 12.90833 C 7.3 g/m*3 12.91 C 9.41667 km/h
1098 11-10-2020 17:00:00 12.575 C 7.63 g/m*3 12.58 C 3.075 km/h
1099 11-10-2020 18:00:00 11.86667 C 8.34 g/m*3 11.87 C 2.4 km/h
1100 11-10-2020 19:00:00 9.91667 C 7.73 g/m*3 9.92 C 3.46667 km/h
Sensor: Nr:Datum:Temp:Abs-Feuchte:Windchill:Wind:
Aussen-T/F 1101 11-10-2020 20:00:00 10.20833 C 8.01 g/m*3 9.81 C 5.63333 km/h
1102 11-10-2020 21:00:00 9.51667 C 8.19 g/m*3 9.52 C 4.54167 km/h
1103 11-10-2020 22:00:00 9.14167 C 8.24 g/m*3 9.14 C 1.46667 km/h
1104 11-10-2020 23:00:00 9.14167 C 8.33 g/m*3 9.14 C 1.6 km/h
1105 12-10-2020 00:00:00 9.13333 C 8.36 g/m*3 9.13 C 2 km/h
1106 12-10-2020 01:00:00 9.01667 C 8.33 g/m*3 9.02 C 1.86667 km/h
1107 12-10-2020 02:00:00 9.08333 C 8.42 g/m*3 9.08 C 0.4 km/h
1108 12-10-2020 03:00:00 8.95 C 8.35 g/m*3 8.95 C 0.13333 km/h
1109 12-10-2020 04:00:00 8.9 C 8.32 g/m*3 8.9 C 0.26667 km/h
1110 12-10-2020 05:00:00 8.89167 C 8.32 g/m*3 8.89 C 0.8 km/h
1111 12-10-2020 06:00:00 8.69167 C 8.21 g/m*3 8.69 C 1.6 km/h
1112 12-10-2020 07:00:00 8.71667 C 8.25 g/m*3 8.72 C 1.06667 km/h
1113 12-10-2020 08:00:00 8.80833 C 8.28 g/m*3 8.81 C 0.66667 km/h
1114 12-10-2020 09:00:00 9.16667 C 8.49 g/m*3 9.17 C 0.8 km/h
1115 12-10-2020 10:00:00 9.64167 C 8.69 g/m*3 9.64 C 4.53333 km/h
1116 12-10-2020 11:00:00 10.68333 C 8.95 g/m*3 10.68 C 3.06667 km/h
1117 12-10-2020 12:00:00 11.63333 C 8.99 g/m*3 11.63 C 3.33333 km/h
1118 12-10-2020 13:00:00 12.28333 C 8.9 g/m*3 12.28 C 6.30833 km/h
1119 12-10-2020 14:00:00 12.24167 C 8.99 g/m*3 12.24 C 6.575 km/h
1120 12-10-2020 15:00:00 12.19167 C 8.83 g/m*3 12.19 C 8.31667 km/h
1121 12-10-2020 16:00:00 11.06667 C 9 g/m*3 11.07 C 2.53333 km/h
1122 12-10-2020 17:00:00 11.79167 C 9.1 g/m*3 11.79 C 1.6 km/h
1123 12-10-2020 18:00:00 10.66667 C 8.43 g/m*3 10.67 C 4.54167 km/h
1124 12-10-2020 19:00:00 8.3 C 7.55 g/m*3 8.3 C 2 km/h
1125 12-10-2020 20:00:00 7.10833 C 7.19 g/m*3 7.11 C 0 km/h
Sensor: Nr:Datum:Temp:Abs-Feuchte:Windchill:Wind:
Aussen-T/F 1126 12-10-2020 21:00:00 6.55 C 7.05 g/m*3 6.55 C 0.53333 km/h
1127 12-10-2020 22:00:00 6.33333 C 7.02 g/m*3 6.33 C 0.13333 km/h
1128 12-10-2020 23:00:00 5.94167 C 6.86 g/m*3 5.94 C 0 km/h
1129 13-10-2020 00:00:00 5.3 C 6.58 g/m*3 5.3 C 0 km/h
1130 13-10-2020 01:00:00 5.075 C 6.52 g/m*3 5.08 C 0 km/h
1131 13-10-2020 02:00:00 5.70833 C 6.84 g/m*3 5.71 C 0.13333 km/h
1132 13-10-2020 03:00:00 6.2 C 7.06 g/m*3 6.2 C 0.4 km/h
1133 13-10-2020 04:00:00 6.15833 C 7.04 g/m*3 6.16 C 0 km/h
1134 13-10-2020 05:00:00 6.25833 C 7.09 g/m*3 6.26 C 0 km/h
1135 13-10-2020 06:00:00 6.35 C 7.2 g/m*3 6.35 C 0 km/h
1136 13-10-2020 07:00:00 6.325 C 7.19 g/m*3 6.33 C 0 km/h
1137 13-10-2020 08:00:00 6.61667 C 7.33 g/m*3 6.62 C 0.13333 km/h
1138 13-10-2020 09:00:00 7.05833 C 7.54 g/m*3 7.06 C 0.13333 km/h
1139 13-10-2020 10:00:00 7.41667 C 7.65 g/m*3 6.7 C 5.35833 km/h
1140 13-10-2020 11:00:00 8.08333 C 7.8 g/m*3 8.08 C 4.275 km/h
1141 13-10-2020 12:00:00 9.225 C 8.09 g/m*3 9.23 C 4.00833 km/h
1142 13-10-2020 13:00:00 10.16667 C 8.17 g/m*3 10.17 C 4.14167 km/h
1143 13-10-2020 14:00:00 10.6 C 8.17 g/m*3 10.2 C 5.86667 km/h
1144 13-10-2020 15:00:00 10.91667 C 8.12 g/m*3 10.92 C 3.88333 km/h
1145 13-10-2020 16:00:00 10.59167 C 8.12 g/m*3 10.59 C 1.73333 km/h
1146 13-10-2020 17:00:00 10.325 C 8.25 g/m*3 10.33 C 0.93333 km/h
1147 13-10-2020 18:00:00 8.75 C 7.65 g/m*3 8.75 C 2.8 km/h
1148 13-10-2020 19:00:00 7.19167 C 7.18 g/m*3 7.19 C 1.2 km/h
1149 13-10-2020 20:00:00 6.40833 C 6.98 g/m*3 6.41 C 0.66667 km/h
1150 13-10-2020 21:00:00 5.89167 C 6.8 g/m*3 5.89 C 1.73333 km/h
Sensor: Nr:Datum:Temp:Abs-Feuchte:Windchill:Wind:
Aussen-T/F 1151 13-10-2020 22:00:00 5.36667 C 6.61 g/m*3 5.37 C 2.66667 km/h
1152 13-10-2020 23:00:00 4.98333 C 6.45 g/m*3 4.98 C 0.13333 km/h
1153 14-10-2020 00:00:00 5.275 C 6.64 g/m*3 5.28 C 0 km/h
1154 14-10-2020 01:00:00 5.03333 C 6.53 g/m*3 5.03 C 0 km/h
1155 14-10-2020 02:00:00 4.83333 C 6.45 g/m*3 4.83 C 0 km/h
1156 14-10-2020 03:00:00 4.25 C 6.21 g/m*3 4.25 C 0 km/h
1157 14-10-2020 04:00:00 3.675 C 5.97 g/m*3 3.68 C 0 km/h
1158 14-10-2020 05:00:00 4.25 C 6.21 g/m*3 4.25 C 0 km/h
1159 14-10-2020 06:00:00 4.56667 C 6.4 g/m*3 4.57 C 0 km/h
1160 14-10-2020 07:00:00 4.8 C 6.5 g/m*3 4.8 C 0.13333 km/h
1161 14-10-2020 08:00:00 4.95833 C 6.57 g/m*3 4.96 C 0 km/h
1162 14-10-2020 09:00:00 5.925 C 7.01 g/m*3 5.93 C 0.13333 km/h
1163 14-10-2020 10:00:00 7.06667 C 7.55 g/m*3 7.07 C 0.53333 km/h
1164 14-10-2020 11:00:00 8.1 C 8.03 g/m*3 8.1 C 0.93333 km/h
1165 14-10-2020 12:00:00 9.13333 C 8.22 g/m*3 9.13 C 4.14167 km/h
1166 14-10-2020 13:00:00 10.51667 C 8.46 g/m*3 10.52 C 4.95 km/h
1167 14-10-2020 14:00:00 11.51667 C 8.52 g/m*3 11.52 C 8.325 km/h
1168 14-10-2020 15:00:00 11.80833 C 8.12 g/m*3 11.81 C 9.95833 km/h
1169 14-10-2020 16:00:00 11.70833 C 7.58 g/m*3 11.71 C 10.225 km/h
1170 14-10-2020 17:00:00 11.26667 C 7.79 g/m*3 11.27 C 8.875 km/h
1171 14-10-2020 18:00:00 10.80833 C 7.7 g/m*3 9.74 C 9.14167 km/h
1172 14-10-2020 19:00:00 10.35 C 7.75 g/m*3 10.35 C 4.675 km/h
1173 14-10-2020 20:00:00 9.84167 C 7.65 g/m*3 8.78 C 8.2 km/h
1174 14-10-2020 21:00:00 9.225 C 7.74 g/m*3 9.23 C 4.28333 km/h
1175 14-10-2020 22:00:00 8.825 C 7.74 g/m*3 8.82 C 3.475 km/h
Sensor: Nr:Datum:Temp:Abs-Feuchte:Windchill:Wind:
Aussen-T/F 1176 14-10-2020 23:00:00 8.40833 C 7.8 g/m*3 8.41 C 0.93333 km/h
1177 15-10-2020 00:00:00 8.15833 C 7.83 g/m*3 8.16 C 0.8 km/h
1178 15-10-2020 01:00:00 8.08333 C 7.86 g/m*3 8.08 C 1.2 km/h
1179 15-10-2020 02:00:00 7.975 C 7.84 g/m*3 7.98 C 0.93333 km/h
1180 15-10-2020 03:00:00 7.94167 C 7.84 g/m*3 7.94 C 1.2 km/h
1181 15-10-2020 04:00:00 7.91667 C 7.89 g/m*3 7.92 C 0.93333 km/h
1182 15-10-2020 05:00:00 7.9 C 7.89 g/m*3 7.9 C 0.93333 km/h
1183 15-10-2020 06:00:00 7.81667 C 7.84 g/m*3 7.82 C 1.06667 km/h
1184 15-10-2020 07:00:00 7.83333 C 7.85 g/m*3 7.83 C 0.8 km/h
1185 15-10-2020 08:00:00 7.90833 C 7.89 g/m*3 7.91 C 0.53333 km/h
1186 15-10-2020 09:00:00 8.15 C 8.03 g/m*3 8.15 C 0.26667 km/h
1187 15-10-2020 10:00:00 8.4 C 8.21 g/m*3 8.4 C 0.26667 km/h
1188 15-10-2020 11:00:00 8.7 C 8.32 g/m*3 8.7 C 1.33333 km/h
1189 15-10-2020 12:00:00 9.24167 C 8.51 g/m*3 9.24 C 3.21667 km/h
1190 15-10-2020 13:00:00 9.96667 C 8.52 g/m*3 9.01 C 7.79167 km/h
1191 15-10-2020 14:00:00 10.375 C 8.48 g/m*3 9.25 C 9.03333 km/h
1192 15-10-2020 15:00:00 10.61667 C 8.44 g/m*3 9.03 C 12.225 km/h
1193 15-10-2020 16:00:00 10.7 C 8.42 g/m*3 9.71 C 8.61667 km/h
1194 15-10-2020 17:00:00 10.71667 C 8.45 g/m*3 10 C 7.25 km/h
1195 15-10-2020 18:00:00 10.625 C 8.45 g/m*3 10.63 C 4.14167 km/h
1196 15-10-2020 19:00:00 10.075 C 8.51 g/m*3 10.07 C 0.93333 km/h
1197 15-10-2020 20:00:00 9.93333 C 8.29 g/m*3 9.93 C 2.94167 km/h
1198 15-10-2020 21:00:00 9.86667 C 8.27 g/m*3 9.87 C 2.13333 km/h
1199 15-10-2020 22:00:00 9.78333 C 8.29 g/m*3 9.78 C 0.66667 km/h
1200 15-10-2020 23:00:00 9.58333 C 8.36 g/m*3 9.58 C 0.13333 km/h
Sensor: Nr:Datum:Temp:Abs-Feuchte:Windchill:Wind:
Aussen-T/F 1201 16-10-2020 00:00:00 9.34167 C 8.33 g/m*3 9.34 C 0.26667 km/h
1202 16-10-2020 01:00:00 9.3 C 8.36 g/m*3 9.3 C 0.53333 km/h
1203 16-10-2020 02:00:00 9.30833 C 8.32 g/m*3 9.31 C 0.53333 km/h
1204 16-10-2020 03:00:00 9.325 C 8.22 g/m*3 9.32 C 1.86667 km/h
1205 16-10-2020 04:00:00 9.24167 C 8.16 g/m*3 9.24 C 1.875 km/h
1206 16-10-2020 05:00:00 8.925 C 8.12 g/m*3 8.93 C 0.4 km/h
1207 16-10-2020 06:00:00 8.63333 C 8.03 g/m*3 8.63 C 1.2 km/h
1208 16-10-2020 07:00:00 8.425 C 7.99 g/m*3 8.43 C 0.8 km/h
1209 16-10-2020 08:00:00 8.4 C 7.97 g/m*3 8.4 C 0 km/h
1210 16-10-2020 09:00:00 8.49167 C 8.07 g/m*3 8.49 C 1.46667 km/h
1211 16-10-2020 10:00:00 8.86667 C 8.26 g/m*3 8.87 C 0.13333 km/h
1212 16-10-2020 11:00:00 9.24167 C 8.41 g/m*3 9.24 C 0 km/h
1213 16-10-2020 12:00:00 9.725 C 8.49 g/m*3 9.73 C 0.4 km/h
1214 16-10-2020 13:00:00 10.24167 C 8.68 g/m*3 10.24 C 0.66667 km/h
1215 16-10-2020 14:00:00 10.60833 C 8.69 g/m*3 10.61 C 3.75833 km/h
1216 16-10-2020 15:00:00 11.04167 C 8.79 g/m*3 11.04 C 2.53333 km/h
1217 16-10-2020 16:00:00 11 C 8.63 g/m*3 11 C 4.68333 km/h
1218 16-10-2020 17:00:00 10.69167 C 8.7 g/m*3 10.69 C 3.86667 km/h
1219 16-10-2020 18:00:00 10.06667 C 8.59 g/m*3 10.07 C 4.95 km/h
1220 16-10-2020 19:00:00 9.275 C 8.37 g/m*3 9.28 C 1.73333 km/h
1221 16-10-2020 20:00:00 8.81667 C 8.21 g/m*3 8.82 C 0.66667 km/h
1222 16-10-2020 21:00:00 8.29167 C 8 g/m*3 8.29 C 4.8 km/h
1223 16-10-2020 22:00:00 7.93333 C 7.84 g/m*3 7.93 C 3.06667 km/h
1224 16-10-2020 23:00:00 7.05 C 7.39 g/m*3 7.05 C 3.6 km/h
1225 17-10-2020 00:00:00 6.06667 C 6.93 g/m*3 6.07 C 2.53333 km/h
Sensor: Nr:Datum:Temp:Abs-Feuchte:Windchill:Wind:
Aussen-T/F 1226 17-10-2020 01:00:00 5.34167 C 6.61 g/m*3 5.34 C 0.4 km/h
1227 17-10-2020 02:00:00 4.51667 C 6.28 g/m*3 4.52 C 0 km/h
1228 17-10-2020 03:00:00 4.18333 C 6.18 g/m*3 4.18 C 0 km/h
1229 17-10-2020 04:00:00 3.575 C 5.93 g/m*3 3.58 C 0 km/h
1230 17-10-2020 05:00:00 3.125 C 5.76 g/m*3 3.13 C 0 km/h
1231 17-10-2020 06:00:00 3.23333 C 5.8 g/m*3 3.23 C 0 km/h
1232 17-10-2020 07:00:00 3.34167 C 5.86 g/m*3 3.34 C 0 km/h
1233 17-10-2020 08:00:00 3.80833 C 6.09 g/m*3 3.81 C 0.13333 km/h
1234 17-10-2020 09:00:00 4.825 C 6.52 g/m*3 4.83 C 2.4 km/h
1235 17-10-2020 10:00:00 5.68333 C 6.9 g/m*3 5.68 C 0.93333 km/h
1236 17-10-2020 11:00:00 6.275 C 7.17 g/m*3 6.28 C 0 km/h
1237 17-10-2020 12:00:00 7.025 C 7.53 g/m*3 7.03 C 0 km/h
1238 17-10-2020 13:00:00 7.54167 C 7.74 g/m*3 7.54 C 0.4 km/h
1239 17-10-2020 14:00:00 8.65833 C 7.99 g/m*3 8.66 C 0.13333 km/h
1240 17-10-2020 15:00:00 9.66667 C 7.91 g/m*3 9.67 C 1.33333 km/h
1241 17-10-2020 16:00:00 9.725 C 7.46 g/m*3 9.73 C 3.48333 km/h
1242 17-10-2020 17:00:00 9.36667 C 7.57 g/m*3 9.37 C 0.53333 km/h
1243 17-10-2020 18:00:00 8.68333 C 7.62 g/m*3 8.68 C 1.46667 km/h
1244 17-10-2020 19:00:00 7.84167 C 7.41 g/m*3 7.84 C 1.86667 km/h
1245 17-10-2020 20:00:00 7.39167 C 7.29 g/m*3 7.39 C 2.4 km/h
1246 17-10-2020 21:00:00 6.61667 C 6.98 g/m*3 6.62 C 2 km/h
1247 17-10-2020 22:00:00 6.30833 C 6.96 g/m*3 6.31 C 0 km/h
1248 17-10-2020 23:00:00 5.90833 C 6.82 g/m*3 5.91 C 0 km/h
1249 18-10-2020 00:00:00 5.975 C 6.88 g/m*3 5.98 C 0 km/h
1250 18-10-2020 01:00:00 6.15 C 7.01 g/m*3 6.15 C 0.26667 km/h
Sensor: Nr:Datum:Temp:Abs-Feuchte:Windchill:Wind:
Aussen-T/F 1251 18-10-2020 02:00:00 6.24167 C 7.08 g/m*3 6.24 C 1.86667 km/h
1252 18-10-2020 03:00:00 6.31667 C 7.11 g/m*3 6.32 C 2.13333 km/h
1253 18-10-2020 04:00:00 6.4 C 7.12 g/m*3 6.4 C 2 km/h
1254 18-10-2020 05:00:00 6.29167 C 7.07 g/m*3 6.29 C 1.06667 km/h
1255 18-10-2020 06:00:00 6.375 C 7.14 g/m*3 6.38 C 0.8 km/h
1256 18-10-2020 07:00:00 6.43333 C 7.17 g/m*3 6.43 C 0.8 km/h
1257 18-10-2020 08:00:00 6.48333 C 7.19 g/m*3 6.48 C 1.2 km/h
1258 18-10-2020 09:00:00 6.93333 C 7.31 g/m*3 6.93 C 4.93333 km/h
1259 18-10-2020 10:00:00 7.49167 C 7.43 g/m*3 6.62 C 5.88333 km/h
1260 18-10-2020 11:00:00 7.95833 C 7.44 g/m*3 6.89 C 6.84167 km/h
1261 18-10-2020 12:00:00 8.89167 C 7.73 g/m*3 8.01 C 6.71667 km/h
1262 18-10-2020 13:00:00 10.125 C 8 g/m*3 9.28 C 7.39167 km/h
1263 18-10-2020 14:00:00 10.475 C 7.94 g/m*3 9.58 C 7.925 km/h
1264 18-10-2020 15:00:00 10.79167 C 8.01 g/m*3 10.31 C 6.29167 km/h
1265 18-10-2020 16:00:00 10.79167 C 8.08 g/m*3 10.79 C 4.01667 km/h
1266 18-10-2020 17:00:00 10.68333 C 8.15 g/m*3 10.68 C 2.55 km/h
1267 18-10-2020 18:00:00 9.91667 C 8.04 g/m*3 9.92 C 2.93333 km/h
1268 18-10-2020 19:00:00 9.28333 C 7.91 g/m*3 9.28 C 2 km/h
1269 18-10-2020 20:00:00 9.20833 C 7.95 g/m*3 9.21 C 2.26667 km/h
1270 18-10-2020 21:00:00 9.225 C 7.97 g/m*3 9.23 C 1.2 km/h
1271 18-10-2020 22:00:00 9.05 C 8.01 g/m*3 9.05 C 1.06667 km/h
1272 18-10-2020 23:00:00 9.05833 C 8 g/m*3 9.06 C 1.73333 km/h
1273 19-10-2020 00:00:00 8.875 C 7.99 g/m*3 8.88 C 0.13333 km/h
1274 19-10-2020 01:00:00 8.66667 C 7.96 g/m*3 8.67 C 0.93333 km/h
1275 19-10-2020 02:00:00 8.65833 C 7.96 g/m*3 8.66 C 0.4 km/h
Sensor: Nr:Datum:Temp:Abs-Feuchte:Windchill:Wind:
Aussen-T/F 1276 19-10-2020 03:00:00 8.34167 C 7.86 g/m*3 8.34 C 0.26667 km/h
1277 19-10-2020 04:00:00 8.23333 C 7.89 g/m*3 8.23 C 0.93333 km/h
1278 19-10-2020 05:00:00 8.18333 C 7.86 g/m*3 8.18 C 0.8 km/h
1279 19-10-2020 06:00:00 7.70833 C 7.63 g/m*3 7.71 C 1.2 km/h
1280 19-10-2020 07:00:00 7.40833 C 7.54 g/m*3 7.41 C 0 km/h
1281 19-10-2020 08:00:00 7.45833 C 7.6 g/m*3 7.46 C 0 km/h
1282 19-10-2020 09:00:00 8.09167 C 7.96 g/m*3 8.09 C 0 km/h
1283 19-10-2020 10:00:00 7.83333 C 7.77 g/m*3 7.83 C 1.33333 km/h
1284 19-10-2020 11:00:00 8.6 C 8.23 g/m*3 8.6 C 2.26667 km/h
1285 19-10-2020 12:00:00 9.83333 C 8.86 g/m*3 9.83 C 0 km/h
1286 19-10-2020 13:00:00 10.53333 C 9.14 g/m*3 10.53 C 1.33333 km/h
1287 19-10-2020 14:00:00 11.93333 C 9.61 g/m*3 11.93 C 0 km/h
1288 19-10-2020 15:00:00 12.95833 C 9.05 g/m*3 12.96 C 0.53333 km/h
1289 19-10-2020 16:00:00 12.53333 C 9.06 g/m*3 12.53 C 3.6 km/h
1290 19-10-2020 17:00:00 10.94167 C 8.24 g/m*3 10.55 C 6.00833 km/h
1291 19-10-2020 18:00:00 8.60833 C 7.52 g/m*3 8.61 C 4.93333 km/h
1292 19-10-2020 19:00:00 7.38333 C 7.2 g/m*3 6.72 C 5.2 km/h
1293 19-10-2020 20:00:00 6.75 C 6.96 g/m*3 5.73 C 6.00833 km/h
1294 19-10-2020 21:00:00 6.44167 C 6.87 g/m*3 5.69 C 5.06667 km/h
1295 19-10-2020 22:00:00 5.76667 C 6.62 g/m*3 5.77 C 0.26667 km/h
1296 19-10-2020 23:00:00 5.28333 C 6.49 g/m*3 5.28 C 1.46667 km/h
1297 20-10-2020 00:00:00 5.20833 C 6.52 g/m*3 5.21 C 2.93333 km/h
1298 20-10-2020 01:00:00 5.15833 C 6.48 g/m*3 5.16 C 3.06667 km/h
1299 20-10-2020 02:00:00 5.14167 C 6.41 g/m*3 5.14 C 2.26667 km/h
1300 20-10-2020 03:00:00 4.9 C 6.37 g/m*3 4.9 C 2.66667 km/h
Sensor: Nr:Datum:Temp:Abs-Feuchte:Windchill:Wind:
Aussen-T/F 1301 20-10-2020 04:00:00 4.63333 C 6.29 g/m*3 4.63 C 2.93333 km/h
1302 20-10-2020 05:00:00 4.98333 C 6.49 g/m*3 4.98 C 1.2 km/h
1303 20-10-2020 06:00:00 5.6 C 6.78 g/m*3 5.6 C 0.87273 km/h
1304 20-10-2020 07:00:00 5.825 C 6.87 g/m*3 5.83 C 0.4 km/h
1305 20-10-2020 08:00:00 5.93333 C 6.89 g/m*3 5.93 C 0.53333 km/h
1306 20-10-2020 09:00:00 6.66667 C 7.28 g/m*3 6.67 C 0.8 km/h
1307 20-10-2020 10:00:00 8.1 C 7.93 g/m*3 8.1 C 0.93333 km/h
1308 20-10-2020 11:00:00 9.83333 C 8.72 g/m*3 9.83 C 0.13333 km/h
1309 20-10-2020 12:00:00 11.45 C 9.45 g/m*3 11.45 C 0 km/h
1310 20-10-2020 13:00:00 11.775 C 9.65 g/m*3 11.78 C 0.4 km/h
1311 20-10-2020 14:00:00 11.89167 C 9.74 g/m*3 11.89 C 0.4 km/h
1312 20-10-2020 15:00:00 12.55833 C 10.03 g/m*3 12.56 C 0.13333 km/h
1313 20-10-2020 16:00:00 12.44167 C 9.98 g/m*3 12.44 C 0.4 km/h
1314 20-10-2020 17:00:00 12.075 C 9.84 g/m*3 12.08 C 0.8 km/h
1315 20-10-2020 18:00:00 11.76667 C 9.74 g/m*3 11.77 C 0.93333 km/h
1316 20-10-2020 19:00:00 11.7 C 9.81 g/m*3 11.7 C 2.66667 km/h
1317 20-10-2020 20:00:00 11.9 C 9.92 g/m*3 11.9 C 2 km/h
1318 20-10-2020 21:00:00 11.76667 C 9.74 g/m*3 11.77 C 1.33333 km/h
1319 20-10-2020 22:00:00 11.6 C 9.67 g/m*3 11.6 C 1.86667 km/h
1320 20-10-2020 23:00:00 11.78333 C 9.78 g/m*3 11.78 C 0.8 km/h
1321 21-10-2020 00:00:00 11.84167 C 9.84 g/m*3 11.84 C 0 km/h
1322 21-10-2020 01:00:00 11.69167 C 9.87 g/m*3 11.69 C 0 km/h
1323 21-10-2020 02:00:00 11.40833 C 9.76 g/m*3 11.41 C 1.73333 km/h
1324 21-10-2020 03:00:00 11.3 C 9.69 g/m*3 11.3 C 2.53333 km/h
1325 21-10-2020 04:00:00 11.36667 C 9.72 g/m*3 11.37 C 2.66667 km/h
Sensor: Nr:Datum:Temp:Abs-Feuchte:Windchill:Wind:
Aussen-T/F 1326 21-10-2020 05:00:00 11.79167 C 9.79 g/m*3 11.79 C 2.93333 km/h
1327 21-10-2020 06:00:00 11.95833 C 9.85 g/m*3 11.96 C 3.6 km/h
1328 21-10-2020 07:00:00 12.10833 C 9.88 g/m*3 12.11 C 2 km/h
1329 21-10-2020 08:00:00 12.11667 C 10.06 g/m*3 12.12 C 1.86667 km/h
1330 21-10-2020 09:00:00 12.125 C 10.15 g/m*3 12.13 C 0 km/h
1331 21-10-2020 10:00:00 12.59167 C 10.45 g/m*3 12.59 C 0 km/h
1332 21-10-2020 11:00:00 14.15833 C 10.68 g/m*3 14.16 C 0.93333 km/h
1333 21-10-2020 12:00:00 16.85833 C 10.63 g/m*3 16.86 C 2.81667 km/h
1334 21-10-2020 13:00:00 18.94167 C 9.78 g/m*3 18.94 C 5.08333 km/h
1335 21-10-2020 14:00:00 19.85833 C 10.7 g/m*3 19.86 C 5.35833 km/h
1336 21-10-2020 15:00:00 21.1 C 10.32 g/m*3 21.1 C 11.13333 km/h
1337 21-10-2020 16:00:00 20.99167 C 10.41 g/m*3 20.99 C 9.54167 km/h
1338 21-10-2020 17:00:00 20.175 C 10.97 g/m*3 20.18 C 5.21667 km/h
1339 21-10-2020 18:00:00 18.21667 C 11.1 g/m*3 18.22 C 4.15 km/h
1340 21-10-2020 19:00:00 16.75 C 10.88 g/m*3 16.75 C 4.95 km/h
1341 21-10-2020 20:00:00 17.23333 C 11.31 g/m*3 17.23 C 5.89167 km/h
1342 21-10-2020 21:00:00 16.08333 C 11.33 g/m*3 16.08 C 3.6 km/h
1343 21-10-2020 22:00:00 15.63333 C 11.58 g/m*3 15.63 C 3.73333 km/h
1344 21-10-2020 23:00:00 15.76667 C 11.55 g/m*3 15.77 C 2.8 km/h
1345 22-10-2020 00:00:00 15.55 C 11.52 g/m*3 15.55 C 0.4 km/h
1346 22-10-2020 01:00:00 14.975 C 11.41 g/m*3 14.98 C 0.4 km/h
1347 22-10-2020 02:00:00 14.6 C 11.32 g/m*3 14.6 C 0 km/h
1348 22-10-2020 03:00:00 14.275 C 11.3 g/m*3 14.28 C 0.13333 km/h
1349 22-10-2020 04:00:00 14.3 C 11.43 g/m*3 14.3 C 1.73333 km/h
1350 22-10-2020 05:00:00 14.33333 C 11.44 g/m*3 14.33 C 0.93333 km/h
Sensor: Nr:Datum:Temp:Abs-Feuchte:Windchill:Wind:
Aussen-T/F 1351 22-10-2020 06:00:00 14.30833 C 11.35 g/m*3 14.31 C 1.46667 km/h
1352 22-10-2020 07:00:00 14.14167 C 11.32 g/m*3 14.14 C 0.4 km/h
1353 22-10-2020 08:00:00 13.95833 C 11.17 g/m*3 13.96 C 0.66667 km/h
1354 22-10-2020 09:00:00 14.85833 C 11.71 g/m*3 14.86 C 0.66667 km/h
1355 22-10-2020 10:00:00 15.275 C 11.84 g/m*3 15.28 C 0.93333 km/h
1356 22-10-2020 11:00:00 16.60833 C 11.93 g/m*3 16.61 C 7.24167 km/h
1357 22-10-2020 12:00:00 17.36667 C 11.93 g/m*3 17.37 C 6.31667 km/h
1358 22-10-2020 13:00:00 18.7 C 11.94 g/m*3 18.7 C 9.25833 km/h
1359 22-10-2020 14:00:00 19.69167 C 12.01 g/m*3 19.69 C 10.74167 km/h
1360 22-10-2020 15:00:00 20.15 C 12.22 g/m*3 20.15 C 10.225 km/h
1361 22-10-2020 16:00:00 20.34167 C 12.64 g/m*3 20.34 C 6.3 km/h
1362 22-10-2020 17:00:00 19.05833 C 12.85 g/m*3 19.06 C 4.13333 km/h
1363 22-10-2020 18:00:00 17.45833 C 12.42 g/m*3 17.46 C 4.53333 km/h
1364 22-10-2020 19:00:00 16.05833 C 11.96 g/m*3 16.06 C 4.26667 km/h
1365 22-10-2020 20:00:00 15.66667 C 11.84 g/m*3 15.67 C 4.26667 km/h
1366 22-10-2020 21:00:00 15.60833 C 11.85 g/m*3 15.61 C 1.33333 km/h
1367 22-10-2020 22:00:00 15.6 C 11.97 g/m*3 15.6 C 1.2 km/h
1368 22-10-2020 23:00:00 15.6 C 12.04 g/m*3 15.6 C 0 km/h
1369 23-10-2020 00:00:00 15.38333 C 11.95 g/m*3 15.38 C 0 km/h
1370 23-10-2020 01:00:00 15.35833 C 11.98 g/m*3 15.36 C 0.13333 km/h
1371 23-10-2020 02:00:00 15.525 C 12.03 g/m*3 15.53 C 0.26667 km/h
1372 23-10-2020 03:00:00 15.6 C 12.1 g/m*3 15.6 C 0.53333 km/h
1373 23-10-2020 04:00:00 15.80833 C 12.03 g/m*3 15.81 C 2.26667 km/h
1374 23-10-2020 05:00:00 16.05833 C 12.03 g/m*3 16.06 C 2.00833 km/h
1375 23-10-2020 06:00:00 15.78333 C 11.89 g/m*3 15.78 C 0.66667 km/h
Sensor: Nr:Datum:Temp:Abs-Feuchte:Windchill:Wind:
Aussen-T/F 1376 23-10-2020 07:00:00 15.11667 C 11.84 g/m*3 15.12 C 0.8 km/h
1377 23-10-2020 08:00:00 14.76667 C 11.84 g/m*3 14.77 C 0 km/h
1378 23-10-2020 09:00:00 14.65 C 11.89 g/m*3 14.65 C 0 km/h
1379 23-10-2020 10:00:00 14.75833 C 12.02 g/m*3 14.76 C 0 km/h
1380 23-10-2020 11:00:00 15.25833 C 12.5 g/m*3 15.26 C 0 km/h
1381 23-10-2020 12:00:00 15.49167 C 12.67 g/m*3 15.49 C 0.66667 km/h
1382 23-10-2020 13:00:00 15.85 C 12.85 g/m*3 15.85 C 1.06667 km/h
1383 23-10-2020 14:00:00 16.23333 C 12.99 g/m*3 16.23 C 1.46667 km/h
1384 23-10-2020 15:00:00 16.58333 C 12.81 g/m*3 16.58 C 3.06667 km/h
1385 23-10-2020 16:00:00 16.55833 C 12.67 g/m*3 16.56 C 2.14167 km/h
1386 23-10-2020 17:00:00 15.79167 C 12.36 g/m*3 15.79 C 2.80833 km/h
1387 23-10-2020 18:00:00 15.09167 C 11.96 g/m*3 15.09 C 3.06667 km/h
1388 23-10-2020 19:00:00 14.19167 C 11.35 g/m*3 14.19 C 4.40833 km/h
1389 23-10-2020 20:00:00 13.38333 C 10.92 g/m*3 13.38 C 2.13333 km/h
1390 23-10-2020 21:00:00 12.83333 C 10.66 g/m*3 12.83 C 3.08333 km/h
1391 23-10-2020 22:00:00 13.175 C 10.96 g/m*3 13.18 C 3.21667 km/h
1392 23-10-2020 23:00:00 12.40833 C 10.44 g/m*3 12.41 C 3.89167 km/h
1393 24-10-2020 00:00:00 12.76667 C 10.7 g/m*3 12.77 C 8.06667 km/h
1394 24-10-2020 01:00:00 12.65833 C 10.52 g/m*3 12.66 C 6.96667 km/h
1395 24-10-2020 02:00:00 12.375 C 10.25 g/m*3 12.38 C 1.6 km/h
1396 24-10-2020 03:00:00 11.5 C 9.78 g/m*3 11.5 C 0.53333 km/h
1397 24-10-2020 04:00:00 11.04167 C 9.59 g/m*3 11.04 C 0 km/h
1398 24-10-2020 05:00:00 11.03333 C 9.63 g/m*3 11.03 C 1.06667 km/h
1399 24-10-2020 06:00:00 11.14167 C 9.7 g/m*3 11.14 C 1.33333 km/h
1400 24-10-2020 07:00:00 11.65833 C 10.12 g/m*3 11.66 C 2.28333 km/h
Sensor: Nr:Datum:Temp:Abs-Feuchte:Windchill:Wind:
Aussen-T/F 1401 24-10-2020 08:00:00 11.96667 C 10.2 g/m*3 11.97 C 9 km/h
1402 24-10-2020 09:00:00 13 C 10.14 g/m*3 13 C 18.64167 km/h
1403 24-10-2020 10:00:00 13.44167 C 9.98 g/m*3 13.44 C 14.9 km/h
1404 24-10-2020 11:00:00 13.36667 C 9.08 g/m*3 13.37 C 18.23333 km/h
1405 24-10-2020 12:00:00 14.45 C 9.54 g/m*3 14.45 C 10.075 km/h
1406 24-10-2020 13:00:00 15.28333 C 9.87 g/m*3 15.28 C 7.925 km/h
1407 24-10-2020 14:00:00 15.28333 C 10.03 g/m*3 15.28 C 7.23333 km/h
1408 24-10-2020 15:00:00 15.45833 C 10.15 g/m*3 15.46 C 6.56667 km/h
1409 24-10-2020 16:00:00 15.275 C 10.26 g/m*3 15.28 C 4.14167 km/h
1410 24-10-2020 17:00:00 15.025 C 10.32 g/m*3 15.03 C 2.94167 km/h
1411 24-10-2020 18:00:00 14.575 C 10.27 g/m*3 14.58 C 3.06667 km/h
1412 24-10-2020 19:00:00 14.26667 C 10.31 g/m*3 14.27 C 3.20833 km/h
1413 24-10-2020 20:00:00 14.26667 C 10.36 g/m*3 14.27 C 5.08333 km/h
1414 24-10-2020 21:00:00 14.10833 C 10.43 g/m*3 14.11 C 3.06667 km/h
1415 24-10-2020 22:00:00 13.94167 C 10.43 g/m*3 13.94 C 3.75 km/h
1416 24-10-2020 23:00:00 13.90833 C 10.4 g/m*3 13.91 C 3.88333 km/h
1417 25-10-2020 00:00:00 14.18333 C 10.4 g/m*3 14.18 C 4.54167 km/h
1418 25-10-2020 01:00:00 14.3 C 10.34 g/m*3 14.3 C 2.53333 km/h
1419 25-10-2020 02:00:00 14.43333 C 10.17 g/m*3 14.43 C 4.15 km/h
1420 25-10-2020 04:00:00 13.42174 C 9.68 g/m*3 13.42 C 4.19565 km/h
1421 25-10-2020 05:00:00 12.83077 C 9.47 g/m*3 12.83 C 2.09231 km/h
1422 25-10-2020 06:00:00 11.9 C 9.24 g/m*3 11.9 C 0.66667 km/h
1423 25-10-2020 07:00:00 11.76667 C 9.29 g/m*3 11.77 C 2.80833 km/h
1424 25-10-2020 08:00:00 13.05 C 9.43 g/m*3 13.05 C 2.66667 km/h
1425 25-10-2020 09:00:00 13.775 C 9.61 g/m*3 13.78 C 2.66667 km/h
Sensor: Nr:Datum:Temp:Abs-Feuchte:Windchill:Wind:
Aussen-T/F 1426 25-10-2020 10:00:00 14.6 C 9.69 g/m*3 14.6 C 4.13333 km/h
1427 25-10-2020 11:00:00 15.275 C 9.84 g/m*3 15.28 C 4.14167 km/h
1428 25-10-2020 12:00:00 15.55833 C 10.1 g/m*3 15.56 C 3.06667 km/h
1429 25-10-2020 13:00:00 15.95 C 10.32 g/m*3 15.95 C 5.49167 km/h
1430 25-10-2020 14:00:00 15.7 C 10.63 g/m*3 15.7 C 3.48333 km/h
1431 25-10-2020 15:00:00 14.025 C 10.84 g/m*3 14.03 C 0.4 km/h
1432 25-10-2020 16:00:00 13.275 C 10.67 g/m*3 13.28 C 1.2 km/h
1433 25-10-2020 17:00:00 12.40833 C 10.21 g/m*3 12.41 C 2.8 km/h
1434 25-10-2020 18:00:00 11.725 C 9.85 g/m*3 11.73 C 3.075 km/h
1435 25-10-2020 19:00:00 11.30833 C 9.59 g/m*3 11.31 C 3.35833 km/h
1436 25-10-2020 20:00:00 11.03333 C 9.5 g/m*3 11.03 C 2.66667 km/h
1437 25-10-2020 21:00:00 10.76667 C 9.37 g/m*3 10.77 C 0.93333 km/h
1438 25-10-2020 22:00:00 10.61667 C 9.32 g/m*3 10.62 C 0.53333 km/h
1439 25-10-2020 23:00:00 10.675 C 9.41 g/m*3 10.68 C 0.4 km/h
1440 26-10-2020 00:00:00 10.7 C 9.43 g/m*3 10.7 C 1.2 km/h
1441 26-10-2020 01:00:00 10.66667 C 9.41 g/m*3 10.67 C 0.26667 km/h
1442 26-10-2020 02:00:00 10.65833 C 9.34 g/m*3 10.66 C 1.33333 km/h
1443 26-10-2020 03:00:00 10.65833 C 9.31 g/m*3 10.66 C 0.8 km/h
1444 26-10-2020 04:00:00 10.63333 C 9.35 g/m*3 10.63 C 0.26667 km/h
1445 26-10-2020 05:00:00 10.675 C 9.41 g/m*3 10.68 C 0.53333 km/h
1446 26-10-2020 06:00:00 10.41667 C 9.26 g/m*3 10.42 C 0.93333 km/h
1447 26-10-2020 07:00:00 9.99167 C 9.02 g/m*3 9.99 C 4.55 km/h
1448 26-10-2020 08:00:00 9.8 C 8.89 g/m*3 9.8 C 4.40833 km/h
1449 26-10-2020 09:00:00 10.01667 C 8.82 g/m*3 10.02 C 4.29167 km/h
1450 26-10-2020 10:00:00 10.86667 C 8.76 g/m*3 10.15 C 7.39167 km/h
Sensor: Nr:Datum:Temp:Abs-Feuchte:Windchill:Wind:
Aussen-T/F 1451 26-10-2020 11:00:00 11.60833 C 8.7 g/m*3 11.61 C 6.98333 km/h
1452 26-10-2020 12:00:00 11.76667 C 8.42 g/m*3 11.77 C 9.94167 km/h
1453 26-10-2020 13:00:00 12.00833 C 8.16 g/m*3 12.01 C 9.28333 km/h
1454 26-10-2020 14:00:00 12.18333 C 7.96 g/m*3 12.18 C 7.4 km/h
1455 26-10-2020 15:00:00 12.23333 C 7.89 g/m*3 12.23 C 5.625 km/h
1456 26-10-2020 16:00:00 12.05 C 8.09 g/m*3 12.05 C 3.875 km/h
1457 26-10-2020 17:00:00 10.44167 C 7.9 g/m*3 10.44 C 2.4 km/h
1458 26-10-2020 18:00:00 8.625 C 7.45 g/m*3 8.63 C 4.13333 km/h
1459 26-10-2020 19:00:00 7.68333 C 7.29 g/m*3 7.68 C 2.26667 km/h
1460 26-10-2020 20:00:00 7.625 C 7.33 g/m*3 7.63 C 2 km/h
1461 26-10-2020 21:00:00 8.125 C 7.4 g/m*3 8.13 C 3.075 km/h
1462 26-10-2020 22:00:00 7.775 C 7.35 g/m*3 7.78 C 2 km/h
1463 26-10-2020 23:00:00 7.66667 C 7.38 g/m*3 7.67 C 2.54167 km/h
1464 27-10-2020 00:00:00 7.83333 C 7.48 g/m*3 7.83 C 4.01667 km/h
1465 27-10-2020 01:00:00 8.39167 C 7.73 g/m*3 8.39 C 2.40833 km/h
1466 27-10-2020 02:00:00 9.33333 C 7.87 g/m*3 9.33 C 3.46667 km/h
1467 27-10-2020 03:00:00 8.90833 C 7.8 g/m*3 8.91 C 3.475 km/h
1468 27-10-2020 04:00:00 8.84167 C 7.85 g/m*3 8.84 C 2.4 km/h
1469 27-10-2020 05:00:00 8.64167 C 7.83 g/m*3 8.64 C 2.4 km/h
1470 27-10-2020 06:00:00 7.81667 C 7.51 g/m*3 7.82 C 2.13333 km/h
1471 27-10-2020 07:00:00 7.75 C 7.61 g/m*3 7.75 C 1.06667 km/h
1472 27-10-2020 08:00:00 9.04167 C 8.2 g/m*3 9.04 C 1.6 km/h
1473 27-10-2020 09:00:00 10.38333 C 8.42 g/m*3 10.38 C 2.26667 km/h
1474 27-10-2020 10:00:00 11.39167 C 8.56 g/m*3 11.39 C 9.00833 km/h
1475 27-10-2020 11:00:00 11.89167 C 8.49 g/m*3 11.89 C 11.675 km/h
Sensor: Nr:Datum:Temp:Abs-Feuchte:Windchill:Wind:
Aussen-T/F 1476 27-10-2020 12:00:00 12.25 C 8.36 g/m*3 12.25 C 13.15833 km/h
1477 27-10-2020 13:00:00 12.625 C 8.29 g/m*3 12.63 C 11.7 km/h
1478 27-10-2020 14:00:00 12.85833 C 8.16 g/m*3 12.86 C 9.675 km/h
1479 27-10-2020 15:00:00 12.675 C 7.85 g/m*3 12.68 C 9.15 km/h
1480 27-10-2020 16:00:00 12.21667 C 7.85 g/m*3 12.22 C 5.49167 km/h
1481 27-10-2020 17:00:00 11.21667 C 7.86 g/m*3 11.22 C 1.6 km/h
1482 27-10-2020 18:00:00 10.66667 C 7.78 g/m*3 10.67 C 2.675 km/h
1483 27-10-2020 19:00:00 11.25833 C 7.78 g/m*3 11.26 C 5.625 km/h
1484 27-10-2020 20:00:00 11.3 C 7.91 g/m*3 11.3 C 5.36667 km/h
1485 27-10-2020 21:00:00 11.05 C 8.07 g/m*3 11.05 C 2.4 km/h
1486 27-10-2020 22:00:00 11.05833 C 8.23 g/m*3 11.06 C 1.46667 km/h
1487 27-10-2020 23:00:00 11.28333 C 8.48 g/m*3 11.28 C 1.6 km/h
1488 28-10-2020 00:00:00 11.61667 C 8.74 g/m*3 11.62 C 3.06667 km/h
1489 28-10-2020 01:00:00 11.7 C 8.91 g/m*3 11.7 C 2.66667 km/h
1490 28-10-2020 02:00:00 11.81667 C 9.11 g/m*3 11.82 C 2.4 km/h
1491 28-10-2020 03:00:00 11.84167 C 9.34 g/m*3 11.84 C 0.53333 km/h
1492 28-10-2020 04:00:00 11.75833 C 9.5 g/m*3 11.76 C 0.53333 km/h
1493 28-10-2020 05:00:00 11.7 C 9.71 g/m*3 11.7 C 0 km/h
1494 28-10-2020 06:00:00 11.51667 C 9.72 g/m*3 11.52 C 0.8 km/h
1495 28-10-2020 07:00:00 11.26667 C 9.63 g/m*3 11.27 C 1.33333 km/h
1496 28-10-2020 08:00:00 11.51667 C 9.87 g/m*3 11.52 C 0.26667 km/h
1497 28-10-2020 09:00:00 12.30833 C 10.39 g/m*3 12.31 C 0.26667 km/h
1498 28-10-2020 10:00:00 12.64167 C 10.47 g/m*3 12.64 C 2.8 km/h
1499 28-10-2020 11:00:00 13.325 C 10.63 g/m*3 13.33 C 8.18333 km/h
1500 28-10-2020 12:00:00 14.25833 C 10.08 g/m*3 14.26 C 12.76667 km/h
Sensor: Nr:Datum:Temp:Abs-Feuchte:Windchill:Wind:
Aussen-T/F 1501 28-10-2020 13:00:00 14.11667 C 8.96 g/m*3 14.12 C 17.03333 km/h
1502 28-10-2020 14:00:00 13.99167 C 8.57 g/m*3 13.99 C 16.76667 km/h
1503 28-10-2020 15:00:00 13.50833 C 8.34 g/m*3 13.51 C 11.41667 km/h
1504 28-10-2020 16:00:00 13.43333 C 8.48 g/m*3 13.43 C 11.55 km/h
1505 28-10-2020 17:00:00 12.94167 C 8.48 g/m*3 12.94 C 6.56667 km/h
1506 28-10-2020 18:00:00 12.61667 C 8.44 g/m*3 12.62 C 5.61667 km/h
1507 28-10-2020 19:00:00 12.65 C 8.42 g/m*3 12.65 C 7.10833 km/h
1508 28-10-2020 20:00:00 13.08333 C 8.54 g/m*3 13.08 C 10.60833 km/h
1509 28-10-2020 21:00:00 12.94167 C 8.7 g/m*3 12.94 C 8.05833 km/h
1510 28-10-2020 22:00:00 12.825 C 8.91 g/m*3 12.83 C 8.70833 km/h
1511 28-10-2020 23:00:00 12.99167 C 9.11 g/m*3 12.99 C 17.44167 km/h
1512 29-10-2020 00:00:00 12.46667 C 9.24 g/m*3 12.47 C 15.03333 km/h
1513 29-10-2020 01:00:00 10.63333 C 8.8 g/m*3 8.92 C 13.15 km/h
1514 29-10-2020 02:00:00 9.80833 C 8.58 g/m*3 9.07 C 6.71667 km/h
1515 29-10-2020 03:00:00 10.175 C 8.84 g/m*3 8.97 C 9.275 km/h
1516 29-10-2020 04:00:00 10.05833 C 8.72 g/m*3 8.9 C 8.86667 km/h
1517 29-10-2020 05:00:00 9.88333 C 8.57 g/m*3 8.5 C 9.94167 km/h
1518 29-10-2020 06:00:00 9.95833 C 8.4 g/m*3 8.61 C 9.80833 km/h
1519 29-10-2020 07:00:00 9.24167 C 7.92 g/m*3 8.48 C 6.43333 km/h
1520 29-10-2020 08:00:00 9.05833 C 7.89 g/m*3 8.04 C 7.375 km/h
1521 29-10-2020 09:00:00 9.75833 C 8.11 g/m*3 9.15 C 6.16667 km/h
1522 29-10-2020 10:00:00 11.16667 C 8.62 g/m*3 11.17 C 6.175 km/h
1523 29-10-2020 11:00:00 11.58333 C 8.77 g/m*3 11.58 C 6.96667 km/h
1524 29-10-2020 12:00:00 10.7 C 8.87 g/m*3 10.27 C 6.01667 km/h
1525 29-10-2020 13:00:00 10.94167 C 9.31 g/m*3 10.94 C 3.475 km/h
Sensor: Nr:Datum:Temp:Abs-Feuchte:Windchill:Wind:
Aussen-T/F 1526 29-10-2020 14:00:00 11.61667 C 9.76 g/m*3 11.62 C 5.61667 km/h
1527 29-10-2020 15:00:00 11.33333 C 9.64 g/m*3 11.33 C 4.94167 km/h
1528 29-10-2020 16:00:00 11.15 C 9.57 g/m*3 11.15 C 6.575 km/h
1529 29-10-2020 17:00:00 10.76667 C 9.37 g/m*3 10.77 C 4.55 km/h
1530 29-10-2020 18:00:00 10.59167 C 9.27 g/m*3 10.59 C 0.66667 km/h
1531 29-10-2020 19:00:00 10.475 C 9.29 g/m*3 10.48 C 0.13333 km/h
1532 29-10-2020 20:00:00 10.64167 C 9.39 g/m*3 10.64 C 4.7 km/h
1533 29-10-2020 21:00:00 10.88333 C 9.54 g/m*3 10.32 C 6.70833 km/h
1534 29-10-2020 22:00:00 11.225 C 9.75 g/m*3 11.23 C 7.10833 km/h
1535 29-10-2020 23:00:00 11.56667 C 9.96 g/m*3 11.57 C 5.90833 km/h
1536 30-10-2020 00:00:00 11.89167 C 10.16 g/m*3 11.89 C 4.81667 km/h
1537 30-10-2020 01:00:00 12.16667 C 10.34 g/m*3 12.17 C 5.35 km/h
1538 30-10-2020 02:00:00 12.39167 C 10.5 g/m*3 12.39 C 5.63333 km/h
1539 30-10-2020 03:00:00 12.75 C 10.68 g/m*3 12.75 C 7.375 km/h
1540 30-10-2020 04:00:00 12.74167 C 10.63 g/m*3 12.74 C 3.48333 km/h
1541 30-10-2020 05:00:00 12.68333 C 10.65 g/m*3 12.68 C 4.14167 km/h
1542 30-10-2020 06:00:00 12.9 C 10.71 g/m*3 12.9 C 3.74167 km/h
1543 30-10-2020 07:00:00 13.10833 C 10.67 g/m*3 13.11 C 7.11667 km/h
1544 30-10-2020 08:00:00 13.3 C 10.71 g/m*3 13.3 C 4.83333 km/h
1545 30-10-2020 09:00:00 13.79167 C 10.86 g/m*3 13.79 C 9.01667 km/h
1546 30-10-2020 10:00:00 14.525 C 11.09 g/m*3 14.53 C 13.03333 km/h
1547 30-10-2020 11:00:00 15.03333 C 11.21 g/m*3 15.03 C 16.23333 km/h
1548 30-10-2020 12:00:00 15.14167 C 11.25 g/m*3 15.14 C 13.3 km/h
1549 30-10-2020 13:00:00 15.33333 C 11.34 g/m*3 15.33 C 13.03333 km/h
1550 30-10-2020 14:00:00 15.30833 C 11.28 g/m*3 15.31 C 6.43333 km/h
Sensor: Nr:Datum:Temp:Abs-Feuchte:Windchill:Wind:
Aussen-T/F 1551 30-10-2020 15:00:00 15.35833 C 11.15 g/m*3 15.36 C 9 km/h
1552 30-10-2020 16:00:00 14.94167 C 11.04 g/m*3 14.94 C 8.05833 km/h
1553 30-10-2020 17:00:00 14.29167 C 11.01 g/m*3 14.29 C 5.21667 km/h
1554 30-10-2020 18:00:00 13.98333 C 10.97 g/m*3 13.98 C 2 km/h
1555 30-10-2020 19:00:00 14.05833 C 10.83 g/m*3 14.06 C 5.76667 km/h
1556 30-10-2020 20:00:00 14.26667 C 10.72 g/m*3 14.27 C 10.625 km/h
1557 30-10-2020 21:00:00 14.175 C 10.65 g/m*3 14.18 C 9.95833 km/h
1558 30-10-2020 22:00:00 13.76667 C 10.42 g/m*3 13.77 C 9.68333 km/h
1559 30-10-2020 23:00:00 13.69167 C 10.34 g/m*3 13.69 C 10.21667 km/h
1560 31-10-2020 00:00:00 13.70833 C 10.2 g/m*3 13.71 C 9.69167 km/h
1561 31-10-2020 01:00:00 13.625 C 10.22 g/m*3 13.63 C 6.69167 km/h
1562 31-10-2020 02:00:00 13.58333 C 10.17 g/m*3 13.58 C 6.03333 km/h
1563 31-10-2020 03:00:00 13.43333 C 10.13 g/m*3 13.43 C 1.6 km/h
1564 31-10-2020 04:00:00 12.75833 C 10.03 g/m*3 12.76 C 0.13333 km/h
1565 31-10-2020 05:00:00 12.375 C 9.95 g/m*3 12.38 C 0 km/h
1566 31-10-2020 06:00:00 12.15833 C 9.9 g/m*3 12.16 C 0 km/h
1567 31-10-2020 07:00:00 12.04167 C 9.88 g/m*3 12.04 C 0 km/h
1568 31-10-2020 08:00:00 12.31667 C 10.08 g/m*3 12.32 C 0.4 km/h
1569 31-10-2020 09:00:00 13.25833 C 9.79 g/m*3 13.26 C 3.075 km/h
1570 31-10-2020 10:00:00 13.79167 C 9.48 g/m*3 13.79 C 4.69167 km/h
1571 31-10-2020 11:00:00 13.66667 C 9.66 g/m*3 13.67 C 3.60833 km/h
1572 31-10-2020 12:00:00 14.28333 C 9.8 g/m*3 14.28 C 5.61667 km/h
1573 31-10-2020 13:00:00 15.39167 C 10.01 g/m*3 15.39 C 4.68333 km/h
1574 31-10-2020 14:00:00 15.73333 C 10.32 g/m*3 15.73 C 4.54167 km/h
1575 31-10-2020 15:00:00 14.64167 C 10.29 g/m*3 14.64 C 4.675 km/h
Sensor: Nr:Datum:Temp:Abs-Feuchte:Windchill:Wind:
Aussen-T/F 1576 31-10-2020 16:00:00 13.46667 C 10.08 g/m*3 13.47 C 4.40833 km/h
1577 31-10-2020 17:00:00 12.26667 C 9.59 g/m*3 12.27 C 4.93333 km/h
1578 31-10-2020 18:00:00 11.28333 C 9.3 g/m*3 11.28 C 4.26667 km/h
1579 31-10-2020 19:00:00 11.4 C 9.44 g/m*3 11.4 C 3.2 km/h
1580 31-10-2020 20:00:00 11.98333 C 9.71 g/m*3 11.98 C 1.6 km/h
1581 31-10-2020 21:00:00 12.51667 C 9.96 g/m*3 12.52 C 1.2 km/h
1582 31-10-2020 22:00:00 12.7 C 10.34 g/m*3 12.7 C 1.73333 km/h
1583 31-10-2020 23:00:00 13.05833 C 10.72 g/m*3 13.06 C 6.025 km/h
1584 01-11-2020 00:00:00 13.1 C 10.84 g/m*3 13.1 C 2.26667 km/h
1585 01-11-2020 01:00:00 13.13333 C 10.91 g/m*3 13.13 C 0.93333 km/h
1586 01-11-2020 02:00:00 13.175 C 11.01 g/m*3 13.18 C 1.2 km/h
1587 01-11-2020 03:00:00 13.1 C 10.95 g/m*3 13.1 C 0 km/h
1588 01-11-2020 04:00:00 13.04167 C 10.92 g/m*3 13.04 C 0 km/h
1589 01-11-2020 05:00:00 12.76667 C 10.73 g/m*3 12.77 C 0 km/h
1590 01-11-2020 06:00:00 12.51667 C 10.61 g/m*3 12.52 C 0 km/h
1591 01-11-2020 07:00:00 12.55 C 10.69 g/m*3 12.55 C 0 km/h
1592 01-11-2020 08:00:00 13.10833 C 11.07 g/m*3 13.11 C 0 km/h
1593 01-11-2020 09:00:00 13.875 C 11.62 g/m*3 13.88 C 2.275 km/h
1594 01-11-2020 10:00:00 15.05 C 12.19 g/m*3 15.05 C 10.75833 km/h
1595 01-11-2020 11:00:00 16.35 C 12.38 g/m*3 16.35 C 4.55833 km/h
1596 01-11-2020 12:00:00 16.775 C 12.44 g/m*3 16.77 C 3.48333 km/h
1597 01-11-2020 13:00:00 16.94167 C 12.6 g/m*3 16.94 C 8.6 km/h
1598 01-11-2020 14:00:00 16.83333 C 12.68 g/m*3 16.83 C 12.23333 km/h
1599 01-11-2020 15:00:00 16.71667 C 12.48 g/m*3 16.72 C 16.76667 km/h
1600 01-11-2020 16:00:00 16.74167 C 12.48 g/m*3 16.74 C 14.36667 km/h
Sensor: Nr:Datum:Temp:Abs-Feuchte:Windchill:Wind:
Aussen-T/F 1601 01-11-2020 17:00:00 16.6 C 12.51 g/m*3 16.6 C 10.49167 km/h
1602 01-11-2020 18:00:00 16.71667 C 12.6 g/m*3 16.72 C 9.00833 km/h
1603 01-11-2020 19:00:00 16.86667 C 12.63 g/m*3 16.87 C 11.025 km/h
1604 01-11-2020 20:00:00 16.975 C 12.71 g/m*3 16.98 C 12.48333 km/h
1605 01-11-2020 21:00:00 17.125 C 12.77 g/m*3 17.13 C 12.89167 km/h
1606 01-11-2020 22:00:00 17.175 C 12.86 g/m*3 17.18 C 8.06667 km/h
1607 01-11-2020 23:00:00 17.25833 C 12.93 g/m*3 17.26 C 4.68333 km/h
1608 02-11-2020 00:00:00 17.56667 C 13.16 g/m*3 17.57 C 7.65833 km/h
1609 02-11-2020 01:00:00 17.90833 C 13.35 g/m*3 17.91 C 13.15833 km/h
1610 02-11-2020 02:00:00 18.19167 C 13.45 g/m*3 18.19 C 14.76667 km/h
1611 02-11-2020 03:00:00 18.575 C 13.36 g/m*3 18.58 C 13.16667 km/h
1612 02-11-2020 04:00:00 18.7 C 13.42 g/m*3 18.7 C 9.95 km/h
1613 02-11-2020 05:00:00 18.38333 C 13.6 g/m*3 18.38 C 10.89167 km/h
1614 02-11-2020 06:00:00 18.60833 C 13.46 g/m*3 18.61 C 14.23333 km/h
1615 02-11-2020 07:00:00 19.01667 C 13.25 g/m*3 19.02 C 18.90833 km/h
1616 02-11-2020 08:00:00 19.21667 C 13.14 g/m*3 19.22 C 20.24167 km/h
1617 02-11-2020 09:00:00 19.46667 C 13.05 g/m*3 19.47 C 21.04167 km/h
1618 02-11-2020 10:00:00 19.35 C 13.06 g/m*3 19.35 C 14.5 km/h
1619 02-11-2020 11:00:00 19.59167 C 13.02 g/m*3 19.59 C 11.83333 km/h
1620 02-11-2020 12:00:00 20.23333 C 13.05 g/m*3 20.23 C 13.7 km/h
1621 02-11-2020 13:00:00 20.46667 C 12.93 g/m*3 20.47 C 14.9 km/h
1622 02-11-2020 14:00:00 20.7 C 12.89 g/m*3 20.7 C 15.96667 km/h
1623 02-11-2020 15:00:00 20.93333 C 12.86 g/m*3 20.93 C 15.96667 km/h
1624 02-11-2020 16:00:00 20.69167 C 12.7 g/m*3 20.69 C 17.43333 km/h
1625 02-11-2020 17:00:00 19.75 C 12.69 g/m*3 19.75 C 12.48333 km/h
Sensor: Nr:Datum:Temp:Abs-Feuchte:Windchill:Wind:
Aussen-T/F 1626 02-11-2020 18:00:00 19.625 C 12.82 g/m*3 19.63 C 12.35 km/h
1627 02-11-2020 19:00:00 19.70833 C 12.91 g/m*3 19.71 C 16.91667 km/h
1628 02-11-2020 20:00:00 18.83333 C 12.8 g/m*3 18.83 C 13.55833 km/h
1629 02-11-2020 21:00:00 14.275 C 11.17 g/m*3 14.28 C 4.56667 km/h
1630 02-11-2020 22:00:00 13.01667 C 10.49 g/m*3 13.02 C 5.9 km/h
1631 02-11-2020 23:00:00 11.94167 C 9.89 g/m*3 11.94 C 4.80833 km/h
1632 03-11-2020 00:00:00 11.48333 C 9.53 g/m*3 11.48 C 6.43333 km/h
1633 03-11-2020 01:00:00 11.38333 C 8.97 g/m*3 11.38 C 6.56667 km/h
1634 03-11-2020 02:00:00 11.275 C 8.83 g/m*3 11.28 C 4.68333 km/h
1635 03-11-2020 03:00:00 11.48333 C 8.75 g/m*3 11.48 C 6.30833 km/h
1636 03-11-2020 04:00:00 11.31667 C 8.71 g/m*3 11.32 C 6.15833 km/h
1637 03-11-2020 05:00:00 11 C 8.59 g/m*3 11 C 3.475 km/h
1638 03-11-2020 06:00:00 10.71667 C 8.41 g/m*3 10.72 C 3.46667 km/h
1639 03-11-2020 07:00:00 10.24167 C 8.25 g/m*3 9.74 C 6.025 km/h
1640 03-11-2020 08:00:00 9.46667 C 8.1 g/m*3 9.47 C 2.8 km/h
1641 03-11-2020 09:00:00 9.13333 C 8.14 g/m*3 9.13 C 2.26667 km/h
1642 03-11-2020 10:00:00 9.56667 C 8.38 g/m*3 9.57 C 4.68333 km/h
1643 03-11-2020 11:00:00 11.00833 C 8.55 g/m*3 11.01 C 8.19167 km/h
1644 03-11-2020 12:00:00 12.09167 C 8.54 g/m*3 12.09 C 11.16667 km/h
1645 03-11-2020 13:00:00 12.61667 C 8.42 g/m*3 12.62 C 8.74167 km/h
1646 03-11-2020 14:00:00 12.65833 C 8.18 g/m*3 12.66 C 6.71667 km/h
1647 03-11-2020 15:00:00 12.78333 C 8.08 g/m*3 12.78 C 8.73333 km/h
1648 03-11-2020 16:00:00 12.33333 C 7.95 g/m*3 12.33 C 4.01667 km/h
1649 03-11-2020 17:00:00 11.59167 C 8.12 g/m*3 11.59 C 4.14167 km/h
1650 03-11-2020 18:00:00 10.71667 C 8.47 g/m*3 10.33 C 5.88333 km/h
Sensor: Nr:Datum:Temp:Abs-Feuchte:Windchill:Wind:
Aussen-T/F 1651 03-11-2020 19:00:00 9.01667 C 8 g/m*3 9.02 C 4.7 km/h
1652 03-11-2020 20:00:00 7.69167 C 7.5 g/m*3 7.69 C 2.53333 km/h
1653 03-11-2020 21:00:00 6.85 C 7.19 g/m*3 6.85 C 2.66667 km/h
1654 03-11-2020 22:00:00 6.24167 C 6.95 g/m*3 6.24 C 2.26667 km/h
1655 03-11-2020 23:00:00 5.875 C 6.84 g/m*3 5.88 C 1.06667 km/h
1656 04-11-2020 00:00:00 5.08333 C 6.49 g/m*3 5.08 C 1.46667 km/h
1657 04-11-2020 01:00:00 5.03333 C 6.5 g/m*3 5.03 C 1.46667 km/h
1658 04-11-2020 02:00:00 4.99167 C 6.48 g/m*3 4.99 C 2.4 km/h
1659 04-11-2020 03:00:00 4.325 C 6.2 g/m*3 4.33 C 1.33333 km/h
1660 04-11-2020 04:00:00 3.74167 C 5.98 g/m*3 3.74 C 0.26667 km/h
1661 04-11-2020 05:00:00 3.14167 C 5.75 g/m*3 3.14 C 0.4 km/h
1662 04-11-2020 06:00:00 2.8 C 5.63 g/m*3 2.8 C 1.2 km/h
1663 04-11-2020 07:00:00 2.54167 C 5.53 g/m*3 2.54 C 0 km/h
1664 04-11-2020 08:00:00 2.50833 C 5.53 g/m*3 2.51 C 0 km/h
1665 04-11-2020 09:00:00 3.13333 C 5.79 g/m*3 3.13 C 0 km/h
1666 04-11-2020 10:00:00 3.525 C 5.95 g/m*3 3.53 C 0 km/h
1667 04-11-2020 11:00:00 4.80833 C 6.51 g/m*3 4.81 C 0 km/h
1668 04-11-2020 12:00:00 5.91667 C 7 g/m*3 5.92 C 0.4 km/h
1669 04-11-2020 13:00:00 6.68333 C 7.36 g/m*3 6.68 C 3.33333 km/h
1670 04-11-2020 14:00:00 7.64167 C 7.82 g/m*3 7.64 C 1.86667 km/h
1671 04-11-2020 15:00:00 8.16667 C 7.8 g/m*3 8.17 C 2.4 km/h
1672 04-11-2020 16:00:00 7.58333 C 7.37 g/m*3 7.58 C 3.33333 km/h
1673 04-11-2020 17:00:00 6.375 C 6.83 g/m*3 6.38 C 0.66667 km/h
1674 04-11-2020 18:00:00 5.28333 C 6.41 g/m*3 5.28 C 0.26667 km/h
1675 04-11-2020 19:00:00 4.45 C 6.14 g/m*3 4.45 C 0 km/h
Sensor: Nr:Datum:Temp:Abs-Feuchte:Windchill:Wind:
Aussen-T/F 1676 04-11-2020 20:00:00 3.575 C 5.82 g/m*3 3.58 C 0 km/h
1677 04-11-2020 21:00:00 3.04167 C 5.66 g/m*3 3.04 C 0 km/h
1678 04-11-2020 22:00:00 2.56667 C 5.49 g/m*3 2.57 C 0 km/h
1679 04-11-2020 23:00:00 2.15 C 5.36 g/m*3 2.15 C 0 km/h
1680 05-11-2020 00:00:00 1.775 C 5.24 g/m*3 1.78 C 0 km/h
1681 05-11-2020 01:00:00 1.75833 C 5.25 g/m*3 1.76 C 0.53333 km/h
1682 05-11-2020 02:00:00 2.2 C 5.41 g/m*3 2.2 C 0.4 km/h
1683 05-11-2020 03:00:00 2.10833 C 5.37 g/m*3 2.11 C 0.26667 km/h
1684 05-11-2020 04:00:00 2.09167 C 5.4 g/m*3 2.09 C 0 km/h
1685 05-11-2020 05:00:00 2.24167 C 5.48 g/m*3 2.24 C 0 km/h
1686 05-11-2020 06:00:00 2.3 C 5.5 g/m*3 2.3 C 0 km/h
1687 05-11-2020 07:00:00 2.38 C 5.53 g/m*3 2.38 C 0.48 km/h
1688 05-11-2020 12:00:00 3.76 C 6.07 g/m*3 3.76 C 3.36 km/h
1689 05-11-2020 13:00:00 4.19167 C 6.25 g/m*3 4.19 C 2.66667 km/h
1690 05-11-2020 14:00:00 4.2 C 6.25 g/m*3 4.2 C 2.93333 km/h
1691 05-11-2020 15:00:00 4.43333 C 6.37 g/m*3 4.43 C 2 km/h
1692 05-11-2020 16:00:00 4.39167 C 6.33 g/m*3 4.39 C 0 km/h
1693 05-11-2020 17:00:00 4.18333 C 6.24 g/m*3 4.18 C 0.4 km/h
1694 05-11-2020 18:00:00 3.79167 C 6.08 g/m*3 3.79 C 0.4 km/h
1695 05-11-2020 19:00:00 3.39167 C 5.92 g/m*3 3.39 C 0 km/h
1696 05-11-2020 20:00:00 3.325 C 5.89 g/m*3 3.33 C 0 km/h
1697 05-11-2020 21:00:00 3.26667 C 5.87 g/m*3 3.27 C 0.93333 km/h
1698 05-11-2020 22:00:00 3.23333 C 5.87 g/m*3 3.23 C 0 km/h
1699 05-11-2020 23:00:00 3.31667 C 5.9 g/m*3 3.32 C 0.8 km/h
1700 06-11-2020 00:00:00 3.075 C 5.8 g/m*3 3.08 C 0.66667 km/h
Sensor: Nr:Datum:Temp:Abs-Feuchte:Windchill:Wind:
Aussen-T/F 1701 06-11-2020 01:00:00 2.675 C 5.65 g/m*3 2.68 C 1.6 km/h
1702 06-11-2020 02:00:00 2.56667 C 5.63 g/m*3 2.57 C 1.46667 km/h
1703 06-11-2020 03:00:00 2.65833 C 5.64 g/m*3 2.66 C 0.53333 km/h
1704 06-11-2020 04:00:00 2.5 C 5.62 g/m*3 2.5 C 0.8 km/h
1705 06-11-2020 05:00:00 2.48333 C 5.59 g/m*3 2.48 C 0.66667 km/h
1706 06-11-2020 06:00:00 2.61667 C 5.66 g/m*3 2.62 C 0.26667 km/h
1707 06-11-2020 07:00:00 2.54167 C 5.65 g/m*3 2.54 C 0.4 km/h
1708 06-11-2020 08:00:00 2.54167 C 5.65 g/m*3 2.54 C 0.26667 km/h
1709 06-11-2020 09:00:00 3.03333 C 5.84 g/m*3 3.03 C 0 km/h
1710 06-11-2020 10:00:00 3.61667 C 6.07 g/m*3 3.62 C 0.53333 km/h
1711 06-11-2020 11:00:00 4.11667 C 6.28 g/m*3 4.12 C 1.46667 km/h
1712 06-11-2020 12:00:00 4.35 C 6.38 g/m*3 4.35 C 1.6 km/h
1713 06-11-2020 13:00:00 5.11667 C 6.71 g/m*3 5.12 C 1.73333 km/h
1714 06-11-2020 14:00:00 6.00833 C 7.12 g/m*3 6.01 C 3.86667 km/h
1715 06-11-2020 15:00:00 6.35 C 7.28 g/m*3 6.35 C 3.73333 km/h
1716 06-11-2020 16:00:00 5.65 C 6.95 g/m*3 5.65 C 3.6 km/h
1717 06-11-2020 17:00:00 4.5 C 6.39 g/m*3 4.5 C 4.13333 km/h
1718 06-11-2020 18:00:00 3.39167 C 5.91 g/m*3 3.39 C 1.06667 km/h
1719 06-11-2020 19:00:00 2.425 C 5.49 g/m*3 2.42 C 0 km/h
1720 06-11-2020 20:00:00 1.875 C 5.29 g/m*3 1.88 C 0 km/h
1721 06-11-2020 21:00:00 1.45833 C 5.14 g/m*3 1.46 C 0 km/h
1722 06-11-2020 22:00:00 1.24167 C 5.07 g/m*3 1.24 C 0 km/h
1723 06-11-2020 23:00:00 0.89167 C 4.95 g/m*3 0.89 C 0 km/h
1724 07-11-2020 00:00:00 0.79167 C 4.91 g/m*3 0.79 C 0 km/h
1725 07-11-2020 01:00:00 0.64167 C 4.89 g/m*3 0.64 C 0 km/h
Sensor: Nr:Datum:Temp:Abs-Feuchte:Windchill:Wind:
Aussen-T/F 1726 07-11-2020 02:00:00 0.50833 C 4.85 g/m*3 0.51 C 0 km/h
1727 07-11-2020 03:00:00 0.39167 C 4.83 g/m*3 0.39 C 0 km/h
1728 07-11-2020 04:00:00 0.36667 C 4.82 g/m*3 0.37 C 0 km/h
1729 07-11-2020 05:00:00 0.3 C 4.8 g/m*3 0.3 C 0 km/h
1730 07-11-2020 06:00:00 0.3 C 4.8 g/m*3 0.3 C 0 km/h
1731 07-11-2020 07:00:00 0.30833 C 4.8 g/m*3 0.31 C 0 km/h
1732 07-11-2020 08:00:00 0.71667 C 4.94 g/m*3 0.72 C 0 km/h
1733 07-11-2020 09:00:00 1.48 C 5.2 g/m*3 1.48 C 0 km/h
1734 07-11-2020 10:00:00 2.775 C 5.72 g/m*3 2.78 C 0.26667 km/h
1735 07-11-2020 11:00:00 4.875 C 6.6 g/m*3 4.88 C 1.6 km/h
1736 07-11-2020 12:00:00 6.59167 C 7.39 g/m*3 6.59 C 3.73333 km/h
1737 07-11-2020 13:00:00 7.81667 C 8.01 g/m*3 7.82 C 3.6 km/h
1738 07-11-2020 14:00:00 8.89167 C 8.58 g/m*3 8.89 C 4.8 km/h
1739 07-11-2020 15:00:00 9.68333 C 8.87 g/m*3 9.68 C 4 km/h
1740 07-11-2020 16:00:00 9.475 C 8.41 g/m*3 9.48 C 2.13333 km/h
1741 07-11-2020 17:00:00 8.09167 C 7.62 g/m*3 8.09 C 2.13333 km/h
1742 07-11-2020 18:00:00 7.41667 C 7.4 g/m*3 7.42 C 4.13333 km/h
1743 07-11-2020 19:00:00 6.80833 C 7.12 g/m*3 6.81 C 1.6 km/h
1744 07-11-2020 20:00:00 6.3 C 6.91 g/m*3 6.3 C 0 km/h
1745 07-11-2020 21:00:00 5.6 C 6.65 g/m*3 5.6 C 0 km/h
1746 07-11-2020 22:00:00 4.925 C 6.39 g/m*3 4.93 C 0 km/h
1747 07-11-2020 23:00:00 4.225 C 6.13 g/m*3 4.22 C 0 km/h
1748 08-11-2020 00:00:00 3.95 C 6.07 g/m*3 3.95 C 0 km/h
1749 08-11-2020 01:00:00 3.45833 C 5.88 g/m*3 3.46 C 0 km/h
1750 08-11-2020 02:00:00 3.20833 C 5.79 g/m*3 3.21 C 0 km/h
Sensor: Nr:Datum:Temp:Abs-Feuchte:Windchill:Wind:
Aussen-T/F 1751 08-11-2020 03:00:00 2.84167 C 5.65 g/m*3 2.84 C 0 km/h
1752 08-11-2020 04:00:00 2.625 C 5.57 g/m*3 2.63 C 0 km/h
1753 08-11-2020 05:00:00 2.59167 C 5.59 g/m*3 2.59 C 0 km/h
1754 08-11-2020 06:00:00 2.51667 C 5.56 g/m*3 2.52 C 0 km/h
1755 08-11-2020 07:00:00 2.425 C 5.55 g/m*3 2.42 C 0 km/h
1756 08-11-2020 08:00:00 2.775 C 5.68 g/m*3 2.78 C 0 km/h
1757 08-11-2020 09:00:00 3.93333 C 6.15 g/m*3 3.93 C 0 km/h
1758 08-11-2020 10:00:00 5.31667 C 6.79 g/m*3 5.32 C 0 km/h
1759 08-11-2020 11:00:00 7.00833 C 7.59 g/m*3 7.01 C 0 km/h
1760 08-11-2020 12:00:00 8.80833 C 8.46 g/m*3 8.81 C 0 km/h
1761 08-11-2020 13:00:00 10.29167 C 9.07 g/m*3 10.29 C 0 km/h
1762 08-11-2020 14:00:00 11.88333 C 9.5 g/m*3 11.88 C 0 km/h
1763 08-11-2020 15:00:00 12.73333 C 9.76 g/m*3 12.73 C 0 km/h
1764 08-11-2020 16:00:00 12.11667 C 9.5 g/m*3 12.12 C 0 km/h
1765 08-11-2020 17:00:00 11.05 C 9.15 g/m*3 11.05 C 0 km/h
1766 08-11-2020 18:00:00 10.68333 C 9.11 g/m*3 10.68 C 0 km/h
1767 08-11-2020 19:00:00 10.56667 C 9.16 g/m*3 10.57 C 0 km/h
1768 08-11-2020 20:00:00 10.25 C 9.05 g/m*3 10.25 C 0 km/h
1769 08-11-2020 21:00:00 9.975 C 8.91 g/m*3 9.98 C 0 km/h
1770 08-11-2020 22:00:00 9.61667 C 8.71 g/m*3 9.62 C 0 km/h
1771 08-11-2020 23:00:00 9.40833 C 8.61 g/m*3 9.41 C 0 km/h
1772 09-11-2020 00:00:00 9.45 C 8.71 g/m*3 9.45 C 0 km/h
1773 09-11-2020 01:00:00 9.4 C 8.68 g/m*3 9.4 C 0 km/h
1774 09-11-2020 02:00:00 9.35833 C 8.66 g/m*3 9.36 C 0 km/h
1775 09-11-2020 03:00:00 9.325 C 8.65 g/m*3 9.32 C 1.34167 km/h
Sensor: Nr:Datum:Temp:Abs-Feuchte:Windchill:Wind:
Aussen-T/F 1776 09-11-2020 04:00:00 9.19167 C 8.61 g/m*3 9.19 C 0 km/h
1777 09-11-2020 05:00:00 8.425 C 8.19 g/m*3 8.43 C 0 km/h
1778 09-11-2020 06:00:00 8.3 C 8.15 g/m*3 8.3 C 0 km/h
1779 09-11-2020 07:00:00 8.075 C 8.05 g/m*3 8.07 C 0 km/h
1780 09-11-2020 08:00:00 8.35 C 8.2 g/m*3 8.35 C 0 km/h
1781 09-11-2020 09:00:00 8.96667 C 8.53 g/m*3 8.97 C 0 km/h
1782 09-11-2020 10:00:00 9.76667 C 9 g/m*3 9.77 C 0 km/h
1783 09-11-2020 11:00:00 11.00833 C 9.81 g/m*3 11.01 C 0 km/h
1784 09-11-2020 12:00:00 11.8 C 10.29 g/m*3 11.8 C 0 km/h
1785 09-11-2020 13:00:00 13.08333 C 11.07 g/m*3 13.08 C 0 km/h
1786 09-11-2020 14:00:00 13.675 C 10.94 g/m*3 13.68 C 0.53333 km/h
1787 09-11-2020 15:00:00 13.21667 C 10.69 g/m*3 13.22 C 0.26667 km/h
1788 09-11-2020 16:00:00 12.48333 C 10.29 g/m*3 12.48 C 0.26667 km/h
1789 09-11-2020 17:00:00 11.51667 C 9.74 g/m*3 11.52 C 2.8 km/h
1790 09-11-2020 18:00:00 10.46667 C 9.19 g/m*3 10.47 C 0.8 km/h
1791 09-11-2020 19:00:00 9.66667 C 8.79 g/m*3 9.67 C 0 km/h
1792 09-11-2020 20:00:00 9.08333 C 8.51 g/m*3 9.08 C 0.4 km/h
1793 09-11-2020 21:00:00 8.16667 C 8.02 g/m*3 8.17 C 0 km/h
1794 09-11-2020 22:00:00 7.225 C 7.55 g/m*3 7.23 C 0 km/h
1795 09-11-2020 23:00:00 6.63333 C 7.26 g/m*3 6.63 C 0 km/h
1796 10-11-2020 00:00:00 6.11667 C 7.05 g/m*3 6.12 C 0 km/h
1797 10-11-2020 01:00:00 6.175 C 7.12 g/m*3 6.18 C 0 km/h
1798 10-11-2020 02:00:00 6.06667 C 7.07 g/m*3 6.07 C 0 km/h
1799 10-11-2020 03:00:00 6.1 C 7.09 g/m*3 6.1 C 0 km/h
1800 10-11-2020 04:00:00 6.00833 C 7.04 g/m*3 6.01 C 0 km/h
Sensor: Nr:Datum:Temp:Abs-Feuchte:Windchill:Wind:
Aussen-T/F 1801 10-11-2020 05:00:00 5.74167 C 6.92 g/m*3 5.74 C 0 km/h
1802 10-11-2020 06:00:00 5.71667 C 6.91 g/m*3 5.72 C 0 km/h
1803 10-11-2020 07:00:00 5.7 C 6.9 g/m*3 5.7 C 0 km/h
1804 10-11-2020 08:00:00 5.70833 C 6.91 g/m*3 5.71 C 0.13333 km/h
1805 10-11-2020 09:00:00 5.98333 C 7.08 g/m*3 5.98 C 0.13333 km/h
1806 10-11-2020 10:00:00 6.49167 C 7.33 g/m*3 6.49 C 0 km/h
1807 10-11-2020 11:00:00 7.49167 C 7.84 g/m*3 7.49 C 0 km/h
1808 10-11-2020 12:00:00 8.10833 C 8.16 g/m*3 8.11 C 0 km/h
1809 10-11-2020 13:00:00 8.65 C 8.45 g/m*3 8.65 C 0.13333 km/h
1810 10-11-2020 14:00:00 9.78333 C 9.08 g/m*3 9.78 C 0 km/h
1811 10-11-2020 15:00:00 10.25833 C 9.27 g/m*3 10.26 C 0 km/h
1812 10-11-2020 16:00:00 9.625 C 8.84 g/m*3 9.63 C 0 km/h
1813 10-11-2020 17:00:00 7.84167 C 7.84 g/m*3 7.84 C 0 km/h
1814 10-11-2020 18:00:00 6.75 C 7.32 g/m*3 6.75 C 0 km/h
1815 10-11-2020 19:00:00 6.66667 C 7.33 g/m*3 6.67 C 0 km/h
1816 10-11-2020 20:00:00 6.58333 C 7.31 g/m*3 6.58 C 0 km/h
1817 10-11-2020 21:00:00 7.16667 C 7.6 g/m*3 7.17 C 0 km/h
1818 10-11-2020 22:00:00 7.54167 C 7.79 g/m*3 7.54 C 0 km/h
1819 10-11-2020 23:00:00 7.725 C 7.88 g/m*3 7.73 C 0 km/h
1820 11-11-2020 00:00:00 7.7 C 7.87 g/m*3 7.7 C 0 km/h
1821 11-11-2020 01:00:00 7.76667 C 7.9 g/m*3 7.77 C 0 km/h
1822 11-11-2020 02:00:00 7.76667 C 7.9 g/m*3 7.77 C 0 km/h
1823 11-11-2020 03:00:00 7.79167 C 7.91 g/m*3 7.79 C 0 km/h
1824 11-11-2020 04:00:00 7.825 C 7.93 g/m*3 7.83 C 0 km/h
1825 11-11-2020 05:00:00 7.89167 C 7.96 g/m*3 7.89 C 0 km/h
Sensor: Nr:Datum:Temp:Abs-Feuchte:Windchill:Wind:
Aussen-T/F 1826 11-11-2020 06:00:00 7.9 C 7.97 g/m*3 7.9 C 0 km/h
1827 11-11-2020 07:00:00 7.91667 C 7.98 g/m*3 7.92 C 0 km/h
1828 11-11-2020 08:00:00 8.08333 C 8.06 g/m*3 8.08 C 0 km/h
1829 11-11-2020 09:00:00 8.40833 C 8.23 g/m*3 8.41 C 0 km/h
1830 11-11-2020 10:00:00 9.05 C 8.54 g/m*3 9.05 C 0.53333 km/h
1831 11-11-2020 11:00:00 9.9 C 8.8 g/m*3 8.97 C 7.64167 km/h
1832 11-11-2020 12:00:00 10 C 8.74 g/m*3 10 C 1.46667 km/h
1833 11-11-2020 13:00:00 10.69167 C 9.05 g/m*3 10.69 C 2.675 km/h
1834 11-11-2020 14:00:00 11.29167 C 9.24 g/m*3 11.29 C 2.66667 km/h
1835 11-11-2020 15:00:00 11.28333 C 9.16 g/m*3 11.28 C 5.89167 km/h
1836 11-11-2020 16:00:00 10.95833 C 9.08 g/m*3 10.96 C 4.69167 km/h
1837 11-11-2020 17:00:00 10.45833 C 8.8 g/m*3 10.46 C 4.15833 km/h
1838 11-11-2020 18:00:00 9.675 C 8.47 g/m*3 8.5 C 8.59167 km/h
1839 11-11-2020 19:00:00 9.05 C 8.23 g/m*3 7.41 C 10.46667 km/h
1840 11-11-2020 20:00:00 8.775 C 8.08 g/m*3 8.78 C 3.6 km/h
1841 11-11-2020 21:00:00 8.7 C 8.09 g/m*3 8.7 C 1.06667 km/h
1842 11-11-2020 22:00:00 8.76667 C 8.16 g/m*3 8.77 C 0.13333 km/h
1843 11-11-2020 23:00:00 8.8 C 8.18 g/m*3 8.8 C 0 km/h
1844 12-11-2020 00:00:00 8.81667 C 8.19 g/m*3 8.82 C 0.8 km/h
1845 12-11-2020 01:00:00 8.89167 C 8.23 g/m*3 8.89 C 0.26667 km/h
1846 12-11-2020 02:00:00 8.9 C 8.23 g/m*3 8.9 C 0 km/h
1847 12-11-2020 03:00:00 8.9 C 8.23 g/m*3 8.9 C 0 km/h
1848 12-11-2020 04:00:00 8.925 C 8.32 g/m*3 8.93 C 0 km/h
1849 12-11-2020 05:00:00 8.88333 C 8.31 g/m*3 8.88 C 0 km/h
1850 12-11-2020 06:00:00 9.19167 C 8.39 g/m*3 9.19 C 3.33333 km/h
Sensor: Nr:Datum:Temp:Abs-Feuchte:Windchill:Wind:
Aussen-T/F 1851 12-11-2020 07:00:00 9.6 C 8.44 g/m*3 9.6 C 4.54167 km/h
1852 12-11-2020 08:00:00 9.975 C 8.54 g/m*3 9.98 C 2.4 km/h
1853 12-11-2020 09:00:00 10.49167 C 8.76 g/m*3 10.49 C 3.46667 km/h
1854 12-11-2020 10:00:00 11.175 C 9.08 g/m*3 11.18 C 1.86667 km/h
1855 12-11-2020 11:00:00 11.86667 C 9.4 g/m*3 11.87 C 2.68333 km/h
1856 12-11-2020 12:00:00 12.00833 C 9.22 g/m*3 12.01 C 10.625 km/h
1857 12-11-2020 13:00:00 12.30833 C 8.97 g/m*3 12.31 C 11.69167 km/h
1858 12-11-2020 14:00:00 12.475 C 8.93 g/m*3 12.48 C 6.98333 km/h
1859 12-11-2020 15:00:00 12.11667 C 8.93 g/m*3 12.12 C 4.275 km/h
1860 12-11-2020 16:00:00 11.525 C 8.34 g/m*3 11.53 C 6.55833 km/h
1861 12-11-2020 17:00:00 9.48333 C 7.89 g/m*3 9.07 C 5.33333 km/h
1862 12-11-2020 18:00:00 8.26667 C 7.57 g/m*3 8.27 C 4.8 km/h
1863 12-11-2020 19:00:00 7.40833 C 7.24 g/m*3 7.41 C 1.06667 km/h
1864 12-11-2020 20:00:00 6.775 C 7.12 g/m*3 6.78 C 2.26667 km/h
1865 12-11-2020 21:00:00 5.9 C 6.72 g/m*3 5.9 C 0.4 km/h
1866 12-11-2020 22:00:00 4.61667 C 6.22 g/m*3 4.62 C 0 km/h
1867 12-11-2020 23:00:00 3.85 C 5.96 g/m*3 3.85 C 0 km/h
1868 13-11-2020 00:00:00 3.35 C 5.78 g/m*3 3.35 C 0 km/h
1869 13-11-2020 01:00:00 2.89167 C 5.63 g/m*3 2.89 C 0 km/h
1870 13-11-2020 02:00:00 2.375 C 5.45 g/m*3 2.38 C 0.13333 km/h
1871 13-11-2020 03:00:00 2.46667 C 5.51 g/m*3 2.47 C 0 km/h
1872 13-11-2020 04:00:00 2.75833 C 5.63 g/m*3 2.76 C 0.4 km/h
1873 13-11-2020 05:00:00 2.68333 C 5.59 g/m*3 2.68 C 0.53333 km/h
1874 13-11-2020 06:00:00 2.6 C 5.61 g/m*3 2.6 C 0.26667 km/h
1875 13-11-2020 07:00:00 2.63333 C 5.63 g/m*3 2.63 C 0.4 km/h
Sensor: Nr:Datum:Temp:Abs-Feuchte:Windchill:Wind:
Aussen-T/F 1876 13-11-2020 08:00:00 2.7 C 5.65 g/m*3 2.7 C 0.53333 km/h
1877 13-11-2020 09:00:00 2.875 C 5.72 g/m*3 2.88 C 1.46667 km/h
1878 13-11-2020 10:00:00 3.38333 C 5.92 g/m*3 3.38 C 0.4 km/h
1879 13-11-2020 11:00:00 4.525 C 6.41 g/m*3 4.53 C 0.53333 km/h
1880 13-11-2020 12:00:00 5.60833 C 6.93 g/m*3 5.61 C 0 km/h
1881 13-11-2020 13:00:00 8.175 C 8.19 g/m*3 8.18 C 0.8 km/h
1882 13-11-2020 14:00:00 9.525 C 8.91 g/m*3 9.53 C 0.26667 km/h
1883 13-11-2020 15:00:00 10.39167 C 9.3 g/m*3 10.39 C 0.4 km/h
1884 13-11-2020 16:00:00 10.68333 C 9.33 g/m*3 10.68 C 0.13333 km/h
1885 13-11-2020 17:00:00 10.775 C 9.38 g/m*3 10.78 C 0.26667 km/h
1886 13-11-2020 18:00:00 11.18333 C 9.57 g/m*3 11.18 C 0.66667 km/h
1887 13-11-2020 19:00:00 11.63333 C 9.81 g/m*3 11.63 C 2.13333 km/h
1888 13-11-2020 20:00:00 11.875 C 9.83 g/m*3 11.88 C 1.33333 km/h
1889 13-11-2020 21:00:00 11.54167 C 9.64 g/m*3 11.54 C 0.4 km/h
1890 13-11-2020 22:00:00 11.30833 C 9.58 g/m*3 11.31 C 0.66667 km/h
1891 13-11-2020 23:00:00 10.91667 C 9.36 g/m*3 10.92 C 0 km/h
1892 14-11-2020 00:00:00 10.45833 C 9.17 g/m*3 10.46 C 0.53333 km/h
1893 14-11-2020 01:00:00 10.38333 C 9.18 g/m*3 10.38 C 1.06667 km/h
1894 14-11-2020 02:00:00 10.81667 C 9.42 g/m*3 10.82 C 2 km/h
1895 14-11-2020 03:00:00 10.55 C 9.15 g/m*3 10.55 C 2.13333 km/h
1896 14-11-2020 04:00:00 10.01667 C 8.84 g/m*3 10.02 C 3.06667 km/h
1897 14-11-2020 05:00:00 8.975 C 8.24 g/m*3 8.98 C 1.6 km/h
1898 14-11-2020 06:00:00 7.79167 C 7.72 g/m*3 7.79 C 0 km/h
1899 14-11-2020 07:00:00 7.18333 C 7.5 g/m*3 7.18 C 0.26667 km/h
1900 14-11-2020 08:00:00 7.05833 C 7.47 g/m*3 7.06 C 0 km/h
Sensor: Nr:Datum:Temp:Abs-Feuchte:Windchill:Wind:
Aussen-T/F 1901 14-11-2020 09:00:00 7.43333 C 7.7 g/m*3 7.43 C 0 km/h
1902 14-11-2020 10:00:00 8.775 C 8.45 g/m*3 8.78 C 0.13333 km/h
1903 14-11-2020 11:00:00 11.16667 C 9.84 g/m*3 11.17 C 0.26667 km/h
1904 14-11-2020 12:00:00 13.025 C 10.51 g/m*3 13.03 C 0.26667 km/h
1905 14-11-2020 13:00:00 14.58333 C 10.54 g/m*3 14.58 C 6.05 km/h
1906 14-11-2020 14:00:00 14.99167 C 10.34 g/m*3 14.99 C 4.00833 km/h
1907 14-11-2020 15:00:00 14.1 C 10.23 g/m*3 14.1 C 3.6 km/h
1908 14-11-2020 16:00:00 13.08333 C 9.94 g/m*3 13.08 C 5.06667 km/h
1909 14-11-2020 17:00:00 11.71667 C 9.41 g/m*3 11.72 C 2.4 km/h
1910 14-11-2020 18:00:00 10.75 C 9.11 g/m*3 10.75 C 0 km/h
1911 14-11-2020 19:00:00 10.19167 C 8.9 g/m*3 10.19 C 2.13333 km/h
1912 14-11-2020 20:00:00 9.41667 C 8.53 g/m*3 9.42 C 0 km/h
1913 14-11-2020 21:00:00 9.50833 C 8.72 g/m*3 9.51 C 0 km/h
1914 14-11-2020 22:00:00 9.48333 C 8.73 g/m*3 9.48 C 0.26667 km/h
1915 14-11-2020 23:00:00 9.64167 C 8.84 g/m*3 9.64 C 1.46667 km/h
1916 15-11-2020 00:00:00 10.375 C 9.28 g/m*3 10.38 C 0.66667 km/h
1917 15-11-2020 01:00:00 10.325 C 9.21 g/m*3 10.33 C 0.93333 km/h
1918 15-11-2020 02:00:00 10.775 C 9.47 g/m*3 10.78 C 1.2 km/h
1919 15-11-2020 03:00:00 11.08333 C 9.49 g/m*3 11.08 C 0.4 km/h
1920 15-11-2020 04:00:00 10.84167 C 9.32 g/m*3 10.84 C 1.2 km/h
1921 15-11-2020 05:00:00 11.31667 C 9.51 g/m*3 11.32 C 1.875 km/h
1922 15-11-2020 06:00:00 12.19167 C 9.7 g/m*3 12.19 C 3.21667 km/h
1923 15-11-2020 07:00:00 12.20833 C 9.55 g/m*3 12.21 C 2.4 km/h
1924 15-11-2020 08:00:00 11.31667 C 9.29 g/m*3 11.32 C 0 km/h
1925 15-11-2020 09:00:00 11.43333 C 9.51 g/m*3 11.43 C 1.6 km/h
Sensor: Nr:Datum:Temp:Abs-Feuchte:Windchill:Wind:
Aussen-T/F 1926 15-11-2020 10:00:00 13.2 C 10.1 g/m*3 13.2 C 2 km/h
1927 15-11-2020 11:00:00 14.93333 C 10.38 g/m*3 14.93 C 6.84167 km/h
1928 15-11-2020 12:00:00 16.325 C 10.57 g/m*3 16.33 C 8.475 km/h
1929 15-11-2020 13:00:00 17.43333 C 10.58 g/m*3 17.43 C 6.98333 km/h
1930 15-11-2020 14:00:00 17.85833 C 10.31 g/m*3 17.86 C 6.43333 km/h
1931 15-11-2020 15:00:00 17.325 C 10.19 g/m*3 17.33 C 4.54167 km/h
1932 15-11-2020 16:00:00 16.125 C 9.96 g/m*3 16.13 C 3.60833 km/h
1933 15-11-2020 17:00:00 15.74167 C 10.04 g/m*3 15.74 C 4.15 km/h
1934 15-11-2020 18:00:00 14.60833 C 10.83 g/m*3 14.61 C 5.21667 km/h
1935 15-11-2020 19:00:00 13.56667 C 10.73 g/m*3 13.57 C 6.15833 km/h
1936 15-11-2020 20:00:00 13.59167 C 10.71 g/m*3 13.59 C 10.05 km/h
1937 15-11-2020 21:00:00 11.79167 C 9.55 g/m*3 11.79 C 6.43333 km/h
1938 15-11-2020 22:00:00 10.93333 C 9.37 g/m*3 10.93 C 2.13333 km/h
1939 15-11-2020 23:00:00 11.21667 C 9.1 g/m*3 11.22 C 9.54167 km/h
1940 16-11-2020 00:00:00 10.75833 C 8.77 g/m*3 10.48 C 5.49167 km/h
1941 16-11-2020 01:00:00 10.78333 C 8.29 g/m*3 9.72 C 9.125 km/h
1942 16-11-2020 02:00:00 10.53333 C 8.12 g/m*3 9.79 C 7.25833 km/h
1943 16-11-2020 03:00:00 10.81667 C 8.13 g/m*3 9.8 C 8.85833 km/h
1944 16-11-2020 04:00:00 10.85 C 8.24 g/m*3 9.29 C 12.35833 km/h
1945 16-11-2020 05:00:00 10.125 C 8.19 g/m*3 8.2 C 13.96667 km/h
1946 16-11-2020 06:00:00 10.025 C 8.09 g/m*3 8.74 C 9.55 km/h
1947 16-11-2020 07:00:00 9.79167 C 8.06 g/m*3 8.39 C 9.95 km/h
1948 16-11-2020 08:00:00 10.15833 C 8.33 g/m*3 8.65 C 11.01667 km/h
1949 16-11-2020 09:00:00 10.60833 C 8.41 g/m*3 9.21 C 10.9 km/h
1950 16-11-2020 10:00:00 10.78333 C 8.36 g/m*3 8.94 C 14.5 km/h
Sensor: Nr:Datum:Temp:Abs-Feuchte:Windchill:Wind:
Aussen-T/F 1951 16-11-2020 11:00:00 11.78333 C 8.62 g/m*3 11.78 C 14.23333 km/h
1952 16-11-2020 12:00:00 12.25 C 9.01 g/m*3 12.25 C 15.3 km/h
1953 16-11-2020 13:00:00 12.525 C 9.28 g/m*3 12.53 C 17.56667 km/h
1954 16-11-2020 14:00:00 12.4 C 9.21 g/m*3 12.4 C 13.43333 km/h
1955 16-11-2020 15:00:00 12.30833 C 9.21 g/m*3 12.31 C 15.03333 km/h
1956 16-11-2020 16:00:00 11.63333 C 9 g/m*3 11.63 C 15.03333 km/h
1957 16-11-2020 17:00:00 11.1 C 8.88 g/m*3 11.1 C 11.01667 km/h
1958 16-11-2020 18:00:00 10.90833 C 8.83 g/m*3 9.33 C 12.63333 km/h
1959 16-11-2020 19:00:00 11.15 C 8.83 g/m*3 11.15 C 9.28333 km/h
1960 16-11-2020 20:00:00 10.78333 C 8.68 g/m*3 10.33 C 6.175 km/h
1961 16-11-2020 21:00:00 9.60833 C 8.15 g/m*3 9.61 C 3.88333 km/h
1962 16-11-2020 22:00:00 8.79167 C 7.88 g/m*3 8.36 C 5.075 km/h
1963 16-11-2020 23:00:00 9.14167 C 8.04 g/m*3 8.14 C 7.38333 km/h
1964 17-11-2020 00:00:00 9.375 C 8.11 g/m*3 8.41 C 7.39167 km/h
1965 17-11-2020 01:00:00 10.025 C 8.27 g/m*3 9.29 C 6.85 km/h
1966 17-11-2020 02:00:00 10.44167 C 8.41 g/m*3 9.1 C 10.35833 km/h
1967 17-11-2020 03:00:00 10.59167 C 8.42 g/m*3 9.18 C 11.025 km/h
1968 17-11-2020 04:00:00 10.68333 C 8.47 g/m*3 9.22 C 11.43333 km/h
1969 17-11-2020 05:00:00 10.73333 C 8.51 g/m*3 9.35 C 11.01667 km/h
1970 17-11-2020 06:00:00 10.45 C 8.49 g/m*3 9.16 C 10.08333 km/h
1971 17-11-2020 07:00:00 10.60833 C 8.4 g/m*3 10.23 C 5.76667 km/h
1972 17-11-2020 08:00:00 10.7 C 8.45 g/m*3 10.2 C 6.31667 km/h
1973 17-11-2020 09:00:00 11 C 8.59 g/m*3 9.9 C 9.54167 km/h
1974 17-11-2020 10:00:00 11.40833 C 8.71 g/m*3 11.41 C 16.9 km/h
1975 17-11-2020 11:00:00 11.99167 C 8.87 g/m*3 11.99 C 18.76667 km/h
Sensor: Nr:Datum:Temp:Abs-Feuchte:Windchill:Wind:
Aussen-T/F 1976 17-11-2020 12:00:00 12.64167 C 9.05 g/m*3 12.64 C 13.7 km/h
1977 17-11-2020 13:00:00 12.825 C 9.09 g/m*3 12.83 C 12.89167 km/h
1978 17-11-2020 14:00:00 13.04167 C 9.11 g/m*3 13.04 C 9.825 km/h
1979 17-11-2020 15:00:00 12.8 C 9.07 g/m*3 12.8 C 8.59167 km/h
1980 17-11-2020 16:00:00 12.65833 C 9.04 g/m*3 12.66 C 9.15 km/h
1981 17-11-2020 17:00:00 12.36667 C 9 g/m*3 12.37 C 5.48333 km/h
1982 17-11-2020 18:00:00 12.25 C 9.01 g/m*3 12.25 C 3.475 km/h
1983 17-11-2020 19:00:00 11.95 C 8.99 g/m*3 11.95 C 1.06667 km/h
1984 17-11-2020 20:00:00 11.85 C 9.08 g/m*3 11.85 C 5.21667 km/h
1985 17-11-2020 21:00:00 11.825 C 9.07 g/m*3 11.83 C 3.88333 km/h
1986 17-11-2020 22:00:00 11.66667 C 9.04 g/m*3 11.67 C 1.875 km/h
1987 17-11-2020 23:00:00 11.58333 C 8.89 g/m*3 11.58 C 3.86667 km/h
1988 18-11-2020 00:00:00 11.53333 C 8.8 g/m*3 11.53 C 2 km/h
1989 18-11-2020 01:00:00 11.35 C 8.78 g/m*3 11.35 C 0 km/h
1990 18-11-2020 02:00:00 11.3 C 8.77 g/m*3 11.3 C 2.66667 km/h
1991 18-11-2020 03:00:00 11.175 C 8.75 g/m*3 11.18 C 1.46667 km/h
1992 18-11-2020 04:00:00 10.95 C 8.68 g/m*3 10.95 C 0.4 km/h
1993 18-11-2020 05:00:00 10.8 C 8.63 g/m*3 10.8 C 0.26667 km/h
1994 18-11-2020 06:00:00 10.7 C 8.64 g/m*3 10.7 C 0.13333 km/h
1995 18-11-2020 07:00:00 10.7 C 8.67 g/m*3 10.7 C 0 km/h
1996 18-11-2020 08:00:00 10.775 C 8.63 g/m*3 10.78 C 2.66667 km/h
1997 18-11-2020 09:00:00 10.6 C 8.46 g/m*3 10.6 C 1.2 km/h
1998 18-11-2020 10:00:00 9.43333 C 8.13 g/m*3 9.43 C 2.13333 km/h
1999 18-11-2020 11:00:00 9.6 C 8.48 g/m*3 9.6 C 4 km/h
2000 18-11-2020 12:00:00 10.35 C 8.83 g/m*3 10.35 C 2.8 km/h
Sensor: Nr:Datum:Temp:Abs-Feuchte:Windchill:Wind:
Aussen-T/F 2001 18-11-2020 13:00:00 10.975 C 9.09 g/m*3 10.98 C 0 km/h
2002 18-11-2020 14:00:00 11.54167 C 9.3 g/m*3 11.54 C 2.13333 km/h
2003 18-11-2020 15:00:00 12.15 C 9.42 g/m*3 12.15 C 4.4 km/h
2004 18-11-2020 16:00:00 11.23333 C 8.95 g/m*3 11.23 C 5.06667 km/h
2005 18-11-2020 17:00:00 9.60833 C 8.25 g/m*3 9.61 C 3.86667 km/h
2006 18-11-2020 18:00:00 8.64167 C 7.93 g/m*3 8.64 C 4.66667 km/h
2007 18-11-2020 19:00:00 8.00833 C 7.69 g/m*3 8.01 C 2.8 km/h
2008 18-11-2020 20:00:00 7.3 C 7.37 g/m*3 7.3 C 0.4 km/h
2009 18-11-2020 21:00:00 6.66667 C 7.13 g/m*3 6.67 C 0.66667 km/h
2010 18-11-2020 22:00:00 6.35 C 7.02 g/m*3 6.35 C 0.4 km/h
2011 18-11-2020 23:00:00 6.00833 C 6.9 g/m*3 6.01 C 0.26667 km/h
2012 19-11-2020 00:00:00 6.94167 C 7.41 g/m*3 6.07 C 5.64167 km/h
2013 19-11-2020 01:00:00 11.14167 C 8.55 g/m*3 11.14 C 13.83333 km/h
2014 19-11-2020 02:00:00 11.925 C 8.76 g/m*3 11.93 C 12.75833 km/h
2015 19-11-2020 03:00:00 10.675 C 8.92 g/m*3 9.32 C 10.75833 km/h
2016 19-11-2020 04:00:00 10.7 C 8.96 g/m*3 9.82 C 8.05 km/h
2017 19-11-2020 05:00:00 10.61667 C 9 g/m*3 9.4 C 9.80833 km/h
2018 19-11-2020 06:00:00 8.975 C 8.28 g/m*3 8.04 C 6.99167 km/h
2019 19-11-2020 07:00:00 8.475 C 8.05 g/m*3 8.48 C 4.93333 km/h
2020 19-11-2020 08:00:00 7.95 C 7.75 g/m*3 6.92 C 6.69167 km/h
2021 19-11-2020 09:00:00 7.65833 C 7.43 g/m*3 6.21 C 8.19167 km/h
2022 19-11-2020 10:00:00 8.51667 C 7.66 g/m*3 7.38 C 7.51667 km/h
2023 19-11-2020 11:00:00 9.68333 C 7.96 g/m*3 8.49 C 8.73333 km/h
2024 19-11-2020 12:00:00 9.56667 C 8.24 g/m*3 8.7 C 7.10833 km/h
2025 19-11-2020 13:00:00 9.95 C 7.7 g/m*3 8 C 13.825 km/h
Sensor: Nr:Datum:Temp:Abs-Feuchte:Windchill:Wind:
Aussen-T/F 2026 19-11-2020 14:00:00 10.55833 C 7.33 g/m*3 8.61 C 14.9 km/h
2027 19-11-2020 15:00:00 10.89167 C 7.14 g/m*3 9.48 C 11.425 km/h
2028 19-11-2020 16:00:00 10.28333 C 7.34 g/m*3 8.76 C 11.3 km/h
2029 19-11-2020 17:00:00 9.43333 C 7.56 g/m*3 9.43 C 2.93333 km/h
2030 19-11-2020 18:00:00 8.63333 C 7.7 g/m*3 8.63 C 4.14167 km/h
2031 19-11-2020 19:00:00 8.01667 C 7.58 g/m*3 7.18 C 6.025 km/h
2032 19-11-2020 20:00:00 7.7 C 7.52 g/m*3 7.7 C 2.4 km/h
2033 19-11-2020 21:00:00 6.65 C 7.08 g/m*3 6.65 C 2.8 km/h
2034 19-11-2020 22:00:00 5.56667 C 6.62 g/m*3 5.57 C 3.73333 km/h
2035 19-11-2020 23:00:00 5.41667 C 6.64 g/m*3 5.42 C 1.33333 km/h
2036 20-11-2020 00:00:00 5.25833 C 6.56 g/m*3 5.26 C 4 km/h
2037 20-11-2020 01:00:00 5.01667 C 6.36 g/m*3 5.02 C 2.80833 km/h
2038 20-11-2020 02:00:00 4.475 C 6.15 g/m*3 4.47 C 2.93333 km/h
2039 20-11-2020 03:00:00 3.00833 C 5.56 g/m*3 3.01 C 0.93333 km/h
2040 20-11-2020 04:00:00 2.49167 C 5.42 g/m*3 2.49 C 0.53333 km/h
2041 20-11-2020 05:00:00 2.825 C 5.61 g/m*3 2.83 C 2.93333 km/h
2042 20-11-2020 06:00:00 3.21667 C 5.79 g/m*3 3.22 C 3.73333 km/h
2043 20-11-2020 07:00:00 3.65 C 5.96 g/m*3 3.65 C 3.46667 km/h
2044 20-11-2020 08:00:00 3.89167 C 6.06 g/m*3 3.89 C 4.4 km/h
2045 20-11-2020 09:00:00 4.34167 C 6.24 g/m*3 4.34 C 4.4 km/h
2046 20-11-2020 10:00:00 5.06667 C 6.49 g/m*3 3.83 C 5.9 km/h
2047 20-11-2020 11:00:00 5.875 C 6.69 g/m*3 4.68 C 6.14167 km/h
2048 20-11-2020 12:00:00 6.45833 C 6.81 g/m*3 6.46 C 4.26667 km/h
2049 20-11-2020 13:00:00 6.75833 C 6.86 g/m*3 6.76 C 3.60833 km/h
2050 20-11-2020 14:00:00 6.625 C 6.52 g/m*3 5.9 C 5.08333 km/h
Sensor: Nr:Datum:Temp:Abs-Feuchte:Windchill:Wind:
Aussen-T/F 2051 20-11-2020 15:00:00 6.78333 C 6.43 g/m*3 6.78 C 1.46667 km/h
2052 20-11-2020 16:00:00 6.825 C 6.56 g/m*3 6.83 C 0 km/h
2053 20-11-2020 17:00:00 5.68333 C 6.25 g/m*3 5.68 C 0.26667 km/h
2054 20-11-2020 18:00:00 3.74167 C 5.61 g/m*3 3.74 C 0.53333 km/h
2055 20-11-2020 19:00:00 2.35 C 5.25 g/m*3 2.35 C 0 km/h
2056 20-11-2020 20:00:00 1.31667 C 4.96 g/m*3 1.32 C 0 km/h
2057 20-11-2020 21:00:00 0.76667 C 4.82 g/m*3 0.77 C 0 km/h
2058 20-11-2020 22:00:00 0.3 C 4.7 g/m*3 0.3 C 0 km/h
2059 20-11-2020 23:00:00 0.275 C 4.7 g/m*3 0.28 C 0.26667 km/h
2060 21-11-2020 00:00:00 0.25 C 4.72 g/m*3 0.25 C 0.66667 km/h
2061 21-11-2020 01:00:00 0.25833 C 4.73 g/m*3 0.26 C 0.66667 km/h
2062 21-11-2020 02:00:00 0.2 C 4.72 g/m*3 0.2 C 0.26667 km/h
2063 21-11-2020 03:00:00 0.24167 C 4.73 g/m*3 0.24 C 0.93333 km/h
2064 21-11-2020 04:00:00 0.14167 C 4.7 g/m*3 0.14 C 1.6 km/h
2065 21-11-2020 05:00:00 0.175 C 4.71 g/m*3 0.18 C 1.2 km/h
2066 21-11-2020 06:00:00 0.24167 C 4.75 g/m*3 0.24 C 0.53333 km/h
2067 21-11-2020 07:00:00 0.31667 C 4.8 g/m*3 0.32 C 0 km/h
2068 21-11-2020 08:00:00 0.525 C 4.87 g/m*3 0.53 C 0.13333 km/h
2069 21-11-2020 09:00:00 1.14167 C 5.08 g/m*3 1.14 C 0 km/h
2070 21-11-2020 10:00:00 2.175 C 5.45 g/m*3 2.17 C 0.4 km/h
2071 21-11-2020 11:00:00 3.41667 C 5.93 g/m*3 3.42 C 0.4 km/h
2072 21-11-2020 12:00:00 5.40833 C 6.34 g/m*3 3.6 C 8.05833 km/h
2073 21-11-2020 13:00:00 7.15 C 6.14 g/m*3 5.58 C 8.34167 km/h
2074 21-11-2020 14:00:00 7.85 C 6.11 g/m*3 5.97 C 10.5 km/h
2075 21-11-2020 15:00:00 7.99167 C 6 g/m*3 6.35 C 9.39167 km/h
Sensor: Nr:Datum:Temp:Abs-Feuchte:Windchill:Wind:
Aussen-T/F 2076 21-11-2020 16:00:00 7.89167 C 6.08 g/m*3 7.89 C 2.94167 km/h
2077 21-11-2020 17:00:00 7.21667 C 6.29 g/m*3 7.22 C 0 km/h
2078 21-11-2020 18:00:00 5.65 C 5.98 g/m*3 5.65 C 2.8 km/h
2079 21-11-2020 19:00:00 4.89167 C 5.91 g/m*3 4.89 C 0.66667 km/h
2080 21-11-2020 20:00:00 4.14167 C 5.68 g/m*3 4.14 C 3.89167 km/h
2081 21-11-2020 21:00:00 4.10833 C 5.65 g/m*3 2.88 C 5.49167 km/h
2082 21-11-2020 22:00:00 4.60833 C 5.84 g/m*3 3.17 C 6.3 km/h
2083 21-11-2020 23:00:00 5.53333 C 6.04 g/m*3 2.72 C 13.03333 km/h
2084 22-11-2020 00:00:00 5.78333 C 6.08 g/m*3 3 C 13.16667 km/h
2085 22-11-2020 01:00:00 5.98333 C 6.16 g/m*3 3.5 C 11.7 km/h
2086 22-11-2020 02:00:00 6.3 C 6.22 g/m*3 3.93 C 11.43333 km/h
2087 22-11-2020 03:00:00 6.30833 C 6.22 g/m*3 3.76 C 12.5 km/h
2088 22-11-2020 04:00:00 6.50833 C 6.23 g/m*3 3.47 C 15.96667 km/h
2089 22-11-2020 05:00:00 6.6 C 6.3 g/m*3 3.85 C 14.1 km/h
2090 22-11-2020 06:00:00 6.80833 C 6.41 g/m*3 4.17 C 13.7 km/h
2091 22-11-2020 07:00:00 6.88333 C 6.44 g/m*3 4.2 C 14.1 km/h
2092 22-11-2020 08:00:00 6.875 C 6.51 g/m*3 4.15 C 14.36667 km/h
2093 22-11-2020 09:00:00 7.275 C 6.7 g/m*3 4.72 C 13.83333 km/h
2094 22-11-2020 10:00:00 7.625 C 6.81 g/m*3 4.82 C 16.23333 km/h
2095 22-11-2020 11:00:00 8.1 C 6.98 g/m*3 5.7 C 14.1 km/h
2096 22-11-2020 12:00:00 8.45 C 7.09 g/m*3 6.11 C 14.23333 km/h
2097 22-11-2020 13:00:00 8.78333 C 7.22 g/m*3 6.59 C 13.7 km/h
2098 22-11-2020 14:00:00 8.95 C 7.29 g/m*3 7.24 C 10.75833 km/h
2099 22-11-2020 15:00:00 8.975 C 7.32 g/m*3 7.04 C 12.225 km/h
2100 22-11-2020 16:00:00 8.875 C 7.38 g/m*3 7.58 C 8.48333 km/h
Sensor: Nr:Datum:Temp:Abs-Feuchte:Windchill:Wind:
Aussen-T/F 2101 22-11-2020 17:00:00 8.73333 C 7.37 g/m*3 7.36 C 8.75 km/h
2102 22-11-2020 18:00:00 8.53333 C 7.27 g/m*3 7.02 C 9.28333 km/h
2103 22-11-2020 19:00:00 8.41667 C 7.25 g/m*3 7.64 C 6.025 km/h
2104 22-11-2020 20:00:00 8.34167 C 7.24 g/m*3 7.48 C 6.29167 km/h
2105 22-11-2020 21:00:00 8.3 C 7.31 g/m*3 7.51 C 6.025 km/h
2106 22-11-2020 22:00:00 8.3 C 7.34 g/m*3 7 C 8.06667 km/h
2107 22-11-2020 23:00:00 8.3 C 7.42 g/m*3 7.55 C 5.9 km/h
2108 23-11-2020 00:00:00 8.21667 C 7.41 g/m*3 6.99 C 7.66667 km/h
2109 23-11-2020 01:00:00 8.1 C 7.43 g/m*3 7.44 C 5.49167 km/h
2110 23-11-2020 02:00:00 8.025 C 7.37 g/m*3 6.93 C 6.98333 km/h
2111 23-11-2020 03:00:00 7.99167 C 7.35 g/m*3 6.69 C 7.8 km/h
2112 23-11-2020 04:00:00 7.83333 C 7.4 g/m*3 6.98 C 6.01667 km/h
2113 23-11-2020 05:00:00 7.81667 C 7.39 g/m*3 7.82 C 4.01667 km/h
2114 23-11-2020 06:00:00 7.79167 C 7.42 g/m*3 6.85 C 6.29167 km/h
2115 23-11-2020 07:00:00 7.69167 C 7.38 g/m*3 6.19 C 8.475 km/h
2116 23-11-2020 08:00:00 7.75833 C 7.44 g/m*3 6.66 C 6.83333 km/h
2117 23-11-2020 09:00:00 7.875 C 7.61 g/m*3 6.87 C 6.55833 km/h
2118 23-11-2020 10:00:00 8.28333 C 7.74 g/m*3 7.57 C 5.76667 km/h
2119 23-11-2020 11:00:00 8.84167 C 7.86 g/m*3 8.84 C 4.8 km/h
2120 23-11-2020 12:00:00 9.20833 C 7.94 g/m*3 9.21 C 3.73333 km/h
2121 23-11-2020 13:00:00 9.46667 C 7.96 g/m*3 9.47 C 1.46667 km/h
2122 23-11-2020 14:00:00 9.75833 C 7.96 g/m*3 9.76 C 3.86667 km/h
2123 23-11-2020 15:00:00 9.76667 C 7.96 g/m*3 9.77 C 0.26667 km/h
2124 23-11-2020 16:00:00 9.23333 C 7.82 g/m*3 9.23 C 0.13333 km/h
2125 23-11-2020 17:00:00 7.48333 C 7.12 g/m*3 7.48 C 2.66667 km/h
Sensor: Nr:Datum:Temp:Abs-Feuchte:Windchill:Wind:
Aussen-T/F 2126 23-11-2020 18:00:00 5.45 C 6.45 g/m*3 5.45 C 0.13333 km/h
2127 23-11-2020 19:00:00 4.73333 C 6.28 g/m*3 4.73 C 0.53333 km/h
2128 23-11-2020 20:00:00 4.69167 C 6.35 g/m*3 4.69 C 0 km/h
2129 23-11-2020 21:00:00 6.075 C 7 g/m*3 6.08 C 0.4 km/h
2130 23-11-2020 22:00:00 6.75833 C 7.32 g/m*3 6.76 C 0.8 km/h
2131 23-11-2020 23:00:00 6.95833 C 7.42 g/m*3 6.96 C 0 km/h
2132 24-11-2020 00:00:00 6.93333 C 7.32 g/m*3 6.93 C 1.33333 km/h
2133 24-11-2020 01:00:00 6.65 C 7.12 g/m*3 6.65 C 0.4 km/h
2134 24-11-2020 02:00:00 6.45 C 6.98 g/m*3 6.45 C 2.40833 km/h
2135 24-11-2020 03:00:00 6.3 C 6.88 g/m*3 6.3 C 1.46667 km/h
2136 24-11-2020 04:00:00 6.05 C 6.81 g/m*3 6.05 C 1.73333 km/h
2137 24-11-2020 05:00:00 5.86667 C 6.76 g/m*3 5.87 C 0.66667 km/h
2138 24-11-2020 06:00:00 5.775 C 6.72 g/m*3 5.78 C 0.4 km/h
2139 24-11-2020 07:00:00 5.6 C 6.65 g/m*3 5.6 C 3.86667 km/h
2140 24-11-2020 08:00:00 5.30833 C 6.52 g/m*3 5.31 C 3.46667 km/h
2141 24-11-2020 09:00:00 5.24167 C 6.49 g/m*3 5.24 C 2.66667 km/h
2142 24-11-2020 10:00:00 5.99167 C 6.78 g/m*3 5.99 C 1.06667 km/h
2143 24-11-2020 11:00:00 6.675 C 6.93 g/m*3 6.68 C 2.675 km/h
2144 24-11-2020 12:00:00 7.19167 C 6.98 g/m*3 7.19 C 2.93333 km/h
2145 24-11-2020 13:00:00 7.275 C 6.97 g/m*3 7.28 C 4.81667 km/h
2146 24-11-2020 14:00:00 6.93333 C 6.86 g/m*3 6.93 C 4.275 km/h
2147 24-11-2020 15:00:00 6.525 C 6.75 g/m*3 6.53 C 4.00833 km/h
2148 24-11-2020 16:00:00 6.46667 C 6.74 g/m*3 6.47 C 1.06667 km/h
2149 24-11-2020 17:00:00 6.51667 C 6.76 g/m*3 6.52 C 1.06667 km/h
2150 24-11-2020 18:00:00 6.4 C 6.71 g/m*3 6.4 C 1.33333 km/h
Sensor: Nr:Datum:Temp:Abs-Feuchte:Windchill:Wind:
Aussen-T/F 2151 24-11-2020 19:00:00 6.4 C 6.73 g/m*3 6.4 C 0.53333 km/h
2152 24-11-2020 20:00:00 6.4 C 6.78 g/m*3 6.4 C 0.26667 km/h
2153 24-11-2020 21:00:00 6.375 C 6.77 g/m*3 6.38 C 0 km/h
2154 24-11-2020 22:00:00 6.3 C 6.75 g/m*3 6.3 C 0 km/h
2155 24-11-2020 23:00:00 6.275 C 6.72 g/m*3 6.28 C 0.26667 km/h
2156 25-11-2020 00:00:00 6.28333 C 6.65 g/m*3 6.28 C 0.4 km/h
2157 25-11-2020 01:00:00 6.175 C 6.61 g/m*3 6.18 C 0 km/h
2158 25-11-2020 02:00:00 6.05833 C 6.56 g/m*3 6.06 C 0.26667 km/h
2159 25-11-2020 03:00:00 5.85 C 6.52 g/m*3 5.85 C 0.53333 km/h
2160 25-11-2020 04:00:00 5.53333 C 6.41 g/m*3 5.53 C 0.4 km/h
2161 25-11-2020 05:00:00 4.4 C 5.99 g/m*3 4.4 C 0.66667 km/h
2162 25-11-2020 06:00:00 3.43333 C 5.72 g/m*3 3.43 C 1.46667 km/h
2163 25-11-2020 07:00:00 2.78333 C 5.53 g/m*3 2.78 C 0.66667 km/h
2164 25-11-2020 08:00:00 2.54167 C 5.48 g/m*3 2.54 C 0 km/h
2165 25-11-2020 09:00:00 2.93333 C 5.66 g/m*3 2.93 C 0 km/h
2166 25-11-2020 10:00:00 4.025 C 6.14 g/m*3 4.03 C 0 km/h
2167 25-11-2020 11:00:00 5.58333 C 6.8 g/m*3 5.58 C 0.4 km/h
2168 25-11-2020 12:00:00 5.75 C 6.78 g/m*3 5.75 C 0.26667 km/h
2169 25-11-2020 13:00:00 6.20833 C 6.98 g/m*3 6.21 C 1.06667 km/h
2170 25-11-2020 14:00:00 6.625 C 7.08 g/m*3 6.63 C 0.13333 km/h
2171 25-11-2020 15:00:00 6.38333 C 6.92 g/m*3 6.38 C 1.33333 km/h
2172 25-11-2020 16:00:00 5.975 C 6.65 g/m*3 4.88 C 5.9 km/h
2173 25-11-2020 17:00:00 5.01667 C 6.25 g/m*3 5.02 C 1.6 km/h
2174 25-11-2020 18:00:00 4.1 C 5.96 g/m*3 4.1 C 0 km/h
2175 25-11-2020 19:00:00 3.48333 C 5.78 g/m*3 3.48 C 0.13333 km/h
Sensor: Nr:Datum:Temp:Abs-Feuchte:Windchill:Wind:
Aussen-T/F 2176 25-11-2020 20:00:00 3.13333 C 5.7 g/m*3 3.13 C 0.53333 km/h
2177 25-11-2020 21:00:00 2.475 C 5.45 g/m*3 2.48 C 0.66667 km/h
2178 25-11-2020 22:00:00 2.13333 C 5.33 g/m*3 2.13 C 0 km/h
2179 25-11-2020 23:00:00 1.86667 C 5.27 g/m*3 1.87 C 0.4 km/h
2180 26-11-2020 00:00:00 1.63333 C 5.2 g/m*3 1.63 C 0 km/h
2181 26-11-2020 01:00:00 1.95 C 5.32 g/m*3 1.95 C 0 km/h
2182 26-11-2020 02:00:00 2.6 C 5.59 g/m*3 2.6 C 0.13333 km/h
2183 26-11-2020 03:00:00 2.81667 C 5.7 g/m*3 2.82 C 0 km/h
2184 26-11-2020 04:00:00 3.06667 C 5.79 g/m*3 3.07 C 0.26667 km/h
2185 26-11-2020 05:00:00 3.3 C 5.88 g/m*3 3.3 C 0.66667 km/h
2186 26-11-2020 06:00:00 3.025 C 5.75 g/m*3 3.03 C 0.93333 km/h
2187 26-11-2020 07:00:00 2.81667 C 5.68 g/m*3 2.82 C 0.93333 km/h
2188 26-11-2020 08:00:00 2.59167 C 5.55 g/m*3 2.59 C 2.53333 km/h
2189 26-11-2020 09:00:00 2.55833 C 5.57 g/m*3 2.56 C 1.86667 km/h
2190 26-11-2020 10:00:00 2.81667 C 5.67 g/m*3 2.82 C 1.06667 km/h
2191 26-11-2020 11:00:00 3.55 C 5.96 g/m*3 3.55 C 2 km/h
2192 26-11-2020 12:00:00 4.25 C 6.15 g/m*3 4.25 C 2.13333 km/h
2193 26-11-2020 13:00:00 4.74167 C 6.23 g/m*3 4.74 C 3.2 km/h
2194 26-11-2020 14:00:00 5.09167 C 6.28 g/m*3 5.09 C 3.88333 km/h
2195 26-11-2020 15:00:00 5.13333 C 6.25 g/m*3 5.13 C 2.4 km/h
2196 26-11-2020 16:00:00 4.81667 C 6.16 g/m*3 4.82 C 1.60833 km/h
2197 26-11-2020 17:00:00 4.38333 C 6.03 g/m*3 4.38 C 1.86667 km/h
2198 26-11-2020 18:00:00 4.16667 C 5.98 g/m*3 4.17 C 1.6 km/h
2199 26-11-2020 19:00:00 4.1 C 5.95 g/m*3 4.1 C 0.13333 km/h
2200 26-11-2020 20:00:00 3.85 C 5.83 g/m*3 3.85 C 0.93333 km/h
Sensor: Nr:Datum:Temp:Abs-Feuchte:Windchill:Wind:
Aussen-T/F 2201 26-11-2020 21:00:00 2.8 C 5.45 g/m*3 2.8 C 1.2 km/h
2202 26-11-2020 22:00:00 2.86667 C 5.54 g/m*3 2.87 C 0.53333 km/h
2203 26-11-2020 23:00:00 2.59167 C 5.44 g/m*3 2.59 C 0 km/h
2204 27-11-2020 00:00:00 2.25833 C 5.35 g/m*3 2.26 C 0 km/h
2205 27-11-2020 01:00:00 2.84167 C 5.59 g/m*3 2.84 C 0 km/h
2206 27-11-2020 02:00:00 3 C 5.65 g/m*3 3 C 0 km/h
2207 27-11-2020 03:00:00 2.91667 C 5.62 g/m*3 2.92 C 0 km/h
2208 27-11-2020 04:00:00 2.85833 C 5.59 g/m*3 2.86 C 0.26667 km/h
2209 27-11-2020 05:00:00 2.75833 C 5.56 g/m*3 2.76 C 0.4 km/h
2210 27-11-2020 06:00:00 2.7 C 5.54 g/m*3 2.7 C 0.4 km/h
2211 27-11-2020 07:00:00 2.68333 C 5.53 g/m*3 2.68 C 0.13333 km/h
2212 27-11-2020 08:00:00 2.8 C 5.6 g/m*3 2.8 C 0.13333 km/h
2213 27-11-2020 09:00:00 2.96667 C 5.69 g/m*3 2.97 C 0 km/h
2214 27-11-2020 10:00:00 3.45833 C 5.83 g/m*3 3.46 C 3.6 km/h
2215 27-11-2020 11:00:00 3.85 C 5.91 g/m*3 3.85 C 2.4 km/h
2216 27-11-2020 12:00:00 4.01667 C 5.89 g/m*3 2.94 C 5.075 km/h
2217 27-11-2020 13:00:00 4.15 C 5.9 g/m*3 4.15 C 3.06667 km/h
2218 27-11-2020 14:00:00 4.425 C 6.02 g/m*3 4.43 C 2.53333 km/h
2219 27-11-2020 15:00:00 4.675 C 6.11 g/m*3 4.68 C 2.8 km/h
2220 27-11-2020 16:00:00 4.6 C 6.09 g/m*3 4.6 C 1.6 km/h
2221 27-11-2020 17:00:00 4.6 C 6.12 g/m*3 4.6 C 1.33333 km/h
2222 27-11-2020 18:00:00 4.51667 C 6.12 g/m*3 4.52 C 1.33333 km/h
2223 27-11-2020 19:00:00 4.45 C 6.09 g/m*3 4.45 C 0.53333 km/h
2224 27-11-2020 20:00:00 4.38333 C 6.08 g/m*3 4.38 C 0.53333 km/h
2225 27-11-2020 21:00:00 4.39167 C 6.07 g/m*3 4.39 C 0.26667 km/h
Sensor: Nr:Datum:Temp:Abs-Feuchte:Windchill:Wind:
Aussen-T/F 2226 27-11-2020 22:00:00 4.30833 C 6.04 g/m*3 4.31 C 0 km/h
2227 27-11-2020 23:00:00 4.05833 C 5.93 g/m*3 4.06 C 2.4 km/h
2228 28-11-2020 00:00:00 3.75833 C 5.81 g/m*3 3.76 C 0.93333 km/h
2229 28-11-2020 01:00:00 3.59167 C 5.75 g/m*3 3.59 C 2.66667 km/h
2230 28-11-2020 02:00:00 3.425 C 5.7 g/m*3 3.43 C 1.86667 km/h
2231 28-11-2020 03:00:00 3.24167 C 5.66 g/m*3 3.24 C 0.8 km/h
2232 28-11-2020 04:00:00 2.95 C 5.57 g/m*3 2.95 C 2.26667 km/h
2233 28-11-2020 05:00:00 2.88333 C 5.55 g/m*3 2.88 C 1.2 km/h
2234 28-11-2020 06:00:00 2.73333 C 5.49 g/m*3 2.73 C 1.46667 km/h
2235 28-11-2020 07:00:00 2.56667 C 5.43 g/m*3 2.57 C 0.66667 km/h
2236 28-11-2020 08:00:00 2.41667 C 5.37 g/m*3 2.42 C 0.53333 km/h
2237 28-11-2020 09:00:00 2.55833 C 5.42 g/m*3 2.56 C 1.73333 km/h
2238 28-11-2020 10:00:00 2.925 C 5.49 g/m*3 2.93 C 2.8 km/h
2239 28-11-2020 11:00:00 3.43333 C 5.59 g/m*3 3.43 C 3.2 km/h
2240 28-11-2020 12:00:00 3.80833 C 5.62 g/m*3 3.81 C 4 km/h
2241 28-11-2020 13:00:00 4.04167 C 5.67 g/m*3 2.96 C 5.08333 km/h
2242 28-11-2020 14:00:00 4.15 C 5.73 g/m*3 4.15 C 4.80833 km/h
2243 28-11-2020 15:00:00 3.875 C 5.67 g/m*3 3.88 C 1.33333 km/h
2244 28-11-2020 16:00:00 3.59167 C 5.61 g/m*3 3.59 C 1.06667 km/h
2245 28-11-2020 17:00:00 3.33333 C 5.55 g/m*3 3.33 C 3.34167 km/h
2246 28-11-2020 18:00:00 3.2 C 5.53 g/m*3 3.2 C 2.66667 km/h
2247 28-11-2020 19:00:00 3.00833 C 5.48 g/m*3 3.01 C 3.74167 km/h
2248 28-11-2020 20:00:00 3.075 C 5.56 g/m*3 3.08 C 1.33333 km/h
2249 28-11-2020 21:00:00 3.35833 C 5.66 g/m*3 3.36 C 1.33333 km/h
2250 28-11-2020 22:00:00 3.63333 C 5.77 g/m*3 3.63 C 0.4 km/h
Sensor: Nr:Datum:Temp:Abs-Feuchte:Windchill:Wind:
Aussen-T/F 2251 28-11-2020 23:00:00 3.76667 C 5.8 g/m*3 3.77 C 1.06667 km/h
2252 29-11-2020 00:00:00 3.85833 C 5.75 g/m*3 3.86 C 4 km/h
2253 29-11-2020 01:00:00 3.54167 C 5.51 g/m*3 1.56 C 7.51667 km/h
2254 29-11-2020 02:00:00 2.86667 C 5.16 g/m*3 2.87 C 4.40833 km/h
2255 29-11-2020 03:00:00 2.7 C 5.07 g/m*3 2.7 C 4.425 km/h
2256 29-11-2020 04:00:00 2.48333 C 4.94 g/m*3 2.48 C 4.15 km/h
2257 29-11-2020 05:00:00 2.3 C 4.87 g/m*3 2.3 C 2.94167 km/h
2258 29-11-2020 06:00:00 2.18333 C 4.8 g/m*3 2.18 C 2.66667 km/h
2259 29-11-2020 07:00:00 1.91667 C 4.67 g/m*3 1.92 C 3.34167 km/h
2260 29-11-2020 08:00:00 1.71667 C 4.56 g/m*3 1.72 C 4.29167 km/h
2261 29-11-2020 09:00:00 1.58333 C 4.47 g/m*3 0.11 C 5.225 km/h
2262 29-11-2020 10:00:00 1.775 C 4.48 g/m*3 0.11 C 5.75833 km/h
2263 29-11-2020 11:00:00 2.09167 C 4.47 g/m*3 -0.14 C 7.51667 km/h
2264 29-11-2020 12:00:00 2.3 C 4.48 g/m*3 0.61 C 6.03333 km/h
2265 29-11-2020 13:00:00 2.58333 C 4.48 g/m*3 0.05 C 8.88333 km/h
2266 29-11-2020 14:00:00 2.59167 C 4.44 g/m*3 1 C 5.88333 km/h
2267 29-11-2020 15:00:00 2.3 C 4.37 g/m*3 2.3 C 3.20833 km/h
2268 29-11-2020 16:00:00 0.56667 C 4.11 g/m*3 0.57 C 2.8 km/h
2269 29-11-2020 17:00:00 -0.85833 C 3.96 g/m*3 -0.86 C 1.2 km/h
2270 29-11-2020 18:00:00 -1.75 C 3.84 g/m*3 -1.75 C 0 km/h
2271 29-11-2020 19:00:00 -2.34167 C 3.75 g/m*3 -2.34 C 0 km/h
2272 29-11-2020 20:00:00 -2.71667 C 3.69 g/m*3 -2.72 C 0.26667 km/h
2273 29-11-2020 21:00:00 -3.19167 C 3.59 g/m*3 -3.19 C 0 km/h
2274 29-11-2020 22:00:00 -3.46667 C 3.54 g/m*3 -3.47 C 0.53333 km/h
2275 29-11-2020 23:00:00 -3.55833 C 3.55 g/m*3 -3.56 C 0 km/h
Sensor: Nr:Datum:Temp:Abs-Feuchte:Windchill:Wind:
Aussen-T/F 2276 30-11-2020 00:00:00 -3.9 C 3.46 g/m*3 -3.9 C 0 km/h
2277 30-11-2020 01:00:00 -4.30833 C 3.36 g/m*3 -4.31 C 0 km/h
2278 30-11-2020 02:00:00 -4.55 C 3.31 g/m*3 -4.55 C 0 km/h
2279 30-11-2020 03:00:00 -4.9 C 3.22 g/m*3 -4.9 C 0 km/h
2280 30-11-2020 04:00:00 -5.24167 C 3.15 g/m*3 -5.24 C 0 km/h
2281 30-11-2020 05:00:00 -5.35833 C 3.13 g/m*3 -5.36 C 0 km/h
2282 30-11-2020 06:00:00 -5.21667 C 3.17 g/m*3 -5.22 C 0.26667 km/h
2283 30-11-2020 07:00:00 -5.125 C 3.19 g/m*3 -5.13 C 0.13333 km/h
2284 30-11-2020 08:00:00 -5.76667 C 3.03 g/m*3 -5.77 C 0.4 km/h
2285 30-11-2020 09:00:00 -5.45833 C 3.12 g/m*3 -5.46 C 0.13333 km/h
2286 30-11-2020 10:00:00 -4.81667 C 3.28 g/m*3 -4.82 C 0.53333 km/h
2287 30-11-2020 11:00:00 -3.65833 C 3.56 g/m*3 -3.66 C 1.2 km/h
2288 30-11-2020 12:00:00 -2.33333 C 3.94 g/m*3 -2.33 C 1.73333 km/h
2289 30-11-2020 13:00:00 0.00833 C 4.66 g/m*3 0.01 C 3.475 km/h
2290 30-11-2020 14:00:00 2.01667 C 5.22 g/m*3 2.02 C 3.88333 km/h
2291 30-11-2020 15:00:00 2.25833 C 4.99 g/m*3 2.26 C 3.88333 km/h
2292 30-11-2020 16:00:00 2.9 C 4.91 g/m*3 0.23 C 9.675 km/h
2293 30-11-2020 17:00:00 2.825 C 4.88 g/m*3 0.38 C 8.74167 km/h
2294 30-11-2020 18:00:00 3.075 C 4.93 g/m*3 -0.54 C 14.49167 km/h
2295 30-11-2020 19:00:00 2.575 C 5.09 g/m*3 -0.53 C 11.29167 km/h
2296 30-11-2020 20:00:00 2.10833 C 5.15 g/m*3 -1.51 C 13.29167 km/h
2297 30-11-2020 21:00:00 1.90833 C 5.18 g/m*3 -0.23 C 7.125 km/h
2298 30-11-2020 22:00:00 1.89167 C 5.22 g/m*3 1.89 C 4.825 km/h
2299 30-11-2020 23:00:00 1.575 C 5.11 g/m*3 -1.94 C 12.21667 km/h
2300 01-12-2020 00:00:00 1.25833 C 5.02 g/m*3 -2.12 C 11.29167 km/h
Sensor: Nr:Datum:Temp:Abs-Feuchte:Windchill:Wind:
Aussen-T/F 2301 01-12-2020 01:00:00 1.375 C 5.06 g/m*3 -1.59 C 9.675 km/h
2302 01-12-2020 02:00:00 1.49167 C 5.1 g/m*3 -1.08 C 8.30833 km/h
2303 01-12-2020 03:00:00 1.61667 C 5.14 g/m*3 -1.78 C 11.7 km/h
2304 01-12-2020 04:00:00 1.73333 C 5.18 g/m*3 -1.33 C 10.35833 km/h
2305 01-12-2020 05:00:00 1.81667 C 5.21 g/m*3 -0.37 C 7.24167 km/h
2306 01-12-2020 06:00:00 1.99167 C 5.28 g/m*3 -0.33 C 7.78333 km/h
2307 01-12-2020 07:00:00 2.11667 C 5.33 g/m*3 2.12 C 3.075 km/h
2308 01-12-2020 08:00:00 2.125 C 5.38 g/m*3 2.13 C 1.875 km/h
2309 01-12-2020 09:00:00 2.325 C 5.45 g/m*3 2.33 C 1.06667 km/h
2310 01-12-2020 10:00:00 2.70833 C 5.6 g/m*3 2.71 C 0.4 km/h
2311 01-12-2020 11:00:00 3.06667 C 5.73 g/m*3 3.07 C 0.13333 km/h
2312 01-12-2020 12:00:00 3.46667 C 5.92 g/m*3 3.47 C 0.4 km/h
2313 01-12-2020 13:00:00 4.00833 C 6.14 g/m*3 4.01 C 0 km/h
2314 01-12-2020 14:00:00 4.26667 C 6.21 g/m*3 4.27 C 0.4 km/h
2315 01-12-2020 15:00:00 3.91667 C 6.07 g/m*3 3.92 C 0 km/h
2316 01-12-2020 16:00:00 3.60833 C 5.95 g/m*3 3.61 C 0 km/h
2317 01-12-2020 17:00:00 3.54167 C 5.92 g/m*3 3.54 C 0.13333 km/h
2318 01-12-2020 18:00:00 3.575 C 5.93 g/m*3 3.58 C 0.13333 km/h
2319 01-12-2020 19:00:00 3.6 C 5.94 g/m*3 3.6 C 0 km/h
2320 01-12-2020 20:00:00 3.675 C 5.97 g/m*3 3.68 C 0 km/h
2321 01-12-2020 21:00:00 3.55 C 5.97 g/m*3 3.55 C 0.4 km/h
2322 01-12-2020 22:00:00 3.39167 C 5.89 g/m*3 3.39 C 0.4 km/h
2323 01-12-2020 23:00:00 3.24167 C 5.84 g/m*3 3.24 C 0 km/h
2324 02-12-2020 00:00:00 3.2 C 5.85 g/m*3 3.2 C 0 km/h
2325 02-12-2020 01:00:00 3.10833 C 5.81 g/m*3 3.11 C 0 km/h
Sensor: Nr:Datum:Temp:Abs-Feuchte:Windchill:Wind:
Aussen-T/F 2326 02-12-2020 02:00:00 2.89167 C 5.73 g/m*3 2.89 C 0 km/h
2327 02-12-2020 03:00:00 2.75 C 5.67 g/m*3 2.75 C 1.06667 km/h
2328 02-12-2020 04:00:00 2.65 C 5.63 g/m*3 2.65 C 0 km/h
2329 02-12-2020 05:00:00 2.55 C 5.59 g/m*3 2.55 C 0 km/h
2330 02-12-2020 06:00:00 2.4 C 5.54 g/m*3 2.4 C 0 km/h
2331 02-12-2020 07:00:00 2.4 C 5.54 g/m*3 2.4 C 0 km/h
2332 02-12-2020 08:00:00 2.46667 C 5.56 g/m*3 2.47 C 0 km/h
2333 02-12-2020 09:00:00 2.7 C 5.65 g/m*3 2.7 C 0.26667 km/h
2334 02-12-2020 10:00:00 2.925 C 5.74 g/m*3 2.93 C 0.66667 km/h
2335 02-12-2020 11:00:00 3.075 C 5.77 g/m*3 3.08 C 3.06667 km/h
2336 02-12-2020 12:00:00 3.23333 C 5.8 g/m*3 3.23 C 1.46667 km/h
2337 02-12-2020 13:00:00 3.53333 C 5.9 g/m*3 3.53 C 1.06667 km/h
2338 02-12-2020 14:00:00 3.83333 C 5.95 g/m*3 3.83 C 2.55 km/h
2339 02-12-2020 15:00:00 3.65833 C 5.8 g/m*3 3.66 C 0.26667 km/h
2340 02-12-2020 16:00:00 3.375 C 5.68 g/m*3 3.38 C 0.13333 km/h
2341 02-12-2020 17:00:00 2.94167 C 5.55 g/m*3 2.94 C 0.66667 km/h
2342 02-12-2020 18:00:00 2.6 C 5.44 g/m*3 2.6 C 0.26667 km/h
2343 02-12-2020 19:00:00 2.425 C 5.4 g/m*3 2.42 C 0.13333 km/h
2344 02-12-2020 20:00:00 2.4 C 5.42 g/m*3 2.4 C 0 km/h
2345 02-12-2020 21:00:00 2.38333 C 5.42 g/m*3 2.38 C 0.4 km/h
2346 02-12-2020 22:00:00 2.36667 C 5.41 g/m*3 2.37 C 0 km/h
2347 02-12-2020 23:00:00 2.26667 C 5.38 g/m*3 2.27 C 0 km/h
2348 03-12-2020 00:00:00 2.28333 C 5.38 g/m*3 2.28 C 1.33333 km/h
2349 03-12-2020 01:00:00 2.33333 C 5.4 g/m*3 2.33 C 2.13333 km/h
2350 03-12-2020 02:00:00 2.575 C 5.49 g/m*3 2.58 C 3.33333 km/h
Sensor: Nr:Datum:Temp:Abs-Feuchte:Windchill:Wind:
Aussen-T/F 2351 03-12-2020 03:00:00 2.6 C 5.5 g/m*3 2.6 C 1.33333 km/h
2352 03-12-2020 04:00:00 2.51667 C 5.47 g/m*3 2.52 C 3.73333 km/h
2353 03-12-2020 05:00:00 2.44167 C 5.49 g/m*3 2.44 C 0.26667 km/h
2354 03-12-2020 06:00:00 2.575 C 5.55 g/m*3 2.58 C 0 km/h
2355 03-12-2020 07:00:00 2.7 C 5.59 g/m*3 2.7 C 0.26667 km/h
2356 03-12-2020 08:00:00 2.74167 C 5.61 g/m*3 2.74 C 0.66667 km/h
2357 03-12-2020 09:00:00 3.18333 C 5.77 g/m*3 3.18 C 2 km/h
2358 03-12-2020 10:00:00 4.05 C 5.97 g/m*3 4.05 C 3.475 km/h
2359 03-12-2020 11:00:00 4.43333 C 6 g/m*3 3.41 C 5.08333 km/h
2360 03-12-2020 12:00:00 4.79167 C 6.04 g/m*3 3.66 C 5.49167 km/h
2361 03-12-2020 13:00:00 5.14167 C 6.08 g/m*3 3.75 C 6.425 km/h
2362 03-12-2020 14:00:00 5.05833 C 5.99 g/m*3 3.83 C 5.89167 km/h
2363 03-12-2020 15:00:00 4.7 C 5.91 g/m*3 4.7 C 1.86667 km/h
2364 03-12-2020 16:00:00 4.46667 C 5.87 g/m*3 4.47 C 1.2 km/h
2365 03-12-2020 17:00:00 4.28333 C 5.85 g/m*3 4.28 C 4.69167 km/h
2366 03-12-2020 18:00:00 4.3 C 5.81 g/m*3 2.91 C 6.025 km/h
2367 03-12-2020 19:00:00 4.25 C 5.74 g/m*3 2.95 C 5.75 km/h
2368 03-12-2020 20:00:00 4.00833 C 5.6 g/m*3 2.57 C 6.03333 km/h
2369 03-12-2020 21:00:00 3.825 C 5.53 g/m*3 1.93 C 7.375 km/h
2370 03-12-2020 22:00:00 3.55833 C 5.45 g/m*3 1.58 C 7.525 km/h
2371 03-12-2020 23:00:00 3.375 C 5.5 g/m*3 1.8 C 6.16667 km/h
2372 04-12-2020 00:00:00 3.2 C 5.48 g/m*3 1.08 C 7.775 km/h
2373 04-12-2020 01:00:00 3.00833 C 5.41 g/m*3 -0.09 C 11.69167 km/h
2374 04-12-2020 02:00:00 2.875 C 5.39 g/m*3 -0.17 C 11.29167 km/h
2375 04-12-2020 03:00:00 3.05833 C 5.54 g/m*3 0.61 C 8.88333 km/h
Sensor: Nr:Datum:Temp:Abs-Feuchte:Windchill:Wind:
Aussen-T/F 2376 04-12-2020 04:00:00 3.23333 C 5.62 g/m*3 0.04 C 12.36667 km/h
2377 04-12-2020 05:00:00 3.40833 C 5.7 g/m*3 2.02 C 5.64167 km/h
2378 04-12-2020 06:00:00 3.675 C 5.89 g/m*3 3.68 C 4.00833 km/h
2379 04-12-2020 07:00:00 3.775 C 5.95 g/m*3 3.78 C 2.675 km/h
2380 04-12-2020 08:00:00 4.10833 C 6.14 g/m*3 4.11 C 3.35 km/h
2381 04-12-2020 09:00:00 4.63333 C 6.37 g/m*3 4.63 C 3.6 km/h
2382 04-12-2020 10:00:00 5.36667 C 6.68 g/m*3 5.37 C 3.475 km/h
2383 04-12-2020 11:00:00 6.05 C 6.98 g/m*3 6.05 C 2.675 km/h
2384 04-12-2020 12:00:00 6.975 C 7.25 g/m*3 6.98 C 1.6 km/h
2385 04-12-2020 13:00:00 7.325 C 7.29 g/m*3 7.33 C 2.26667 km/h
2386 04-12-2020 14:00:00 7.64167 C 7.39 g/m*3 7.64 C 0.13333 km/h
2387 04-12-2020 15:00:00 7.05 C 7.16 g/m*3 7.05 C 0.93333 km/h
2388 04-12-2020 16:00:00 6.11667 C 6.8 g/m*3 6.12 C 2 km/h
2389 04-12-2020 17:00:00 5.19167 C 6.46 g/m*3 5.19 C 3.2 km/h
2390 04-12-2020 18:00:00 4.5 C 6.22 g/m*3 4.5 C 4.53333 km/h
2391 04-12-2020 19:00:00 3.68333 C 5.92 g/m*3 3.68 C 3.33333 km/h
2392 04-12-2020 20:00:00 3.84167 C 6.03 g/m*3 3.84 C 0 km/h
2393 04-12-2020 21:00:00 3.34167 C 5.84 g/m*3 3.34 C 0 km/h
2394 04-12-2020 22:00:00 3.35833 C 5.85 g/m*3 3.36 C 0 km/h
2395 04-12-2020 23:00:00 4.35 C 6.31 g/m*3 4.35 C 1.60833 km/h
2396 05-12-2020 00:00:00 4.50833 C 6.38 g/m*3 4.51 C 0 km/h
2397 05-12-2020 01:00:00 4.41667 C 6.34 g/m*3 4.42 C 0 km/h
2398 05-12-2020 02:00:00 4.40833 C 6.34 g/m*3 4.41 C 0 km/h
2399 05-12-2020 03:00:00 4.49167 C 6.37 g/m*3 4.49 C 0 km/h
2400 05-12-2020 04:00:00 4.29167 C 6.28 g/m*3 4.29 C 0 km/h
Sensor: Nr:Datum:Temp:Abs-Feuchte:Windchill:Wind:
Aussen-T/F 2401 05-12-2020 05:00:00 3.8 C 6.05 g/m*3 3.8 C 0 km/h
2402 05-12-2020 06:00:00 3.75833 C 6.07 g/m*3 3.76 C 0 km/h
2403 05-12-2020 07:00:00 3.74167 C 6.06 g/m*3 3.74 C 0 km/h
2404 05-12-2020 08:00:00 3.73333 C 6.06 g/m*3 3.73 C 0 km/h
2405 05-12-2020 09:00:00 4.46667 C 6.36 g/m*3 4.47 C 0 km/h
2406 05-12-2020 10:00:00 4.575 C 6.41 g/m*3 4.58 C 0 km/h
2407 05-12-2020 11:00:00 4.45833 C 6.36 g/m*3 4.46 C 2.93333 km/h
2408 05-12-2020 12:00:00 5.35833 C 6.77 g/m*3 5.36 C 1.46667 km/h
2409 05-12-2020 13:00:00 5.45 C 6.44 g/m*3 5.45 C 4.81667 km/h
2410 05-12-2020 14:00:00 5.69167 C 6.46 g/m*3 5.69 C 1.06667 km/h
2411 05-12-2020 15:00:00 4.29167 C 5.96 g/m*3 4.29 C 3.46667 km/h
2412 05-12-2020 16:00:00 3.075 C 5.59 g/m*3 3.08 C 0.53333 km/h
2413 05-12-2020 17:00:00 2.70833 C 5.52 g/m*3 2.71 C 2.93333 km/h
2414 05-12-2020 18:00:00 2.86667 C 5.62 g/m*3 2.87 C 0.13333 km/h
2415 05-12-2020 19:00:00 3.63333 C 5.96 g/m*3 3.63 C 0 km/h
2416 05-12-2020 20:00:00 3.88333 C 6.06 g/m*3 3.88 C 0 km/h
2417 05-12-2020 21:00:00 4.075 C 6.13 g/m*3 4.08 C 0 km/h
2418 05-12-2020 22:00:00 3.94167 C 6.08 g/m*3 3.94 C 0.53333 km/h
2419 05-12-2020 23:00:00 3.44167 C 5.82 g/m*3 3.44 C 1.34167 km/h
2420 06-12-2020 00:00:00 2.53333 C 5.47 g/m*3 2.53 C 0.53333 km/h
2421 06-12-2020 01:00:00 2.24167 C 5.4 g/m*3 2.24 C 0.13333 km/h
2422 06-12-2020 02:00:00 2.3 C 5.44 g/m*3 2.3 C 0 km/h
2423 06-12-2020 03:00:00 2.81667 C 5.64 g/m*3 2.82 C 0.26667 km/h
2424 06-12-2020 04:00:00 3.15833 C 5.77 g/m*3 3.16 C 0 km/h
2425 06-12-2020 05:00:00 3.2 C 5.8 g/m*3 3.2 C 0 km/h
Sensor: Nr:Datum:Temp:Abs-Feuchte:Windchill:Wind:
Aussen-T/F 2426 06-12-2020 06:00:00 3.29167 C 5.84 g/m*3 3.29 C 0 km/h
2427 06-12-2020 07:00:00 3.3 C 5.82 g/m*3 3.3 C 0 km/h
2428 06-12-2020 08:00:00 3.31667 C 5.85 g/m*3 3.32 C 0 km/h
2429 06-12-2020 09:00:00 3.59167 C 6 g/m*3 3.59 C 0 km/h
2430 06-12-2020 10:00:00 3.91667 C 6.13 g/m*3 3.92 C 1.06667 km/h
2431 06-12-2020 11:00:00 4.18333 C 6.24 g/m*3 4.18 C 0.8 km/h
2432 06-12-2020 12:00:00 4.45833 C 6.36 g/m*3 4.46 C 1.46667 km/h
2433 06-12-2020 13:00:00 4.775 C 6.47 g/m*3 4.78 C 1.6 km/h
2434 06-12-2020 14:00:00 4.9 C 6.48 g/m*3 4.9 C 0.4 km/h
2435 06-12-2020 15:00:00 5.00833 C 6.54 g/m*3 5.01 C 0 km/h
2436 06-12-2020 16:00:00 4.94167 C 6.5 g/m*3 4.94 C 0 km/h
2437 06-12-2020 17:00:00 4.8 C 6.47 g/m*3 4.8 C 1.73333 km/h
2438 06-12-2020 18:00:00 4.75 C 6.42 g/m*3 4.75 C 2.13333 km/h
2439 06-12-2020 19:00:00 4.7 C 6.44 g/m*3 4.7 C 0.66667 km/h
2440 06-12-2020 20:00:00 4.625 C 6.4 g/m*3 4.63 C 1.6 km/h
2441 06-12-2020 21:00:00 4.575 C 6.41 g/m*3 4.58 C 2 km/h
2442 06-12-2020 22:00:00 4.5 C 6.38 g/m*3 4.5 C 0 km/h
2443 06-12-2020 23:00:00 4.41667 C 6.34 g/m*3 4.42 C 0 km/h
2444 07-12-2020 00:00:00 4.325 C 6.29 g/m*3 4.33 C 0.8 km/h
2445 07-12-2020 01:00:00 4.3 C 6.29 g/m*3 4.3 C 0.8 km/h
2446 07-12-2020 02:00:00 4.20833 C 6.25 g/m*3 4.21 C 0.66667 km/h
2447 07-12-2020 03:00:00 4.1 C 6.21 g/m*3 4.1 C 1.73333 km/h
2448 07-12-2020 04:00:00 4 C 6.17 g/m*3 4 C 0.93333 km/h
2449 07-12-2020 05:00:00 3.875 C 6.12 g/m*3 3.88 C 0.66667 km/h
2450 07-12-2020 06:00:00 3.9 C 6.13 g/m*3 3.9 C 3.2 km/h
Sensor: Nr:Datum:Temp:Abs-Feuchte:Windchill:Wind:
Aussen-T/F 2451 07-12-2020 07:00:00 3.81667 C 6.09 g/m*3 3.82 C 1.46667 km/h
2452 07-12-2020 08:00:00 3.825 C 6.1 g/m*3 3.83 C 4.80833 km/h
2453 07-12-2020 09:00:00 3.94167 C 6.14 g/m*3 2.85 C 5.08333 km/h
2454 07-12-2020 10:00:00 4.46667 C 6.36 g/m*3 4.47 C 4.13333 km/h
2455 07-12-2020 11:00:00 5.05 C 6.58 g/m*3 3.18 C 8.05 km/h
2456 07-12-2020 12:00:00 5.55833 C 6.63 g/m*3 3.55 C 9 km/h
2457 07-12-2020 13:00:00 6.125 C 6.58 g/m*3 4.15 C 9.29167 km/h
2458 07-12-2020 14:00:00 6.28333 C 6.56 g/m*3 6.28 C 3.60833 km/h
2459 07-12-2020 15:00:00 5.9 C 6.49 g/m*3 5.9 C 2.26667 km/h
2460 07-12-2020 16:00:00 5.325 C 6.37 g/m*3 5.33 C 1.06667 km/h
2461 07-12-2020 17:00:00 4.86667 C 6.29 g/m*3 4.87 C 1.06667 km/h
2462 07-12-2020 18:00:00 4.44167 C 6.15 g/m*3 4.44 C 0.8 km/h
2463 07-12-2020 19:00:00 3.15833 C 5.64 g/m*3 3.16 C 3.2 km/h
2464 07-12-2020 20:00:00 1.88333 C 5.21 g/m*3 1.88 C 4.4 km/h
2465 07-12-2020 21:00:00 1.85 C 5.27 g/m*3 1.85 C 1.46667 km/h
2466 07-12-2020 22:00:00 2.51667 C 5.52 g/m*3 2.52 C 0 km/h
2467 07-12-2020 23:00:00 2.80833 C 5.63 g/m*3 2.81 C 0 km/h
2468 08-12-2020 00:00:00 3.075 C 5.74 g/m*3 3.08 C 0 km/h
2469 08-12-2020 01:00:00 3.10833 C 5.75 g/m*3 3.11 C 0 km/h
2470 08-12-2020 02:00:00 3.00833 C 5.72 g/m*3 3.01 C 0 km/h
2471 08-12-2020 03:00:00 2.875 C 5.69 g/m*3 2.88 C 0.26667 km/h
2472 08-12-2020 04:00:00 3.225 C 5.86 g/m*3 3.23 C 0 km/h
2473 08-12-2020 05:00:00 3.11667 C 5.76 g/m*3 3.12 C 0.8 km/h
2474 08-12-2020 06:00:00 2.93333 C 5.67 g/m*3 2.93 C 0.66667 km/h
2475 08-12-2020 07:00:00 2.9 C 5.61 g/m*3 2.9 C 0 km/h
Sensor: Nr:Datum:Temp:Abs-Feuchte:Windchill:Wind:
Aussen-T/F 2476 08-12-2020 08:00:00 2.66667 C 5.49 g/m*3 2.67 C 0.4 km/h
2477 08-12-2020 09:00:00 2.75833 C 5.56 g/m*3 2.76 C 0 km/h
2478 08-12-2020 10:00:00 3.40833 C 5.71 g/m*3 3.41 C 3.75 km/h
2479 08-12-2020 11:00:00 4.35833 C 5.81 g/m*3 4.36 C 4.275 km/h
2480 08-12-2020 12:00:00 4.95 C 5.79 g/m*3 4.95 C 4.55833 km/h
2481 08-12-2020 13:00:00 5.35833 C 5.83 g/m*3 4.36 C 5.35833 km/h
2482 08-12-2020 14:00:00 5.71667 C 5.9 g/m*3 5.72 C 4.81667 km/h
2483 08-12-2020 15:00:00 5.78333 C 6.05 g/m*3 5.78 C 0.93333 km/h
2484 08-12-2020 16:00:00 5.175 C 6.07 g/m*3 5.18 C 0.66667 km/h
2485 08-12-2020 17:00:00 4.45 C 5.97 g/m*3 4.45 C 1.6 km/h
2486 08-12-2020 18:00:00 3.625 C 5.73 g/m*3 3.63 C 1.2 km/h
2487 08-12-2020 19:00:00 2.8 C 5.46 g/m*3 2.8 C 0.26667 km/h
2488 08-12-2020 20:00:00 2.3 C 5.33 g/m*3 2.3 C 0 km/h
2489 08-12-2020 21:00:00 1.79167 C 5.17 g/m*3 1.79 C 0 km/h
2490 08-12-2020 22:00:00 0.94167 C 4.91 g/m*3 0.94 C 0 km/h
2491 08-12-2020 23:00:00 0.475 C 4.76 g/m*3 0.48 C 0 km/h
2492 09-12-2020 00:00:00 0.175 C 4.68 g/m*3 0.18 C 0 km/h
2493 09-12-2020 01:00:00 0.84167 C 4.93 g/m*3 0.84 C 0 km/h
2494 09-12-2020 02:00:00 1.35833 C 5.11 g/m*3 1.36 C 0 km/h
2495 09-12-2020 03:00:00 1.69167 C 5.26 g/m*3 1.69 C 0 km/h
2496 09-12-2020 04:00:00 2.31667 C 5.51 g/m*3 2.32 C 1.73333 km/h
2497 09-12-2020 05:00:00 2.80833 C 5.68 g/m*3 2.81 C 3.20833 km/h
2498 09-12-2020 06:00:00 3 C 5.66 g/m*3 3 C 3.34167 km/h
2499 09-12-2020 07:00:00 3.175 C 5.57 g/m*3 1.66 C 5.90833 km/h
2500 09-12-2020 08:00:00 3.24167 C 5.54 g/m*3 3.24 C 3.20833 km/h
Sensor: Nr:Datum:Temp:Abs-Feuchte:Windchill:Wind:
Aussen-T/F 2501 09-12-2020 09:00:00 3.21667 C 5.55 g/m*3 3.22 C 0.26667 km/h
2502 09-12-2020 10:00:00 3.425 C 5.62 g/m*3 3.43 C 0.13333 km/h
2503 09-12-2020 11:00:00 3.75 C 5.66 g/m*3 3.75 C 0.66667 km/h
2504 09-12-2020 12:00:00 4.16667 C 5.74 g/m*3 4.17 C 0.8 km/h
2505 09-12-2020 13:00:00 4.59167 C 5.78 g/m*3 3.34 C 5.75833 km/h
2506 09-12-2020 14:00:00 4.525 C 5.53 g/m*3 2.42 C 8.6 km/h
2507 09-12-2020 15:00:00 3.775 C 5.32 g/m*3 2.4 C 5.75833 km/h
2508 09-12-2020 16:00:00 2.30833 C 5 g/m*3 2.31 C 4.13333 km/h
2509 09-12-2020 17:00:00 0.85833 C 4.69 g/m*3 0.86 C 2.13333 km/h
2510 09-12-2020 18:00:00 -0.05833 C 4.47 g/m*3 -0.06 C 1.2 km/h
2511 09-12-2020 19:00:00 -0.25833 C 4.49 g/m*3 -0.26 C 3.33333 km/h
2512 09-12-2020 20:00:00 0.31667 C 4.7 g/m*3 0.32 C 1.6 km/h
2513 09-12-2020 21:00:00 0.70833 C 4.8 g/m*3 0.71 C 1.06667 km/h
2514 09-12-2020 22:00:00 1.03333 C 4.86 g/m*3 1.03 C 1.2 km/h
2515 09-12-2020 23:00:00 1.19167 C 4.87 g/m*3 1.19 C 1.6 km/h
2516 10-12-2020 00:00:00 1.36667 C 4.88 g/m*3 1.37 C 1.06667 km/h
2517 10-12-2020 01:00:00 1.41667 C 4.9 g/m*3 1.42 C 0.53333 km/h
2518 10-12-2020 02:00:00 1.55833 C 4.95 g/m*3 1.56 C 0.66667 km/h
2519 10-12-2020 03:00:00 1.59167 C 4.94 g/m*3 1.59 C 1.33333 km/h
2520 10-12-2020 04:00:00 0.81667 C 4.67 g/m*3 0.82 C 1.2 km/h
2521 10-12-2020 05:00:00 -0.3 C 4.39 g/m*3 -0.3 C 0.26667 km/h
2522 10-12-2020 06:00:00 -0.875 C 4.28 g/m*3 -0.88 C 0 km/h
2523 10-12-2020 07:00:00 -1.375 C 4.14 g/m*3 -1.38 C 0 km/h
2524 10-12-2020 08:00:00 -1.78333 C 4.06 g/m*3 -1.78 C 0 km/h
2525 10-12-2020 09:00:00 -1.85 C 4.05 g/m*3 -1.85 C 0 km/h
Sensor: Nr:Datum:Temp:Abs-Feuchte:Windchill:Wind:
Aussen-T/F 2526 10-12-2020 10:00:00 -1.39167 C 4.22 g/m*3 -1.39 C 0 km/h
2527 10-12-2020 11:00:00 -0.50833 C 4.49 g/m*3 -0.51 C 2.4 km/h
2528 10-12-2020 12:00:00 0.05 C 4.67 g/m*3 0.05 C 1.06667 km/h
2529 10-12-2020 13:00:00 0.46667 C 4.82 g/m*3 0.47 C 0.26667 km/h
2530 10-12-2020 14:00:00 1.175 C 5.05 g/m*3 1.18 C 0.8 km/h
2531 10-12-2020 15:00:00 1.1 C 4.9 g/m*3 1.1 C 1.46667 km/h
2532 10-12-2020 16:00:00 1.175 C 4.84 g/m*3 1.18 C 0.26667 km/h
2533 10-12-2020 17:00:00 0.925 C 4.74 g/m*3 0.93 C 0 km/h
2534 10-12-2020 18:00:00 0.74167 C 4.67 g/m*3 0.74 C 0 km/h
2535 10-12-2020 19:00:00 0.63333 C 4.67 g/m*3 0.63 C 0 km/h
2536 10-12-2020 20:00:00 0.81667 C 4.77 g/m*3 0.82 C 0 km/h
2537 10-12-2020 21:00:00 0.99167 C 4.82 g/m*3 0.99 C 0.26667 km/h
2538 10-12-2020 22:00:00 1.175 C 4.89 g/m*3 1.18 C 0.13333 km/h
2539 10-12-2020 23:00:00 1.23333 C 4.87 g/m*3 1.23 C 0.8 km/h
2540 11-12-2020 00:00:00 1.39167 C 4.9 g/m*3 1.39 C 0.26667 km/h
2541 11-12-2020 01:00:00 1.2 C 4.82 g/m*3 1.2 C 0 km/h
2542 11-12-2020 02:00:00 0.325 C 4.59 g/m*3 0.33 C 0.66667 km/h
2543 11-12-2020 03:00:00 0.925 C 4.82 g/m*3 0.93 C 2.54167 km/h
2544 11-12-2020 04:00:00 0.65833 C 4.69 g/m*3 0.66 C 1.2 km/h
2545 11-12-2020 05:00:00 0.15833 C 4.57 g/m*3 0.16 C 1.86667 km/h
2546 11-12-2020 06:00:00 0.54167 C 4.74 g/m*3 0.54 C 4.55 km/h
2547 11-12-2020 07:00:00 1.64167 C 4.93 g/m*3 1.64 C 3.34167 km/h
2548 11-12-2020 08:00:00 2.14167 C 4.96 g/m*3 2.14 C 4.825 km/h
2549 11-12-2020 09:00:00 2.575 C 5.07 g/m*3 0.97 C 5.9 km/h
2550 11-12-2020 10:00:00 3.125 C 5.21 g/m*3 3.13 C 4.00833 km/h
Sensor: Nr:Datum:Temp:Abs-Feuchte:Windchill:Wind:
Aussen-T/F 2551 11-12-2020 11:00:00 3.44167 C 5.38 g/m*3 1.83 C 6.29167 km/h
2552 11-12-2020 12:00:00 3.7 C 5.54 g/m*3 2.47 C 5.34167 km/h
2553 11-12-2020 13:00:00 4.44167 C 5.66 g/m*3 2.85 C 6.71667 km/h
2554 11-12-2020 14:00:00 4.49167 C 5.58 g/m*3 2.28 C 9.025 km/h
2555 11-12-2020 15:00:00 4.05833 C 5.56 g/m*3 2.16 C 7.51667 km/h
2556 11-12-2020 16:00:00 3.63333 C 5.58 g/m*3 1.91 C 6.71667 km/h
2557 11-12-2020 17:00:00 3.71667 C 5.66 g/m*3 1.47 C 8.58333 km/h
2558 11-12-2020 18:00:00 3.68333 C 5.71 g/m*3 2.15 C 6.16667 km/h
2559 11-12-2020 19:00:00 3.79167 C 5.76 g/m*3 2.01 C 6.98333 km/h
2560 11-12-2020 20:00:00 3.94167 C 5.83 g/m*3 3.94 C 1.6 km/h
2561 11-12-2020 21:00:00 3.925 C 5.86 g/m*3 3.93 C 0 km/h
2562 11-12-2020 22:00:00 3.825 C 5.85 g/m*3 3.83 C 0 km/h
2563 11-12-2020 23:00:00 3.85 C 5.92 g/m*3 3.85 C 0 km/h
2564 12-12-2020 00:00:00 3.81667 C 5.94 g/m*3 3.82 C 0.4 km/h
2565 12-12-2020 01:00:00 4.05 C 6.06 g/m*3 4.05 C 0.66667 km/h
2566 12-12-2020 02:00:00 4.40833 C 6.22 g/m*3 4.41 C 1.2 km/h
2567 12-12-2020 03:00:00 4.80833 C 6.38 g/m*3 4.81 C 0 km/h
2568 12-12-2020 04:00:00 4.9 C 6.41 g/m*3 4.9 C 0 km/h
2569 12-12-2020 05:00:00 4.90833 C 6.42 g/m*3 4.91 C 0 km/h
2570 12-12-2020 06:00:00 5.05833 C 6.48 g/m*3 5.06 C 0 km/h
2571 12-12-2020 07:00:00 5.15 C 6.58 g/m*3 5.15 C 0.4 km/h
2572 12-12-2020 08:00:00 5.28333 C 6.65 g/m*3 5.28 C 0 km/h
2573 12-12-2020 09:00:00 5.625 C 6.8 g/m*3 5.63 C 0 km/h
2574 12-12-2020 10:00:00 6.16667 C 7.03 g/m*3 6.17 C 0 km/h
2575 12-12-2020 11:00:00 6.80833 C 7.18 g/m*3 6.81 C 0 km/h
Sensor: Nr:Datum:Temp:Abs-Feuchte:Windchill:Wind:
Aussen-T/F 2576 12-12-2020 12:00:00 7.4 C 7.31 g/m*3 7.4 C 0.4 km/h
2577 12-12-2020 13:00:00 7.7 C 7.38 g/m*3 7.7 C 0.66667 km/h
2578 12-12-2020 14:00:00 7.68333 C 7.44 g/m*3 7.68 C 0.26667 km/h
2579 12-12-2020 15:00:00 7.475 C 7.53 g/m*3 7.48 C 0 km/h
2580 12-12-2020 16:00:00 7.2 C 7.43 g/m*3 7.2 C 0 km/h
2581 12-12-2020 17:00:00 6.7 C 7.21 g/m*3 6.7 C 0 km/h
2582 12-12-2020 18:00:00 6.66667 C 7.23 g/m*3 6.67 C 0 km/h
2583 12-12-2020 19:00:00 6.36667 C 7.12 g/m*3 6.37 C 0 km/h
2584 12-12-2020 20:00:00 6.66667 C 7.28 g/m*3 6.67 C 0.13333 km/h
2585 12-12-2020 21:00:00 6.675 C 7.29 g/m*3 6.68 C 0 km/h
2586 12-12-2020 22:00:00 6.55 C 7.27 g/m*3 6.55 C 0 km/h
2587 12-12-2020 23:00:00 6.2 C 7.1 g/m*3 6.2 C 0 km/h
2588 13-12-2020 00:00:00 6.35833 C 7.21 g/m*3 6.36 C 0 km/h
2589 13-12-2020 01:00:00 6.18333 C 7.13 g/m*3 6.18 C 0 km/h
2590 13-12-2020 02:00:00 6.40833 C 7.23 g/m*3 6.41 C 0 km/h
2591 13-12-2020 03:00:00 6.83333 C 7.43 g/m*3 6.83 C 0.13333 km/h
2592 13-12-2020 04:00:00 7.23333 C 7.63 g/m*3 7.23 C 2.8 km/h
2593 13-12-2020 05:00:00 7.3 C 7.66 g/m*3 7.3 C 0 km/h
2594 13-12-2020 06:00:00 7.275 C 7.65 g/m*3 7.28 C 1.46667 km/h
2595 13-12-2020 07:00:00 7.30833 C 7.67 g/m*3 7.31 C 2.53333 km/h
2596 13-12-2020 08:00:00 7.21667 C 7.62 g/m*3 7.22 C 2.4 km/h
2597 13-12-2020 09:00:00 7.24167 C 7.64 g/m*3 7.24 C 1.2 km/h
2598 13-12-2020 10:00:00 6.45833 C 7.25 g/m*3 6.46 C 2.53333 km/h
2599 13-12-2020 11:00:00 6.39167 C 7.22 g/m*3 5.31 C 6.03333 km/h
2600 13-12-2020 12:00:00 6.6 C 7.2 g/m*3 5.47 C 6.31667 km/h
Sensor: Nr:Datum:Temp:Abs-Feuchte:Windchill:Wind:
Aussen-T/F 2601 13-12-2020 13:00:00 7.825 C 7.25 g/m*3 7.09 C 5.61667 km/h
2602 13-12-2020 14:00:00 7.675 C 7.03 g/m*3 7.68 C 4.28333 km/h
2603 13-12-2020 15:00:00 6.46667 C 6.66 g/m*3 6.47 C 4.26667 km/h
2604 13-12-2020 16:00:00 5.325 C 6.31 g/m*3 5.33 C 4.93333 km/h
2605 13-12-2020 17:00:00 4.04167 C 5.9 g/m*3 4.04 C 4.8 km/h
2606 13-12-2020 18:00:00 3.5 C 5.79 g/m*3 3.5 C 0 km/h
2607 13-12-2020 19:00:00 3.6 C 5.88 g/m*3 3.6 C 0 km/h
2608 13-12-2020 20:00:00 3.66667 C 5.93 g/m*3 3.67 C 0.4 km/h
2609 13-12-2020 21:00:00 4.24167 C 6.16 g/m*3 4.24 C 1.06667 km/h
2610 13-12-2020 22:00:00 3.49167 C 5.78 g/m*3 3.49 C 1.73333 km/h
2611 13-12-2020 23:00:00 3.15 C 5.69 g/m*3 3.15 C 2.80833 km/h
2612 14-12-2020 00:00:00 3.3 C 5.78 g/m*3 3.3 C 2.8 km/h
2613 14-12-2020 01:00:00 3.90833 C 6.02 g/m*3 3.91 C 0 km/h
2614 14-12-2020 02:00:00 4.44167 C 6.15 g/m*3 4.44 C 2 km/h
2615 14-12-2020 03:00:00 4.04167 C 6 g/m*3 4.04 C 1.33333 km/h
2616 14-12-2020 04:00:00 4.78333 C 6.36 g/m*3 4.78 C 0.26667 km/h
2617 14-12-2020 05:00:00 5.15833 C 6.52 g/m*3 5.16 C 0 km/h
2618 14-12-2020 06:00:00 5.3 C 6.52 g/m*3 5.3 C 0 km/h
2619 14-12-2020 07:00:00 5.50833 C 6.59 g/m*3 5.51 C 0.13333 km/h
2620 14-12-2020 08:00:00 5.675 C 6.6 g/m*3 5.68 C 1.06667 km/h
2621 14-12-2020 09:00:00 6.21667 C 6.66 g/m*3 6.22 C 1.46667 km/h
2622 14-12-2020 10:00:00 7.025 C 6.78 g/m*3 7.03 C 0.53333 km/h
2623 14-12-2020 11:00:00 6.55833 C 6.71 g/m*3 6.56 C 0.93333 km/h
2624 14-12-2020 12:00:00 6.48333 C 6.79 g/m*3 6.48 C 3.34167 km/h
2625 14-12-2020 13:00:00 7.775 C 7.24 g/m*3 7.78 C 1.2 km/h
Sensor: Nr:Datum:Temp:Abs-Feuchte:Windchill:Wind:
Aussen-T/F 2626 14-12-2020 14:00:00 9.05 C 7.22 g/m*3 9.05 C 2.26667 km/h
2627 14-12-2020 15:00:00 8.89167 C 7.22 g/m*3 8.89 C 1.075 km/h
2628 14-12-2020 16:00:00 7.40833 C 6.8 g/m*3 7.41 C 2.66667 km/h
2629 14-12-2020 17:00:00 6.05 C 6.49 g/m*3 6.05 C 1.06667 km/h
2630 14-12-2020 18:00:00 5.85833 C 6.51 g/m*3 5.86 C 0.8 km/h
2631 14-12-2020 19:00:00 6.05 C 6.6 g/m*3 6.05 C 2.26667 km/h
2632 14-12-2020 20:00:00 6.10833 C 6.65 g/m*3 6.11 C 0.13333 km/h
2633 14-12-2020 21:00:00 6.28333 C 6.67 g/m*3 6.28 C 0.4 km/h
2634 14-12-2020 22:00:00 7.24167 C 6.76 g/m*3 7.24 C 3.61667 km/h
2635 14-12-2020 23:00:00 6.94167 C 6.71 g/m*3 6.94 C 0.26667 km/h
2636 15-12-2020 00:00:00 6.70833 C 6.76 g/m*3 6.71 C 0.53333 km/h
2637 15-12-2020 01:00:00 6.75 C 6.94 g/m*3 6.75 C 2 km/h
2638 15-12-2020 02:00:00 6.775 C 7.11 g/m*3 6.78 C 1.2 km/h
2639 15-12-2020 03:00:00 6.8 C 7.22 g/m*3 6.8 C 2.4 km/h
2640 15-12-2020 04:00:00 6.8 C 7.27 g/m*3 6.8 C 0.8 km/h
2641 15-12-2020 05:00:00 6.78333 C 7.33 g/m*3 6.78 C 0 km/h
2642 15-12-2020 06:00:00 6.775 C 7.33 g/m*3 6.78 C 0 km/h
2643 15-12-2020 07:00:00 6.73333 C 7.31 g/m*3 6.73 C 0.13333 km/h
2644 15-12-2020 08:00:00 6.56667 C 7.26 g/m*3 6.57 C 0 km/h
2645 15-12-2020 09:00:00 6.96667 C 7.5 g/m*3 6.97 C 0 km/h
2646 15-12-2020 10:00:00 7.66667 C 7.85 g/m*3 7.67 C 0.66667 km/h
2647 15-12-2020 11:00:00 8.45 C 8.26 g/m*3 8.45 C 1.06667 km/h
2648 15-12-2020 12:00:00 9.00833 C 8.56 g/m*3 9.01 C 0.93333 km/h
2649 15-12-2020 13:00:00 9.7 C 8.94 g/m*3 9.7 C 0 km/h
2650 15-12-2020 14:00:00 9.80833 C 9 g/m*3 9.81 C 0 km/h
Sensor: Nr:Datum:Temp:Abs-Feuchte:Windchill:Wind:
Aussen-T/F 2651 15-12-2020 15:00:00 9.91667 C 9.07 g/m*3 9.92 C 0 km/h
2652 15-12-2020 16:00:00 9.86667 C 9.04 g/m*3 9.87 C 0.26667 km/h
2653 15-12-2020 17:00:00 9.75833 C 8.98 g/m*3 9.76 C 0 km/h
2654 15-12-2020 18:00:00 9.79167 C 8.99 g/m*3 9.79 C 2.8 km/h
2655 15-12-2020 19:00:00 8.9 C 8.5 g/m*3 8.9 C 3.33333 km/h
2656 15-12-2020 20:00:00 7.90833 C 7.97 g/m*3 7.91 C 2.675 km/h
2657 15-12-2020 21:00:00 7.10833 C 7.56 g/m*3 7.11 C 1.86667 km/h
2658 15-12-2020 22:00:00 6.225 C 7.14 g/m*3 6.23 C 0.13333 km/h
2659 15-12-2020 23:00:00 5.91667 C 7.01 g/m*3 5.92 C 0.13333 km/h
2660 16-12-2020 00:00:00 6.625 C 7.37 g/m*3 6.63 C 0.13333 km/h
2661 16-12-2020 01:00:00 6.325 C 7.19 g/m*3 6.33 C 0.13333 km/h
2662 16-12-2020 02:00:00 6.41667 C 7.3 g/m*3 6.42 C 0.26667 km/h
2663 16-12-2020 03:00:00 6.73333 C 7.46 g/m*3 6.73 C 0.13333 km/h
2664 16-12-2020 04:00:00 6.70833 C 7.45 g/m*3 6.71 C 0 km/h
2665 16-12-2020 05:00:00 6.3 C 7.19 g/m*3 6.3 C 0 km/h
2666 16-12-2020 06:00:00 6.425 C 7.3 g/m*3 6.43 C 0 km/h
2667 16-12-2020 07:00:00 6.50833 C 7.35 g/m*3 6.51 C 0.13333 km/h
2668 16-12-2020 08:00:00 7.15833 C 7.67 g/m*3 7.16 C 0 km/h
2669 16-12-2020 09:00:00 7.44167 C 7.81 g/m*3 7.44 C 0 km/h
2670 16-12-2020 10:00:00 8.43333 C 8.33 g/m*3 8.43 C 0.13333 km/h
2671 16-12-2020 11:00:00 9.43333 C 8.88 g/m*3 9.43 C 0.4 km/h
2672 16-12-2020 12:00:00 9.89167 C 9.15 g/m*3 9.89 C 4.275 km/h
2673 16-12-2020 13:00:00 9.91667 C 9.06 g/m*3 9.92 C 4.41667 km/h
2674 16-12-2020 14:00:00 9.76667 C 8.85 g/m*3 9.77 C 2.93333 km/h
2675 16-12-2020 15:00:00 9.46667 C 8.65 g/m*3 9.47 C 0.4 km/h
Sensor: Nr:Datum:Temp:Abs-Feuchte:Windchill:Wind:
Aussen-T/F 2676 16-12-2020 16:00:00 7.875 C 7.79 g/m*3 7.88 C 1.6 km/h
2677 16-12-2020 17:00:00 7.125 C 7.51 g/m*3 7.13 C 2.93333 km/h
2678 16-12-2020 18:00:00 6.875 C 7.41 g/m*3 6.88 C 3.06667 km/h
2679 16-12-2020 19:00:00 7 C 7.52 g/m*3 7 C 2.13333 km/h
2680 16-12-2020 20:00:00 6.71667 C 7.38 g/m*3 6.72 C 2 km/h
2681 16-12-2020 21:00:00 6.31667 C 7.19 g/m*3 6.32 C 2.4 km/h
2682 16-12-2020 22:00:00 6.85833 C 7.47 g/m*3 6.86 C 2.8 km/h
2683 16-12-2020 23:00:00 7.23333 C 7.67 g/m*3 7.23 C 1.73333 km/h
2684 17-12-2020 00:00:00 7.04167 C 7.54 g/m*3 7.04 C 2 km/h
2685 17-12-2020 01:00:00 6.53333 C 7.29 g/m*3 6.53 C 2.13333 km/h
2686 17-12-2020 02:00:00 6.225 C 7.16 g/m*3 6.23 C 0.66667 km/h
2687 17-12-2020 03:00:00 7.05833 C 7.62 g/m*3 7.06 C 3.33333 km/h
2688 17-12-2020 04:00:00 7.25 C 7.72 g/m*3 7.25 C 0.8 km/h
2689 17-12-2020 05:00:00 7.2 C 7.69 g/m*3 7.2 C 1.86667 km/h
2690 17-12-2020 06:00:00 7.25 C 7.7 g/m*3 7.25 C 2 km/h
2691 17-12-2020 07:00:00 6.79167 C 7.45 g/m*3 6.79 C 1.2 km/h
2692 17-12-2020 08:00:00 7.03333 C 7.61 g/m*3 7.03 C 0.66667 km/h
2693 17-12-2020 09:00:00 7.79167 C 7.99 g/m*3 7.79 C 0.53333 km/h
2694 17-12-2020 10:00:00 8.94167 C 8.61 g/m*3 8.94 C 2.80833 km/h
2695 17-12-2020 11:00:00 9.04167 C 8.66 g/m*3 9.04 C 4.00833 km/h
2696 17-12-2020 12:00:00 8.85833 C 8.4 g/m*3 7.71 C 7.8 km/h
2697 17-12-2020 13:00:00 9.70833 C 8.36 g/m*3 8.34 C 9.65833 km/h
2698 17-12-2020 14:00:00 10.175 C 8.27 g/m*3 9.2 C 8.05833 km/h
2699 17-12-2020 15:00:00 9.58333 C 7.92 g/m*3 8.48 C 8.19167 km/h
2700 17-12-2020 16:00:00 8.56667 C 7.57 g/m*3 7.57 C 6.95833 km/h
Sensor: Nr:Datum:Temp:Abs-Feuchte:Windchill:Wind:
Aussen-T/F 2701 17-12-2020 17:00:00 7.29167 C 7.21 g/m*3 6.4 C 5.86667 km/h
2702 17-12-2020 18:00:00 6.69167 C 7.11 g/m*3 6.69 C 3.86667 km/h
2703 17-12-2020 19:00:00 5.05833 C 6.37 g/m*3 5.06 C 0.53333 km/h
2704 17-12-2020 20:00:00 4.93333 C 6.46 g/m*3 4.93 C 3.2 km/h
2705 17-12-2020 21:00:00 5.03333 C 6.54 g/m*3 5.03 C 0.8 km/h
2706 17-12-2020 22:00:00 4.85 C 6.46 g/m*3 4.85 C 0.26667 km/h
2707 17-12-2020 23:00:00 4.63333 C 6.39 g/m*3 4.63 C 0 km/h
2708 18-12-2020 00:00:00 4.14167 C 6.18 g/m*3 4.14 C 0 km/h
2709 18-12-2020 01:00:00 4.53333 C 6.39 g/m*3 4.53 C 0.53333 km/h
2710 18-12-2020 02:00:00 4.24167 C 6.26 g/m*3 4.24 C 0 km/h
2711 18-12-2020 03:00:00 3.4 C 5.9 g/m*3 3.4 C 0.13333 km/h
2712 18-12-2020 04:00:00 4.05 C 6.19 g/m*3 4.05 C 0.26667 km/h
2713 18-12-2020 05:00:00 3.79167 C 6.07 g/m*3 3.79 C 0.13333 km/h
2714 18-12-2020 06:00:00 3.025 C 5.78 g/m*3 3.03 C 0 km/h
2715 18-12-2020 07:00:00 2.59167 C 5.61 g/m*3 2.59 C 0.13333 km/h
2716 18-12-2020 08:00:00 2.35 C 5.52 g/m*3 2.35 C 0 km/h
2717 18-12-2020 09:00:00 2.45 C 5.56 g/m*3 2.45 C 0 km/h
2718 18-12-2020 10:00:00 2.36667 C 5.53 g/m*3 2.37 C 0 km/h
2719 18-12-2020 11:00:00 2.875 C 5.73 g/m*3 2.88 C 0.26667 km/h
2720 18-12-2020 12:00:00 4.3 C 6.36 g/m*3 4.3 C 2.53333 km/h
2721 18-12-2020 13:00:00 6.65833 C 7.43 g/m*3 6.66 C 0 km/h
2722 18-12-2020 14:00:00 6.8 C 7.5 g/m*3 6.8 C 1.73333 km/h
2723 18-12-2020 15:00:00 5.925 C 7.03 g/m*3 5.93 C 3.2 km/h
2724 18-12-2020 16:00:00 5.38333 C 6.78 g/m*3 5.38 C 3.49167 km/h
2725 18-12-2020 17:00:00 5.66667 C 6.92 g/m*3 5.67 C 3.34167 km/h
Sensor: Nr:Datum:Temp:Abs-Feuchte:Windchill:Wind:
Aussen-T/F 2726 18-12-2020 18:00:00 4.95833 C 6.57 g/m*3 4.96 C 1.6 km/h
2727 18-12-2020 19:00:00 4.88333 C 6.55 g/m*3 4.88 C 0.26667 km/h
2728 18-12-2020 20:00:00 3.94167 C 6.14 g/m*3 3.94 C 0.4 km/h
2729 18-12-2020 21:00:00 3.85 C 6.12 g/m*3 3.85 C 1.2 km/h
2730 18-12-2020 22:00:00 5.53333 C 6.9 g/m*3 5.53 C 1.88333 km/h
2731 18-12-2020 23:00:00 5.90833 C 7.07 g/m*3 5.91 C 0.93333 km/h
2732 19-12-2020 00:00:00 4.98333 C 6.6 g/m*3 4.98 C 1.33333 km/h
2733 19-12-2020 01:00:00 3.89167 C 6.12 g/m*3 3.89 C 2.26667 km/h
2734 19-12-2020 02:00:00 3.79167 C 6.08 g/m*3 3.79 C 2.26667 km/h
2735 19-12-2020 03:00:00 4.425 C 6.39 g/m*3 4.43 C 0.4 km/h
2736 19-12-2020 04:00:00 4.20833 C 6.26 g/m*3 4.21 C 0.53333 km/h
2737 19-12-2020 05:00:00 4.05 C 6.24 g/m*3 4.05 C 0.93333 km/h
2738 19-12-2020 06:00:00 3.65833 C 6.04 g/m*3 3.66 C 1.46667 km/h
2739 19-12-2020 07:00:00 3.3 C 5.88 g/m*3 3.3 C 1.06667 km/h
2740 19-12-2020 08:00:00 2.99167 C 5.78 g/m*3 2.99 C 0 km/h
2741 19-12-2020 09:00:00 2.5 C 5.59 g/m*3 2.5 C 0.26667 km/h
2742 19-12-2020 10:00:00 2.94167 C 5.78 g/m*3 2.94 C 0.93333 km/h
2743 19-12-2020 11:00:00 5.43333 C 6.85 g/m*3 5.43 C 3.46667 km/h
2744 19-12-2020 12:00:00 7.04167 C 7.61 g/m*3 7.04 C 3.86667 km/h
2745 19-12-2020 13:00:00 8.13333 C 8.19 g/m*3 8.13 C 3.86667 km/h
2746 19-12-2020 14:00:00 9.1 C 8.7 g/m*3 9.1 C 3.33333 km/h
2747 19-12-2020 15:00:00 9.36667 C 8.78 g/m*3 9.37 C 3.75 km/h
2748 19-12-2020 16:00:00 8.89167 C 8.16 g/m*3 8.89 C 2.26667 km/h
2749 19-12-2020 17:00:00 8.525 C 7.89 g/m*3 8.53 C 3.20833 km/h
2750 19-12-2020 18:00:00 8.8 C 7.73 g/m*3 8.8 C 4.95833 km/h
Sensor: Nr:Datum:Temp:Abs-Feuchte:Windchill:Wind:
Aussen-T/F 2751 19-12-2020 19:00:00 8.8 C 7.66 g/m*3 8.8 C 4.275 km/h
2752 19-12-2020 20:00:00 8.825 C 7.71 g/m*3 8.82 C 4.68333 km/h
2753 19-12-2020 21:00:00 8.75833 C 7.67 g/m*3 8.76 C 4.275 km/h
2754 19-12-2020 22:00:00 8.6 C 7.67 g/m*3 8.6 C 1.6 km/h
2755 19-12-2020 23:00:00 8.33333 C 7.71 g/m*3 8.33 C 0.93333 km/h
2756 20-12-2020 00:00:00 8.25 C 7.69 g/m*3 8.25 C 4.69167 km/h
2757 20-12-2020 01:00:00 8.125 C 7.57 g/m*3 8.13 C 1.74167 km/h
2758 20-12-2020 02:00:00 8.125 C 7.61 g/m*3 8.13 C 1.06667 km/h
2759 20-12-2020 03:00:00 7.89167 C 7.51 g/m*3 7.89 C 2.13333 km/h
2760 20-12-2020 04:00:00 8.09167 C 7.65 g/m*3 8.09 C 1.86667 km/h
2761 20-12-2020 05:00:00 7.71667 C 7.62 g/m*3 7.72 C 0.26667 km/h
2762 20-12-2020 06:00:00 7.5 C 7.6 g/m*3 7.5 C 0 km/h
2763 20-12-2020 07:00:00 7.46667 C 7.65 g/m*3 7.47 C 0.13333 km/h
2764 20-12-2020 08:00:00 7.25833 C 7.56 g/m*3 7.26 C 1.06667 km/h
2765 20-12-2020 09:00:00 7.13333 C 7.5 g/m*3 7.13 C 0 km/h
2766 20-12-2020 10:00:00 7.55 C 7.78 g/m*3 7.55 C 0 km/h
2767 20-12-2020 11:00:00 8.58333 C 8.33 g/m*3 8.58 C 3.2 km/h
2768 20-12-2020 12:00:00 9.65 C 8.85 g/m*3 9.65 C 3.46667 km/h
2769 20-12-2020 13:00:00 10.01667 C 8.85 g/m*3 10.02 C 4.95 km/h
2770 20-12-2020 14:00:00 10.15833 C 8.83 g/m*3 10.16 C 0.93333 km/h
2771 20-12-2020 15:00:00 9.74167 C 8.6 g/m*3 9.74 C 0.13333 km/h
2772 20-12-2020 16:00:00 9.21667 C 8.31 g/m*3 9.22 C 1.86667 km/h
2773 20-12-2020 17:00:00 8.66667 C 7.98 g/m*3 8.67 C 3.2 km/h
2774 20-12-2020 18:00:00 8.23333 C 7.77 g/m*3 8.23 C 4.4 km/h
2775 20-12-2020 19:00:00 7.175 C 7.24 g/m*3 7.18 C 0.93333 km/h
Sensor: Nr:Datum:Temp:Abs-Feuchte:Windchill:Wind:
Aussen-T/F 2776 20-12-2020 20:00:00 5.85 C 6.76 g/m*3 5.85 C 0.13333 km/h
2777 20-12-2020 21:00:00 6.05 C 6.98 g/m*3 6.05 C 0.4 km/h
2778 20-12-2020 22:00:00 6.26667 C 7.12 g/m*3 6.27 C 2.675 km/h
2779 20-12-2020 23:00:00 7.01667 C 7.48 g/m*3 6.03 C 6.025 km/h
2780 21-12-2020 00:00:00 7.05 C 7.38 g/m*3 7.05 C 3.33333 km/h
2781 21-12-2020 01:00:00 5.825 C 6.74 g/m*3 5.83 C 0 km/h
2782 21-12-2020 02:00:00 4.99167 C 6.47 g/m*3 4.99 C 0 km/h
2783 21-12-2020 03:00:00 4.29167 C 6.2 g/m*3 4.29 C 0 km/h
2784 21-12-2020 04:00:00 4.7 C 6.43 g/m*3 4.7 C 0 km/h
2785 21-12-2020 05:00:00 4.725 C 6.43 g/m*3 4.72 C 0 km/h
2786 21-12-2020 06:00:00 4.25 C 6.24 g/m*3 4.25 C 1.2 km/h
2787 21-12-2020 07:00:00 5.8 C 6.97 g/m*3 5.8 C 2.26667 km/h
2788 21-12-2020 08:00:00 5.26667 C 6.7 g/m*3 5.27 C 0 km/h
2789 21-12-2020 09:00:00 5.26667 C 6.71 g/m*3 5.27 C 0.26667 km/h
2790 21-12-2020 10:00:00 6.13333 C 7.1 g/m*3 6.13 C 0.66667 km/h
2791 21-12-2020 11:00:00 7.39167 C 7.71 g/m*3 7.39 C 1.86667 km/h
2792 21-12-2020 12:00:00 8.575 C 8.16 g/m*3 8.57 C 3.33333 km/h
2793 21-12-2020 13:00:00 9.71667 C 8.17 g/m*3 9.72 C 4.95 km/h
2794 21-12-2020 14:00:00 9.8 C 8.05 g/m*3 9.8 C 0.93333 km/h
2795 21-12-2020 15:00:00 8.90833 C 8.06 g/m*3 8.91 C 0.4 km/h
2796 21-12-2020 16:00:00 8.23333 C 7.88 g/m*3 8.23 C 0.13333 km/h
2797 21-12-2020 17:00:00 7.86667 C 7.81 g/m*3 7.87 C 0.66667 km/h
2798 21-12-2020 18:00:00 7.99167 C 7.93 g/m*3 7.99 C 2.13333 km/h
2799 21-12-2020 19:00:00 8.18333 C 8.05 g/m*3 8.18 C 1.2 km/h
2800 21-12-2020 20:00:00 8.35833 C 8.21 g/m*3 8.36 C 1.46667 km/h
Sensor: Nr:Datum:Temp:Abs-Feuchte:Windchill:Wind:
Aussen-T/F 2801 21-12-2020 21:00:00 8.75 C 8.42 g/m*3 8.1 C 5.76667 km/h
2802 21-12-2020 22:00:00 9.26667 C 8.69 g/m*3 7.97 C 8.86667 km/h
2803 21-12-2020 23:00:00 9.69167 C 8.85 g/m*3 9.69 C 4.14167 km/h
2804 22-12-2020 00:00:00 10.33333 C 9.18 g/m*3 8.83 C 11.275 km/h
2805 22-12-2020 01:00:00 11.35 C 9.56 g/m*3 11.35 C 15.43333 km/h
2806 22-12-2020 02:00:00 11.99167 C 9.88 g/m*3 11.99 C 14.5 km/h
2807 22-12-2020 03:00:00 12.76667 C 10.2 g/m*3 12.77 C 17.30833 km/h
2808 22-12-2020 04:00:00 13.18333 C 10.39 g/m*3 13.18 C 14.63333 km/h
2809 22-12-2020 05:00:00 13.225 C 10.57 g/m*3 13.23 C 19.03333 km/h
2810 22-12-2020 06:00:00 13.41667 C 10.66 g/m*3 13.42 C 18.5 km/h
2811 22-12-2020 07:00:00 13.6 C 10.71 g/m*3 13.6 C 15.56667 km/h
2812 22-12-2020 08:00:00 13.51667 C 10.65 g/m*3 13.52 C 16.76667 km/h
2813 22-12-2020 09:00:00 13.64167 C 10.74 g/m*3 13.64 C 14.63333 km/h
2814 22-12-2020 10:00:00 13.85833 C 10.95 g/m*3 13.86 C 14.36667 km/h
2815 22-12-2020 11:00:00 14.25833 C 11.22 g/m*3 14.26 C 12.76667 km/h
2816 22-12-2020 12:00:00 14.46667 C 11.39 g/m*3 14.47 C 13.425 km/h
2817 22-12-2020 13:00:00 14.80833 C 11.39 g/m*3 14.81 C 13.3 km/h
2818 22-12-2020 14:00:00 14.81667 C 11.31 g/m*3 14.82 C 14.23333 km/h
2819 22-12-2020 15:00:00 14.48333 C 11.23 g/m*3 14.48 C 11.7 km/h
2820 22-12-2020 16:00:00 14.025 C 11.01 g/m*3 14.03 C 8.86667 km/h
2821 22-12-2020 17:00:00 13.59167 C 10.79 g/m*3 13.59 C 6.58333 km/h
2822 22-12-2020 18:00:00 13.20833 C 10.82 g/m*3 13.21 C 2.4 km/h
2823 22-12-2020 19:00:00 12.89167 C 10.76 g/m*3 12.89 C 2.26667 km/h
2824 22-12-2020 20:00:00 12.35 C 10.46 g/m*3 12.35 C 5.49167 km/h
2825 22-12-2020 21:00:00 11.83333 C 10.18 g/m*3 11.83 C 2.4 km/h
Sensor: Nr:Datum:Temp:Abs-Feuchte:Windchill:Wind:
Aussen-T/F 2826 22-12-2020 22:00:00 11.675 C 10.13 g/m*3 11.68 C 0 km/h
2827 22-12-2020 23:00:00 11.55833 C 10.06 g/m*3 11.56 C 0.26667 km/h
2828 23-12-2020 00:00:00 11.65833 C 10.12 g/m*3 11.66 C 0 km/h
2829 23-12-2020 01:00:00 11.76667 C 10.19 g/m*3 11.77 C 0.13333 km/h
2830 23-12-2020 02:00:00 11.65833 C 10.12 g/m*3 11.66 C 0.53333 km/h
2831 23-12-2020 03:00:00 11.65 C 10.11 g/m*3 11.65 C 0 km/h
2832 23-12-2020 04:00:00 11.61667 C 10.14 g/m*3 11.62 C 0.66667 km/h
2833 23-12-2020 05:00:00 11.49167 C 10.07 g/m*3 11.49 C 0.13333 km/h
2834 23-12-2020 06:00:00 11.23333 C 9.89 g/m*3 11.23 C 0 km/h
2835 23-12-2020 07:00:00 11.275 C 9.98 g/m*3 11.28 C 0.93333 km/h
2836 23-12-2020 08:00:00 11.55 C 10.15 g/m*3 11.55 C 2 km/h
2837 23-12-2020 09:00:00 11.6 C 10.19 g/m*3 11.6 C 0.4 km/h
2838 23-12-2020 10:00:00 11.875 C 10.36 g/m*3 11.88 C 1.06667 km/h
2839 23-12-2020 11:00:00 12.45 C 10.74 g/m*3 12.45 C 0.13333 km/h
2840 23-12-2020 12:00:00 12.6 C 10.84 g/m*3 12.6 C 0 km/h
2841 23-12-2020 13:00:00 12.81667 C 10.99 g/m*3 12.82 C 0.53333 km/h
2842 23-12-2020 14:00:00 12.825 C 10.99 g/m*3 12.83 C 2 km/h
2843 23-12-2020 15:00:00 12.55833 C 10.81 g/m*3 12.56 C 2.4 km/h
2844 23-12-2020 16:00:00 12.03333 C 10.47 g/m*3 12.03 C 2.8 km/h
2845 23-12-2020 17:00:00 11.59167 C 10.18 g/m*3 11.59 C 3.2 km/h
2846 23-12-2020 18:00:00 11.30833 C 10 g/m*3 11.31 C 6.3 km/h
2847 23-12-2020 19:00:00 11.44167 C 9.95 g/m*3 11.44 C 13.95833 km/h
2848 23-12-2020 20:00:00 11.61667 C 9.79 g/m*3 11.62 C 11.03333 km/h
2849 23-12-2020 21:00:00 11.71667 C 9.73 g/m*3 11.72 C 9.69167 km/h
2850 23-12-2020 22:00:00 11.575 C 9.66 g/m*3 11.58 C 8.175 km/h
Sensor: Nr:Datum:Temp:Abs-Feuchte:Windchill:Wind:
Aussen-T/F 2851 23-12-2020 23:00:00 11.025 C 8.76 g/m*3 11.03 C 14.36667 km/h
2852 24-12-2020 00:00:00 9.8 C 7.96 g/m*3 7.92 C 13.03333 km/h
2853 24-12-2020 01:00:00 8.88333 C 7.46 g/m*3 7.03 C 11.56667 km/h
2854 24-12-2020 02:00:00 8.60833 C 7.33 g/m*3 6.39 C 13.56667 km/h
2855 24-12-2020 03:00:00 8.13333 C 7.19 g/m*3 6.1 C 11.69167 km/h
2856 24-12-2020 04:00:00 8.075 C 7.08 g/m*3 6.17 C 10.89167 km/h
2857 24-12-2020 05:00:00 8.225 C 7.02 g/m*3 6.04 C 12.76667 km/h
2858 24-12-2020 06:00:00 7.94167 C 7.16 g/m*3 6.91 C 6.71667 km/h
2859 24-12-2020 07:00:00 7.975 C 7.2 g/m*3 5.68 C 13.16667 km/h
2860 24-12-2020 08:00:00 7.7 C 7.23 g/m*3 5.95 C 9.68333 km/h
2861 24-12-2020 09:00:00 7.39167 C 7.3 g/m*3 5.96 C 7.91667 km/h
2862 24-12-2020 10:00:00 7.55 C 7.46 g/m*3 6.38 C 6.975 km/h
2863 24-12-2020 11:00:00 8.225 C 7.6 g/m*3 7.1 C 7.25 km/h
2864 24-12-2020 12:00:00 8.48333 C 7.41 g/m*3 7.27 C 7.79167 km/h
2865 24-12-2020 13:00:00 8.96667 C 7.51 g/m*3 8.13 C 6.55833 km/h
2866 24-12-2020 14:00:00 6.775 C 6.91 g/m*3 3.77 C 16.23333 km/h
2867 24-12-2020 15:00:00 5.28333 C 6.42 g/m*3 3.04 C 9.81667 km/h
2868 24-12-2020 16:00:00 4.88333 C 6.32 g/m*3 4.88 C 4.825 km/h
2869 24-12-2020 17:00:00 4.525 C 6.19 g/m*3 4.53 C 4.28333 km/h
2870 24-12-2020 18:00:00 4.46667 C 6.22 g/m*3 4.47 C 3.08333 km/h
2871 24-12-2020 19:00:00 4.68333 C 6.36 g/m*3 4.68 C 3.34167 km/h
2872 24-12-2020 20:00:00 4.3 C 6.16 g/m*3 2.48 C 7.38333 km/h
2873 24-12-2020 21:00:00 4.29167 C 6.19 g/m*3 4.29 C 4.275 km/h
2874 24-12-2020 22:00:00 4.35833 C 6.22 g/m*3 4.36 C 4.69167 km/h
2875 24-12-2020 23:00:00 4.55833 C 6.28 g/m*3 3.3 C 5.75833 km/h
Sensor: Nr:Datum:Temp:Abs-Feuchte:Windchill:Wind:
Aussen-T/F 2876 25-12-2020 00:00:00 4.6 C 6.26 g/m*3 2.95 C 6.975 km/h
2877 25-12-2020 01:00:00 4.44167 C 6.15 g/m*3 3.36 C 5.21667 km/h
2878 25-12-2020 02:00:00 4.30833 C 6.1 g/m*3 4.31 C 4.14167 km/h
2879 25-12-2020 03:00:00 4.35 C 6.12 g/m*3 4.35 C 3.33333 km/h
2880 25-12-2020 04:00:00 4.30833 C 6.03 g/m*3 2.27 C 8.19167 km/h
2881 25-12-2020 05:00:00 4.19167 C 5.86 g/m*3 2.98 C 5.49167 km/h
2882 25-12-2020 06:00:00 3.89167 C 5.69 g/m*3 2.09 C 7.10833 km/h
2883 25-12-2020 07:00:00 3.74167 C 5.52 g/m*3 1.57 C 8.33333 km/h
2884 25-12-2020 08:00:00 3.275 C 5.29 g/m*3 1.05 C 8.19167 km/h
2885 25-12-2020 09:00:00 3.1 C 5.21 g/m*3 1.38 C 6.44167 km/h
2886 25-12-2020 10:00:00 2.89167 C 5.14 g/m*3 2.89 C 4.825 km/h
2887 25-12-2020 11:00:00 2.675 C 5.19 g/m*3 0.94 C 6.3 km/h
2888 25-12-2020 12:00:00 3.9 C 5.57 g/m*3 1.65 C 8.73333 km/h
2889 25-12-2020 13:00:00 4.08333 C 5.65 g/m*3 1.9 C 8.60833 km/h
2890 25-12-2020 14:00:00 4.35833 C 5.68 g/m*3 2.33 C 8.2 km/h
2891 25-12-2020 15:00:00 4.46667 C 5.76 g/m*3 4.47 C 3.49167 km/h
2892 25-12-2020 16:00:00 3.40833 C 5.52 g/m*3 3.41 C 1.2 km/h
2893 25-12-2020 17:00:00 2.11667 C 5.17 g/m*3 2.12 C 1.73333 km/h
2894 25-12-2020 18:00:00 1.625 C 5.1 g/m*3 1.63 C 3.46667 km/h
2895 25-12-2020 19:00:00 1.475 C 5.09 g/m*3 1.48 C 0.8 km/h
2896 25-12-2020 20:00:00 2.00833 C 5.33 g/m*3 2.01 C 2.26667 km/h
2897 25-12-2020 21:00:00 2.29167 C 5.43 g/m*3 2.29 C 0.8 km/h
2898 25-12-2020 22:00:00 2.23333 C 5.41 g/m*3 2.23 C 0.26667 km/h
2899 25-12-2020 23:00:00 2.575 C 5.55 g/m*3 2.58 C 0.26667 km/h
2900 26-12-2020 00:00:00 2.64167 C 5.57 g/m*3 2.64 C 0 km/h
Sensor: Nr:Datum:Temp:Abs-Feuchte:Windchill:Wind:
Aussen-T/F 2901 26-12-2020 01:00:00 2.48333 C 5.48 g/m*3 2.48 C 2.80833 km/h
2902 26-12-2020 02:00:00 2.3 C 5.39 g/m*3 0.19 C 7.25833 km/h
2903 26-12-2020 03:00:00 2.275 C 5.38 g/m*3 0.68 C 5.75833 km/h
2904 26-12-2020 04:00:00 2.15833 C 5.34 g/m*3 2.16 C 3.06667 km/h
2905 26-12-2020 05:00:00 1.975 C 5.27 g/m*3 1.98 C 0 km/h
2906 26-12-2020 06:00:00 1.39167 C 5.06 g/m*3 1.39 C 0.26667 km/h
2907 26-12-2020 07:00:00 0.95833 C 4.93 g/m*3 0.96 C 0.13333 km/h
2908 26-12-2020 08:00:00 0.83333 C 4.93 g/m*3 0.83 C 0.8 km/h
2909 26-12-2020 09:00:00 1.775 C 5.26 g/m*3 1.78 C 2.26667 km/h
2910 26-12-2020 10:00:00 2.60833 C 5.55 g/m*3 2.61 C 1.06667 km/h
2911 26-12-2020 11:00:00 3.64167 C 5.79 g/m*3 1.97 C 6.575 km/h
2912 26-12-2020 12:00:00 4.375 C 5.71 g/m*3 1.83 C 10.36667 km/h
2913 26-12-2020 13:00:00 4.575 C 5.65 g/m*3 2.22 C 9.69167 km/h
2914 26-12-2020 14:00:00 4.48333 C 5.52 g/m*3 2.08 C 9.81667 km/h
2915 26-12-2020 15:00:00 4.11667 C 5.35 g/m*3 2.12 C 7.925 km/h
2916 26-12-2020 16:00:00 3.9 C 5.24 g/m*3 1.58 C 9 km/h
2917 26-12-2020 17:00:00 3.9 C 5.25 g/m*3 2.27 C 6.56667 km/h
2918 26-12-2020 18:00:00 3.88333 C 5.24 g/m*3 1.56 C 9 km/h
2919 26-12-2020 19:00:00 3.43333 C 5.11 g/m*3 1.73 C 6.575 km/h
2920 26-12-2020 20:00:00 3.55 C 5.12 g/m*3 1.73 C 6.975 km/h
2921 26-12-2020 21:00:00 3.225 C 5.06 g/m*3 1.49 C 6.56667 km/h
2922 26-12-2020 22:00:00 3.025 C 5.06 g/m*3 0.8 C 8.05 km/h
2923 26-12-2020 23:00:00 2.9 C 4.98 g/m*3 0.36 C 9.14167 km/h
2924 27-12-2020 00:00:00 2.825 C 4.99 g/m*3 0.89 C 6.975 km/h
2925 27-12-2020 01:00:00 2.99167 C 5.05 g/m*3 0.3 C 9.81667 km/h
Sensor: Nr:Datum:Temp:Abs-Feuchte:Windchill:Wind:
Aussen-T/F 2926 27-12-2020 02:00:00 3.25833 C 5.08 g/m*3 1.27 C 7.375 km/h
2927 27-12-2020 03:00:00 3.15833 C 5.06 g/m*3 1.9 C 5.21667 km/h
2928 27-12-2020 04:00:00 3.24167 C 5.08 g/m*3 1.17 C 7.65833 km/h
2929 27-12-2020 05:00:00 3.4 C 5.08 g/m*3 0.83 C 9.66667 km/h
2930 27-12-2020 06:00:00 3.44167 C 5.1 g/m*3 1.21 C 8.33333 km/h
2931 27-12-2020 07:00:00 3.55 C 5.22 g/m*3 1.73 C 6.98333 km/h
2932 27-12-2020 08:00:00 3.83333 C 5.3 g/m*3 1.51 C 8.975 km/h
2933 27-12-2020 09:00:00 3.88333 C 5.4 g/m*3 1.28 C 10.20833 km/h
2934 27-12-2020 10:00:00 3.925 C 5.45 g/m*3 1.82 C 8.18333 km/h
2935 27-12-2020 11:00:00 4.56667 C 5.5 g/m*3 1.76 C 11.83333 km/h
2936 27-12-2020 12:00:00 4.625 C 5.68 g/m*3 2.4 C 9.15 km/h
2937 27-12-2020 13:00:00 4.16667 C 5.78 g/m*3 2.1 C 8.2 km/h
2938 27-12-2020 14:00:00 3.9 C 5.78 g/m*3 1.65 C 8.73333 km/h
2939 27-12-2020 15:00:00 3.8 C 5.83 g/m*3 1.64 C 8.325 km/h
2940 27-12-2020 16:00:00 3.8 C 5.85 g/m*3 2.34 C 6.025 km/h
2941 27-12-2020 17:00:00 3.85833 C 5.88 g/m*3 1.47 C 9.25833 km/h
2942 27-12-2020 18:00:00 3.74167 C 5.85 g/m*3 2.08 C 6.575 km/h
2943 27-12-2020 19:00:00 3.95833 C 5.95 g/m*3 1.68 C 8.875 km/h
2944 27-12-2020 20:00:00 4.1 C 6.02 g/m*3 3.03 C 5.08333 km/h
2945 27-12-2020 21:00:00 4.13333 C 6.05 g/m*3 3.01 C 5.21667 km/h
2946 27-12-2020 22:00:00 4.1 C 6.08 g/m*3 4.1 C 1.46667 km/h
2947 27-12-2020 23:00:00 4.10833 C 6.12 g/m*3 4.11 C 1.6 km/h
2948 28-12-2020 00:00:00 4.15 C 6.17 g/m*3 4.15 C 1.6 km/h
2949 28-12-2020 01:00:00 4.11667 C 6.15 g/m*3 4.12 C 0.66667 km/h
2950 28-12-2020 02:00:00 3.78333 C 6.02 g/m*3 3.78 C 0.53333 km/h
Sensor: Nr:Datum:Temp:Abs-Feuchte:Windchill:Wind:
Aussen-T/F 2951 28-12-2020 03:00:00 3.66667 C 5.99 g/m*3 3.67 C 1.46667 km/h
2952 28-12-2020 04:00:00 3.725 C 6.04 g/m*3 3.73 C 2.01667 km/h
2953 28-12-2020 05:00:00 3.86667 C 6.11 g/m*3 3.87 C 0.8 km/h
2954 28-12-2020 06:00:00 3.71667 C 6.03 g/m*3 3.72 C 1.06667 km/h
2955 28-12-2020 07:00:00 3.08333 C 5.74 g/m*3 3.08 C 0.8 km/h
2956 28-12-2020 08:00:00 2 C 5.33 g/m*3 2 C 2.4 km/h
2957 28-12-2020 09:00:00 2.55 C 5.59 g/m*3 2.55 C 0.93333 km/h
2958 28-12-2020 10:00:00 3.8 C 6.09 g/m*3 3.8 C 0 km/h
2959 28-12-2020 11:00:00 4.59167 C 6.42 g/m*3 4.59 C 0.66667 km/h
2960 28-12-2020 12:00:00 5.04167 C 6.49 g/m*3 5.04 C 3.33333 km/h
2961 28-12-2020 13:00:00 5.59167 C 6.59 g/m*3 5.59 C 0.8 km/h
2962 28-12-2020 14:00:00 5.675 C 6.68 g/m*3 5.68 C 1.06667 km/h
2963 28-12-2020 15:00:00 5.15 C 6.45 g/m*3 5.15 C 3.48333 km/h
2964 28-12-2020 16:00:00 4.68333 C 6.28 g/m*3 4.68 C 3.475 km/h
2965 28-12-2020 17:00:00 4.01667 C 6.03 g/m*3 4.02 C 0.8 km/h
2966 28-12-2020 18:00:00 3.81667 C 5.99 g/m*3 3.82 C 0.4 km/h
2967 28-12-2020 19:00:00 3.21667 C 5.76 g/m*3 3.22 C 1.73333 km/h
2968 28-12-2020 20:00:00 1.95 C 5.27 g/m*3 1.95 C 2 km/h
2969 28-12-2020 21:00:00 2.64167 C 5.58 g/m*3 2.64 C 0 km/h
2970 28-12-2020 22:00:00 1.64167 C 5.2 g/m*3 1.64 C 2.13333 km/h
2971 28-12-2020 23:00:00 1.70833 C 5.25 g/m*3 1.71 C 2.13333 km/h
2972 29-12-2020 00:00:00 2.58333 C 5.59 g/m*3 2.58 C 1.875 km/h
2973 29-12-2020 01:00:00 2.6 C 5.56 g/m*3 2.6 C 0.8 km/h
2974 29-12-2020 02:00:00 2.58333 C 5.55 g/m*3 2.58 C 3.33333 km/h
2975 29-12-2020 03:00:00 1.86667 C 5.26 g/m*3 1.87 C 2.4 km/h
Sensor: Nr:Datum:Temp:Abs-Feuchte:Windchill:Wind:
Aussen-T/F 2976 29-12-2020 04:00:00 2 C 5.35 g/m*3 2 C 0 km/h
2977 29-12-2020 05:00:00 2.39167 C 5.48 g/m*3 2.39 C 0 km/h
2978 29-12-2020 06:00:00 2.38333 C 5.5 g/m*3 2.38 C 1.73333 km/h
2979 29-12-2020 07:00:00 2.64167 C 5.63 g/m*3 1.26 C 5.35833 km/h
2980 29-12-2020 08:00:00 2.93333 C 5.74 g/m*3 2.93 C 4.28333 km/h
2981 29-12-2020 09:00:00 3.2 C 5.83 g/m*3 0.96 C 8.2 km/h
2982 29-12-2020 10:00:00 3.53333 C 5.9 g/m*3 2.08 C 5.89167 km/h
2983 29-12-2020 11:00:00 4.03333 C 5.9 g/m*3 0.75 C 13.83333 km/h
2984 29-12-2020 12:00:00 4.78333 C 5.98 g/m*3 1.42 C 15.43333 km/h
2985 29-12-2020 13:00:00 5.00833 C 5.91 g/m*3 1.88 C 14.23333 km/h
2986 29-12-2020 14:00:00 5 C 5.9 g/m*3 3.05 C 8.31667 km/h
2987 29-12-2020 15:00:00 4.90833 C 6.05 g/m*3 4.91 C 2.81667 km/h
2988 29-12-2020 16:00:00 4.35833 C 5.97 g/m*3 4.36 C 2.4 km/h
2989 29-12-2020 17:00:00 3.85 C 5.85 g/m*3 3.85 C 1.73333 km/h
2990 29-12-2020 18:00:00 3.13333 C 5.56 g/m*3 3.13 C 1.86667 km/h
2991 29-12-2020 19:00:00 2.00833 C 5.22 g/m*3 2.01 C 2.66667 km/h
2992 29-12-2020 20:00:00 1.83333 C 5.24 g/m*3 1.83 C 0 km/h
2993 29-12-2020 21:00:00 1.65833 C 5.17 g/m*3 1.66 C 0.4 km/h
2994 29-12-2020 22:00:00 1.16667 C 5.03 g/m*3 1.17 C 1.2 km/h
2995 29-12-2020 23:00:00 1.39167 C 5.12 g/m*3 1.39 C 0 km/h
2996 30-12-2020 00:00:00 1.925 C 5.32 g/m*3 1.93 C 0 km/h
2997 30-12-2020 01:00:00 2.025 C 5.34 g/m*3 2.03 C 0 km/h
2998 30-12-2020 02:00:00 2.26667 C 5.47 g/m*3 2.27 C 0 km/h
2999 30-12-2020 03:00:00 2.54167 C 5.59 g/m*3 2.54 C 0 km/h
3000 30-12-2020 04:00:00 2.61667 C 5.62 g/m*3 2.62 C 0 km/h
Sensor: Nr:Datum:Temp:Abs-Feuchte:Windchill:Wind:
Aussen-T/F 3001 30-12-2020 05:00:00 2.78333 C 5.68 g/m*3 2.78 C 0 km/h
3002 30-12-2020 06:00:00 2.96667 C 5.75 g/m*3 2.97 C 0 km/h
3003 30-12-2020 07:00:00 3.45833 C 5.95 g/m*3 3.46 C 1.6 km/h
3004 30-12-2020 08:00:00 3.625 C 6.01 g/m*3 3.63 C 1.2 km/h
3005 30-12-2020 09:00:00 3.78333 C 6.08 g/m*3 3.78 C 1.6 km/h
3006 30-12-2020 10:00:00 4.2 C 6.25 g/m*3 4.2 C 2.26667 km/h
3007 30-12-2020 11:00:00 4.45 C 6.26 g/m*3 2.95 C 6.43333 km/h
3008 30-12-2020 12:00:00 4.75 C 6.18 g/m*3 2.65 C 8.74167 km/h
3009 30-12-2020 13:00:00 5.06667 C 5.93 g/m*3 3.27 C 7.78333 km/h
3010 30-12-2020 14:00:00 5.675 C 6.07 g/m*3 5.68 C 4.54167 km/h
3011 30-12-2020 15:00:00 5.79167 C 5.95 g/m*3 4.23 C 7.375 km/h
3012 30-12-2020 16:00:00 5.475 C 5.92 g/m*3 3.68 C 8.05 km/h
3013 30-12-2020 17:00:00 4.9 C 5.72 g/m*3 3.22 C 7.24167 km/h
3014 30-12-2020 18:00:00 4.65 C 5.7 g/m*3 2.37 C 9.41667 km/h
3015 30-12-2020 19:00:00 4.34167 C 5.71 g/m*3 3.2 C 5.35 km/h
3016 30-12-2020 20:00:00 4.28333 C 5.7 g/m*3 2.89 C 6.04167 km/h
3017 30-12-2020 21:00:00 4.23333 C 5.7 g/m*3 4.23 C 4.55 km/h
3018 30-12-2020 22:00:00 4 C 5.66 g/m*3 4 C 2 km/h
3019 30-12-2020 23:00:00 4.01667 C 5.7 g/m*3 4.02 C 1.875 km/h
3020 31-12-2020 00:00:00 4.03333 C 5.68 g/m*3 4.03 C 1.46667 km/h
3021 31-12-2020 01:00:00 3.43333 C 5.53 g/m*3 3.43 C 0.66667 km/h
3022 31-12-2020 02:00:00 3.175 C 5.51 g/m*3 3.18 C 1.46667 km/h
3023 31-12-2020 03:00:00 2.84167 C 5.4 g/m*3 2.84 C 0.66667 km/h
3024 31-12-2020 04:00:00 2.78333 C 5.39 g/m*3 2.78 C 0 km/h
3025 31-12-2020 05:00:00 2.80833 C 5.44 g/m*3 2.81 C 0.26667 km/h
Sensor: Nr:Datum:Temp:Abs-Feuchte:Windchill:Wind:
Aussen-T/F 3026 31-12-2020 06:00:00 2.95833 C 5.56 g/m*3 2.96 C 0 km/h
3027 31-12-2020 07:00:00 2.79167 C 5.51 g/m*3 2.79 C 1.06667 km/h
3028 31-12-2020 08:00:00 2.69167 C 5.47 g/m*3 2.69 C 2.53333 km/h
3029 31-12-2020 09:00:00 2.68333 C 5.48 g/m*3 2.68 C 1.06667 km/h
3030 31-12-2020 10:00:00 3.16667 C 5.66 g/m*3 3.17 C 0.93333 km/h
3031 31-12-2020 11:00:00 3.75833 C 5.72 g/m*3 3.76 C 3.6 km/h
3032 31-12-2020 12:00:00 4.05 C 5.77 g/m*3 4.05 C 3.21667 km/h
3033 31-12-2020 13:00:00 3.79167 C 5.75 g/m*3 3.79 C 1.2 km/h
3034 31-12-2020 14:00:00 3.85833 C 5.82 g/m*3 3.86 C 0.53333 km/h
3035 31-12-2020 15:00:00 3.59167 C 5.71 g/m*3 3.59 C 0.66667 km/h
3036 31-12-2020 16:00:00 3 C 5.56 g/m*3 3 C 0.26667 km/h
3037 31-12-2020 17:00:00 2.73333 C 5.52 g/m*3 2.73 C 0.13333 km/h
3038 31-12-2020 18:00:00 2.71667 C 5.54 g/m*3 2.72 C 0 km/h
3039 31-12-2020 19:00:00 2.625 C 5.51 g/m*3 2.63 C 0.26667 km/h
3040 31-12-2020 20:00:00 2.38333 C 5.42 g/m*3 2.38 C 0 km/h
3041 31-12-2020 21:00:00 2.225 C 5.4 g/m*3 2.23 C 0 km/h
3042 31-12-2020 22:00:00 2.15 C 5.37 g/m*3 2.15 C 0 km/h
3043 31-12-2020 23:00:00 1.26667 C 5.02 g/m*3 1.27 C 0 km/h
3044 01-01-2021 00:00:00 1.1 C 5.01 g/m*3 1.1 C 0 km/h
3045 01-01-2021 01:00:00 1.16667 C 5.04 g/m*3 1.17 C 0 km/h
3046 01-01-2021 02:00:00 1.425 C 5.13 g/m*3 1.43 C 0 km/h
3047 01-01-2021 03:00:00 1.725 C 5.25 g/m*3 1.73 C 0.13333 km/h
3048 01-01-2021 04:00:00 1.88333 C 5.35 g/m*3 1.88 C 1.46667 km/h
3049 01-01-2021 05:00:00 2.05833 C 5.41 g/m*3 2.06 C 0.53333 km/h
3050 01-01-2021 06:00:00 2.24167 C 5.48 g/m*3 2.24 C 0 km/h
Sensor: Nr:Datum:Temp:Abs-Feuchte:Windchill:Wind:
Aussen-T/F 3051 01-01-2021 07:00:00 2.425 C 5.55 g/m*3 2.42 C 0.26667 km/h
3052 01-01-2021 08:00:00 2.5 C 5.58 g/m*3 2.5 C 0.26667 km/h
3053 01-01-2021 09:00:00 2.55 C 5.59 g/m*3 2.55 C 0 km/h
3054 01-01-2021 10:00:00 2.73333 C 5.66 g/m*3 2.73 C 0 km/h
3055 01-01-2021 11:00:00 2.99167 C 5.76 g/m*3 2.99 C 2.53333 km/h
3056 01-01-2021 12:00:00 2.95 C 5.75 g/m*3 2.95 C 2 km/h
3057 01-01-2021 13:00:00 3.025 C 5.72 g/m*3 3.03 C 2 km/h
3058 01-01-2021 14:00:00 3.075 C 5.74 g/m*3 3.08 C 0.53333 km/h
3059 01-01-2021 15:00:00 3.13333 C 5.76 g/m*3 3.13 C 1.2 km/h
3060 01-01-2021 16:00:00 2.9 C 5.67 g/m*3 2.9 C 0.8 km/h
3061 01-01-2021 17:00:00 2.68333 C 5.59 g/m*3 2.68 C 0 km/h
3062 01-01-2021 18:00:00 2.525 C 5.53 g/m*3 2.53 C 0 km/h
3063 01-01-2021 19:00:00 1.80833 C 5.27 g/m*3 1.81 C 0 km/h
3064 01-01-2021 20:00:00 1.26667 C 5.07 g/m*3 1.27 C 0 km/h
3065 01-01-2021 21:00:00 0.8 C 4.91 g/m*3 0.8 C 0 km/h
3066 01-01-2021 22:00:00 0.60833 C 4.88 g/m*3 0.61 C 0 km/h
3067 01-01-2021 23:00:00 0.76667 C 4.95 g/m*3 0.77 C 0 km/h
3068 02-01-2021 00:00:00 0.80833 C 4.97 g/m*3 0.81 C 1.2 km/h
3069 02-01-2021 01:00:00 0.75 C 4.95 g/m*3 0.75 C 1.33333 km/h
3070 02-01-2021 02:00:00 0.75833 C 4.95 g/m*3 0.76 C 0 km/h
3071 02-01-2021 03:00:00 0.675 C 4.92 g/m*3 0.68 C 0.8 km/h
3072 02-01-2021 04:00:00 0.375 C 4.82 g/m*3 0.38 C 2 km/h
3073 02-01-2021 05:00:00 0.325 C 4.81 g/m*3 0.33 C 3.06667 km/h
3074 02-01-2021 06:00:00 0.425 C 4.84 g/m*3 0.43 C 3.46667 km/h
3075 02-01-2021 07:00:00 0.40833 C 4.83 g/m*3 0.41 C 3.86667 km/h
Sensor: Nr:Datum:Temp:Abs-Feuchte:Windchill:Wind:
Aussen-T/F 3076 02-01-2021 08:00:00 0.4 C 4.83 g/m*3 0.4 C 1.86667 km/h
3077 02-01-2021 09:00:00 0.53333 C 4.88 g/m*3 0.53 C 1.06667 km/h
3078 02-01-2021 10:00:00 0.81667 C 4.97 g/m*3 0.82 C 0.8 km/h
3079 02-01-2021 11:00:00 1.3 C 5.13 g/m*3 1.3 C 0.4 km/h
3080 02-01-2021 12:00:00 1.85 C 5.27 g/m*3 1.85 C 0.8 km/h
3081 02-01-2021 13:00:00 2.23333 C 5.33 g/m*3 2.23 C 1.33333 km/h
3082 02-01-2021 14:00:00 2.425 C 5.38 g/m*3 2.42 C 0.66667 km/h
3083 02-01-2021 15:00:00 2.65 C 5.46 g/m*3 2.65 C 1.6 km/h
3084 02-01-2021 16:00:00 2.525 C 5.41 g/m*3 2.53 C 0.4 km/h
3085 02-01-2021 17:00:00 2.18333 C 5.34 g/m*3 2.18 C 0.4 km/h
3086 02-01-2021 18:00:00 2.03333 C 5.29 g/m*3 2.03 C 0 km/h
3087 02-01-2021 19:00:00 1.95833 C 5.3 g/m*3 1.96 C 0 km/h
3088 02-01-2021 20:00:00 1.9 C 5.3 g/m*3 1.9 C 0 km/h
3089 02-01-2021 21:00:00 1.89167 C 5.3 g/m*3 1.89 C 0 km/h
3090 02-01-2021 22:00:00 1.8 C 5.26 g/m*3 1.8 C 0 km/h
3091 02-01-2021 23:00:00 1.8 C 5.26 g/m*3 1.8 C 0 km/h
3092 03-01-2021 00:00:00 1.88333 C 5.29 g/m*3 1.88 C 0 km/h
3093 03-01-2021 01:00:00 1.8 C 5.26 g/m*3 1.8 C 3.20833 km/h
3094 03-01-2021 02:00:00 1.74167 C 5.18 g/m*3 1.74 C 1.73333 km/h
3095 03-01-2021 03:00:00 2.04167 C 5.04 g/m*3 2.04 C 2.53333 km/h
3096 03-01-2021 04:00:00 2.26667 C 5.06 g/m*3 2.27 C 2.66667 km/h
3097 03-01-2021 05:00:00 2.11667 C 5.09 g/m*3 2.12 C 0.66667 km/h
3098 03-01-2021 06:00:00 2.05833 C 5.1 g/m*3 2.06 C 0.93333 km/h
3099 03-01-2021 07:00:00 1.99167 C 5.03 g/m*3 1.99 C 1.46667 km/h
3100 03-01-2021 08:00:00 2.29167 C 4.99 g/m*3 2.29 C 1.73333 km/h
Sensor: Nr:Datum:Temp:Abs-Feuchte:Windchill:Wind:
Aussen-T/F 3101 03-01-2021 09:00:00 2.375 C 5.09 g/m*3 2.38 C 0 km/h
3102 03-01-2021 10:00:00 2.60833 C 5.12 g/m*3 2.61 C 1.60833 km/h
3103 03-01-2021 11:00:00 3.08333 C 5.17 g/m*3 3.08 C 3.875 km/h
3104 03-01-2021 12:00:00 3.375 C 5.2 g/m*3 1.53 C 6.975 km/h
3105 03-01-2021 13:00:00 3.49167 C 5.26 g/m*3 3.49 C 3.74167 km/h
3106 03-01-2021 14:00:00 3.71667 C 5.34 g/m*3 2.39 C 5.61667 km/h
3107 03-01-2021 15:00:00 3.75 C 5.42 g/m*3 3.75 C 3.2 km/h
3108 03-01-2021 16:00:00 3.51667 C 5.43 g/m*3 3.52 C 4.00833 km/h
3109 03-01-2021 17:00:00 3.25833 C 5.43 g/m*3 3.26 C 0.93333 km/h
3110 03-01-2021 18:00:00 2.925 C 5.43 g/m*3 2.93 C 0.26667 km/h
3111 03-01-2021 19:00:00 2.66667 C 5.41 g/m*3 2.67 C 0.53333 km/h
3112 03-01-2021 20:00:00 2.51667 C 5.41 g/m*3 2.52 C 0.13333 km/h
3113 03-01-2021 21:00:00 2.46667 C 5.39 g/m*3 2.47 C 0.4 km/h
3114 03-01-2021 22:00:00 2.375 C 5.36 g/m*3 2.38 C 0 km/h
3115 03-01-2021 23:00:00 2.3 C 5.34 g/m*3 2.3 C 0 km/h
3116 04-01-2021 00:00:00 2.225 C 5.36 g/m*3 2.23 C 0 km/h
3117 04-01-2021 01:00:00 2.06667 C 5.3 g/m*3 2.07 C 0 km/h
3118 04-01-2021 02:00:00 1.85833 C 5.23 g/m*3 1.86 C 0.13333 km/h
3119 04-01-2021 03:00:00 1.78333 C 5.2 g/m*3 1.78 C 0.13333 km/h
3120 04-01-2021 04:00:00 1.63333 C 5.19 g/m*3 1.63 C 0 km/h
3121 04-01-2021 05:00:00 1.39167 C 5.1 g/m*3 1.39 C 0 km/h
3122 04-01-2021 06:00:00 1.06667 C 4.99 g/m*3 1.07 C 0 km/h
3123 04-01-2021 07:00:00 0.90833 C 4.95 g/m*3 0.91 C 0 km/h
3124 04-01-2021 08:00:00 0.96667 C 4.97 g/m*3 0.97 C 0 km/h
3125 04-01-2021 09:00:00 1.14167 C 5.03 g/m*3 1.14 C 0 km/h
Sensor: Nr:Datum:Temp:Abs-Feuchte:Windchill:Wind:
Aussen-T/F 3126 04-01-2021 10:00:00 1.31667 C 5.09 g/m*3 1.32 C 0.13333 km/h
3127 04-01-2021 11:00:00 1.60833 C 5.23 g/m*3 1.61 C 0 km/h
3128 04-01-2021 12:00:00 1.81667 C 5.32 g/m*3 1.82 C 0.13333 km/h
3129 04-01-2021 13:00:00 1.975 C 5.38 g/m*3 1.98 C 0.53333 km/h
3130 04-01-2021 14:00:00 2.025 C 5.4 g/m*3 2.03 C 0.26667 km/h
3131 04-01-2021 15:00:00 2 C 5.39 g/m*3 2 C 0.26667 km/h
3132 04-01-2021 16:00:00 1.93333 C 5.37 g/m*3 1.93 C 0 km/h
3133 04-01-2021 17:00:00 1.80833 C 5.32 g/m*3 1.81 C 0 km/h
3134 04-01-2021 18:00:00 1.8 C 5.32 g/m*3 1.8 C 0.66667 km/h
3135 04-01-2021 19:00:00 1.8 C 5.32 g/m*3 1.8 C 1.06667 km/h
3136 04-01-2021 20:00:00 1.75 C 5.3 g/m*3 1.75 C 0 km/h
3137 04-01-2021 21:00:00 1.70833 C 5.28 g/m*3 1.71 C 0 km/h
3138 04-01-2021 22:00:00 1.775 C 5.31 g/m*3 1.78 C 0 km/h
3139 04-01-2021 23:00:00 1.8 C 5.32 g/m*3 1.8 C 0.53333 km/h
3140 05-01-2021 00:00:00 1.84167 C 5.33 g/m*3 1.84 C 0.4 km/h
3141 05-01-2021 01:00:00 1.9 C 5.35 g/m*3 1.9 C 0.4 km/h
3142 05-01-2021 02:00:00 1.9 C 5.35 g/m*3 1.9 C 0.53333 km/h
3143 05-01-2021 03:00:00 1.99167 C 5.38 g/m*3 1.99 C 0.13333 km/h
3144 05-01-2021 04:00:00 2.1 C 5.37 g/m*3 2.1 C 0 km/h
3145 05-01-2021 05:00:00 2.08333 C 5.36 g/m*3 2.08 C 0 km/h
3146 05-01-2021 06:00:00 2.1 C 5.37 g/m*3 2.1 C 0 km/h
3147 05-01-2021 07:00:00